Wetterdaten: Samstag, 04.10.2025
Datum Zeit Temp. I. Temp. A. Feuchte I. Feuchte A. Luftdruck Regen Wind Richtung Richtung Sonnenschein Solar Taupunkt Windchill Windböen
04.10.2025 00:00 21,1 °C 8,8 °C 60 % 76 % 1016,7 hPa 0,0 l/m² 12,3 km/h (2 Bft) SO 131 ° 0 min 0 W/m² 4,8 °C 5,0 °C 16,1 km/h (3 Bft)
04.10.2025 00:02 21,1 °C 8,8 °C 60 % 75 % 1016,8 hPa 0,0 l/m² 13,0 km/h (3 Bft) O-SO 103 ° 0 min 0 W/m² 4,6 °C 4,6 °C 20,9 km/h (4 Bft)
04.10.2025 00:04 21,0 °C 8,8 °C 60 % 75 % 1016,7 hPa 0,0 l/m² 11,8 km/h (2 Bft) SO 144 ° 0 min 0 W/m² 4,6 °C 5,2 °C 14,5 km/h (3 Bft)
04.10.2025 00:06 21,1 °C 8,8 °C 60 % 75 % 1016,6 hPa 0,0 l/m² 9,8 km/h (2 Bft) SO 132 ° 0 min 0 W/m² 4,6 °C 6,4 °C 16,1 km/h (3 Bft)
04.10.2025 00:08 21,0 °C 8,8 °C 60 % 75 % 1016,6 hPa 0,0 l/m² 10,5 km/h (2 Bft) SO 135 ° 0 min 0 W/m² 4,6 °C 6,0 °C 17,7 km/h (3 Bft)
04.10.2025 00:10 21,0 °C 8,8 °C 60 % 75 % 1016,6 hPa 0,0 l/m² 11,2 km/h (2 Bft) O-SO 113 ° 0 min 0 W/m² 4,6 °C 5,6 °C 19,3 km/h (3 Bft)
04.10.2025 00:11 21,1 °C 8,9 °C 60 % 75 % 1016,5 hPa 0,0 l/m² 10,3 km/h (2 Bft) SO 132 ° 0 min 0 W/m² 4,7 °C 6,2 °C 14,5 km/h (3 Bft)
04.10.2025 00:12 21,1 °C 8,8 °C 60 % 75 % 1016,5 hPa 0,0 l/m² 11,2 km/h (2 Bft) O-SO 115 ° 0 min 0 W/m² 4,6 °C 5,6 °C 16,1 km/h (3 Bft)
04.10.2025 00:13 21,1 °C 8,8 °C 60 % 75 % 1016,5 hPa 0,0 l/m² 11,3 km/h (2 Bft) O-SO 113 ° 0 min 0 W/m² 4,6 °C 5,5 °C 14,5 km/h (3 Bft)
04.10.2025 00:15 21,1 °C 8,8 °C 60 % 75 % 1016,4 hPa 0,0 l/m² 12,6 km/h (3 Bft) O-SO 103 ° 0 min 0 W/m² 4,6 °C 4,8 °C 16,1 km/h (3 Bft)
04.10.2025 00:17 21,1 °C 8,9 °C 60 % 75 % 1016,3 hPa 0,0 l/m² 12,5 km/h (2 Bft) SO 130 ° 0 min 0 W/m² 4,7 °C 5,0 °C 17,7 km/h (3 Bft)
04.10.2025 00:19 21,1 °C 8,8 °C 60 % 75 % 1016,3 hPa 0,0 l/m² 12,8 km/h (3 Bft) O-SO 116 ° 0 min 0 W/m² 4,6 °C 4,7 °C 17,7 km/h (3 Bft)
04.10.2025 00:21 21,0 °C 8,9 °C 60 % 75 % 1016,3 hPa 0,0 l/m² 11,8 km/h (2 Bft) SO 135 ° 0 min 0 W/m² 4,7 °C 5,4 °C 16,1 km/h (3 Bft)
04.10.2025 00:22 21,1 °C 8,9 °C 60 % 75 % 1016,3 hPa 0,0 l/m² 10,8 km/h (2 Bft) SO 128 ° 0 min 0 W/m² 4,7 °C 5,9 °C 16,1 km/h (3 Bft)
04.10.2025 00:24 21,0 °C 8,8 °C 60 % 75 % 1016,2 hPa 0,0 l/m² 12,6 km/h (3 Bft) SO 128 ° 0 min 0 W/m² 4,6 °C 4,8 °C 17,7 km/h (3 Bft)
04.10.2025 00:26 21,0 °C 8,9 °C 60 % 75 % 1016,1 hPa 0,0 l/m² 12,3 km/h (2 Bft) SO 130 ° 0 min 0 W/m² 4,7 °C 5,1 °C 16,1 km/h (3 Bft)
04.10.2025 00:28 21,0 °C 8,8 °C 60 % 75 % 1016,0 hPa 0,0 l/m² 12,2 km/h (2 Bft) SO 124 ° 0 min 0 W/m² 4,6 °C 5,0 °C 17,7 km/h (3 Bft)
04.10.2025 00:30 21,0 °C 8,9 °C 60 % 75 % 1015,9 hPa 0,0 l/m² 13,8 km/h (3 Bft) O-SO 111 ° 0 min 0 W/m² 4,7 °C 4,3 °C 20,9 km/h (4 Bft)
04.10.2025 00:31 21,0 °C 8,8 °C 60 % 75 % 1015,9 hPa 0,0 l/m² 13,4 km/h (3 Bft) O-SO 121 ° 0 min 0 W/m² 4,6 °C 4,4 °C 17,7 km/h (3 Bft)
04.10.2025 00:32 21,0 °C 8,8 °C 60 % 75 % 1015,8 hPa 0,0 l/m² 13,1 km/h (3 Bft) O-SO 109 ° 0 min 0 W/m² 4,6 °C 4,6 °C 17,7 km/h (3 Bft)
04.10.2025 00:33 21,0 °C 8,9 °C 60 % 75 % 1015,8 hPa 0,0 l/m² 15,6 km/h (3 Bft) O-SO 114 ° 0 min 0 W/m² 4,7 °C 3,5 °C 19,3 km/h (3 Bft)
04.10.2025 00:35 21,0 °C 8,8 °C 60 % 75 % 1015,7 hPa 0,0 l/m² 13,5 km/h (3 Bft) O-SO 118 ° 0 min 0 W/m² 4,6 °C 4,4 °C 19,3 km/h (3 Bft)
04.10.2025 00:37 21,0 °C 8,8 °C 60 % 74 % 1015,8 hPa 0,0 l/m² 12,6 km/h (3 Bft) O-SO 120 ° 0 min 0 W/m² 4,4 °C 4,8 °C 17,7 km/h (3 Bft)
04.10.2025 00:39 21,0 °C 8,8 °C 60 % 75 % 1015,7 hPa 0,0 l/m² 13,1 km/h (3 Bft) SO 144 ° 0 min 0 W/m² 4,6 °C 4,6 °C 17,7 km/h (3 Bft)
04.10.2025 00:41 21,1 °C 8,8 °C 60 % 74 % 1015,7 hPa 0,0 l/m² 14,2 km/h (3 Bft) SO 132 ° 0 min 0 W/m² 4,4 °C 4,0 °C 19,3 km/h (3 Bft)
04.10.2025 00:42 21,1 °C 8,9 °C 60 % 74 % 1015,6 hPa 0,0 l/m² 15,7 km/h (3 Bft) O-SO 122 ° 0 min 0 W/m² 4,5 °C 3,5 °C 19,3 km/h (3 Bft)
04.10.2025 00:43 21,0 °C 8,9 °C 60 % 74 % 1015,6 hPa 0,0 l/m² 13,9 km/h (3 Bft) O-SO 111 ° 0 min 0 W/m² 4,5 °C 4,3 °C 17,7 km/h (3 Bft)
04.10.2025 00:45 21,1 °C 8,9 °C 60 % 74 % 1015,6 hPa 0,0 l/m² 13,6 km/h (3 Bft) O-SO 120 ° 0 min 0 W/m² 4,5 °C 4,4 °C 24,1 km/h (4 Bft)
04.10.2025 00:46 21,0 °C 8,8 °C 60 % 74 % 1015,6 hPa 0,0 l/m² 14,4 km/h (3 Bft) O-SO 119 ° 0 min 0 W/m² 4,4 °C 4,0 °C 22,5 km/h (4 Bft)
04.10.2025 00:48 21,0 °C 8,9 °C 60 % 74 % 1015,6 hPa 0,0 l/m² 13,1 km/h (3 Bft) SO 129 ° 0 min 0 W/m² 4,5 °C 4,7 °C 20,9 km/h (4 Bft)
04.10.2025 00:50 21,0 °C 8,9 °C 60 % 74 % 1015,7 hPa 0,0 l/m² 14,7 km/h (3 Bft) SO 128 ° 0 min 0 W/m² 4,5 °C 3,9 °C 19,3 km/h (3 Bft)
04.10.2025 00:51 21,0 °C 8,9 °C 60 % 74 % 1015,6 hPa 0,0 l/m² 14,1 km/h (3 Bft) O-SO 118 ° 0 min 0 W/m² 4,5 °C 4,2 °C 17,7 km/h (3 Bft)
04.10.2025 00:52 21,0 °C 8,9 °C 59 % 73 % 1015,7 hPa 0,0 l/m² 10,3 km/h (2 Bft) SO 134 ° 0 min 0 W/m² 4,3 °C 6,2 °C 12,9 km/h (3 Bft)
04.10.2025 00:53 21,0 °C 8,9 °C 60 % 73 % 1015,6 hPa 0,0 l/m² 13,8 km/h (3 Bft) SO 128 ° 0 min 0 W/m² 4,3 °C 4,3 °C 19,3 km/h (3 Bft)
04.10.2025 00:55 21,0 °C 8,9 °C 59 % 73 % 1015,6 hPa 0,0 l/m² 13,1 km/h (3 Bft) O-SO 122 ° 0 min 0 W/m² 4,3 °C 4,7 °C 19,3 km/h (3 Bft)
04.10.2025 00:57 21,0 °C 8,9 °C 59 % 73 % 1015,5 hPa 0,0 l/m² 12,0 km/h (2 Bft) SO 126 ° 0 min 0 W/m² 4,3 °C 5,2 °C 17,7 km/h (3 Bft)
04.10.2025 00:59 21,0 °C 9,0 °C 59 % 73 % 1015,5 hPa 0,0 l/m² 13,1 km/h (3 Bft) O-SO 113 ° 0 min 0 W/m² 4,4 °C 4,8 °C 17,7 km/h (3 Bft)
04.10.2025 01:01 21,0 °C 9,0 °C 59 % 73 % 1015,5 hPa 0,0 l/m² 12,2 km/h (2 Bft) O-SO 123 ° 0 min 0 W/m² 4,4 °C 5,3 °C 17,7 km/h (3 Bft)
04.10.2025 01:02 21,0 °C 9,0 °C 59 % 73 % 1015,5 hPa 0,0 l/m² 15,4 km/h (3 Bft) S-SO 150 ° 0 min 0 W/m² 4,4 °C 3,7 °C 20,9 km/h (4 Bft)
04.10.2025 01:03 21,0 °C 9,0 °C 59 % 73 % 1015,5 hPa 0,0 l/m² 15,1 km/h (3 Bft) O-SO 114 ° 0 min 0 W/m² 4,4 °C 3,9 °C 20,9 km/h (4 Bft)
04.10.2025 01:05 21,0 °C 9,1 °C 59 % 73 % 1015,5 hPa 0,0 l/m² 13,5 km/h (3 Bft) O-SO 113 ° 0 min 0 W/m² 4,5 °C 4,7 °C 17,7 km/h (3 Bft)
04.10.2025 01:06 21,0 °C 9,1 °C 59 % 73 % 1015,5 hPa 0,0 l/m² 10,6 km/h (2 Bft) SO 131 ° 0 min 0 W/m² 4,5 °C 6,2 °C 12,9 km/h (3 Bft)
04.10.2025 01:08 21,0 °C 9,1 °C 59 % 73 % 1015,4 hPa 0,0 l/m² 15,4 km/h (3 Bft) O-SO 107 ° 0 min 0 W/m² 4,5 °C 3,9 °C 20,9 km/h (4 Bft)
04.10.2025 01:09 21,0 °C 9,1 °C 59 % 72 % 1015,4 hPa 0,0 l/m² 14,2 km/h (3 Bft) O 101 ° 0 min 0 W/m² 4,3 °C 4,4 °C 19,3 km/h (3 Bft)
04.10.2025 01:10 21,0 °C 9,1 °C 59 % 72 % 1015,4 hPa 0,0 l/m² 14,7 km/h (3 Bft) O-SO 116 ° 0 min 0 W/m² 4,3 °C 4,2 °C 17,7 km/h (3 Bft)
04.10.2025 01:11 21,0 °C 9,1 °C 59 % 72 % 1015,3 hPa 0,0 l/m² 10,8 km/h (2 Bft) O-SO 122 ° 0 min 0 W/m² 4,3 °C 6,1 °C 17,7 km/h (3 Bft)
04.10.2025 01:12 21,0 °C 9,1 °C 59 % 72 % 1015,4 hPa 0,0 l/m² 10,1 km/h (2 Bft) SO 130 ° 0 min 0 W/m² 4,3 °C 6,5 °C 16,1 km/h (3 Bft)
04.10.2025 01:13 21,0 °C 9,2 °C 59 % 72 % 1015,2 hPa 0,0 l/m² 14,6 km/h (3 Bft) SO 131 ° 0 min 0 W/m² 4,4 °C 4,3 °C 19,3 km/h (3 Bft)
04.10.2025 01:14 21,0 °C 9,2 °C 59 % 72 % 1015,2 hPa 0,0 l/m² 15,5 km/h (3 Bft) SO 139 ° 0 min 0 W/m² 4,4 °C 4,0 °C 20,9 km/h (4 Bft)
04.10.2025 01:15 21,0 °C 9,2 °C 59 % 72 % 1015,2 hPa 0,0 l/m² 12,1 km/h (2 Bft) SO 130 ° 0 min 0 W/m² 4,4 °C 5,5 °C 14,5 km/h (3 Bft)
04.10.2025 01:16 21,0 °C 9,2 °C 59 % 72 % 1015,2 hPa 0,0 l/m² 11,5 km/h (2 Bft) SO 133 ° 0 min 0 W/m² 4,4 °C 5,9 °C 17,7 km/h (3 Bft)
04.10.2025 01:17 21,0 °C 9,2 °C 59 % 72 % 1015,2 hPa 0,0 l/m² 10,7 km/h (2 Bft) SO 138 ° 0 min 0 W/m² 4,4 °C 6,3 °C 16,1 km/h (3 Bft)
04.10.2025 01:18 21,0 °C 9,2 °C 59 % 72 % 1015,2 hPa 0,0 l/m² 12,5 km/h (2 Bft) SO 128 ° 0 min 0 W/m² 4,4 °C 5,3 °C 17,7 km/h (3 Bft)
04.10.2025 01:19 21,0 °C 9,2 °C 59 % 72 % 1015,1 hPa 0,0 l/m² 15,9 km/h (3 Bft) SO 141 ° 0 min 0 W/m² 4,4 °C 3,8 °C 19,3 km/h (3 Bft)
04.10.2025 01:20 21,0 °C 9,2 °C 59 % 72 % 1015,1 hPa 0,0 l/m² 11,3 km/h (2 Bft) O-SO 123 ° 0 min 0 W/m² 4,4 °C 6,0 °C 14,5 km/h (3 Bft)
04.10.2025 01:21 20,9 °C 9,2 °C 59 % 72 % 1015,1 hPa 0,0 l/m² 15,0 km/h (3 Bft) SO 141 ° 0 min 0 W/m² 4,4 °C 4,2 °C 22,5 km/h (4 Bft)
04.10.2025 01:22 21,0 °C 9,2 °C 59 % 71 % 1015,2 hPa 0,0 l/m² 12,3 km/h (2 Bft) O-SO 104 ° 0 min 0 W/m² 4,2 °C 5,4 °C 19,3 km/h (3 Bft)
04.10.2025 01:23 20,9 °C 9,2 °C 59 % 71 % 1015,1 hPa 0,0 l/m² 13,8 km/h (3 Bft) O-SO 119 ° 0 min 0 W/m² 4,2 °C 4,7 °C 20,9 km/h (4 Bft)
04.10.2025 01:24 21,0 °C 9,2 °C 59 % 71 % 1015,1 hPa 0,0 l/m² 13,5 km/h (3 Bft) SO 137 ° 0 min 0 W/m² 4,2 °C 4,8 °C 17,7 km/h (3 Bft)
04.10.2025 01:25 20,9 °C 9,2 °C 59 % 71 % 1015,1 hPa 0,0 l/m² 15,6 km/h (3 Bft) SO 134 ° 0 min 0 W/m² 4,2 °C 3,9 °C 24,1 km/h (4 Bft)
04.10.2025 01:26 21,0 °C 9,3 °C 59 % 71 % 1015,1 hPa 0,0 l/m² 15,9 km/h (3 Bft) S-SO 150 ° 0 min 0 W/m² 4,3 °C 3,9 °C 22,5 km/h (4 Bft)
04.10.2025 01:27 21,0 °C 9,3 °C 59 % 71 % 1015,1 hPa 0,0 l/m² 17,6 km/h (3 Bft) SO 133 ° 0 min 0 W/m² 4,3 °C 3,2 °C 22,5 km/h (4 Bft)
04.10.2025 01:28 21,0 °C 9,3 °C 59 % 71 % 1015,0 hPa 0,0 l/m² 14,9 km/h (3 Bft) SO 138 ° 0 min 0 W/m² 4,3 °C 4,3 °C 19,3 km/h (3 Bft)
04.10.2025 01:29 21,0 °C 9,3 °C 59 % 71 % 1015,0 hPa 0,0 l/m² 18,8 km/h (3 Bft) SO 146 ° 0 min 0 W/m² 4,3 °C 2,8 °C 25,7 km/h (4 Bft)
04.10.2025 01:30 21,0 °C 9,3 °C 59 % 71 % 1014,9 hPa 0,0 l/m² 18,4 km/h (3 Bft) SO 130 ° 0 min 0 W/m² 4,3 °C 2,9 °C 24,1 km/h (4 Bft)
04.10.2025 01:31 21,0 °C 9,3 °C 59 % 71 % 1015,0 hPa 0,0 l/m² 15,4 km/h (3 Bft) SO 131 ° 0 min 0 W/m² 4,3 °C 4,1 °C 17,7 km/h (3 Bft)
04.10.2025 01:32 21,0 °C 9,4 °C 59 % 71 % 1015,1 hPa 0,0 l/m² 14,5 km/h (3 Bft) SO 137 ° 0 min 0 W/m² 4,4 °C 4,6 °C 19,3 km/h (3 Bft)
04.10.2025 01:33 21,0 °C 9,4 °C 59 % 71 % 1015,1 hPa 0,0 l/m² 14,1 km/h (3 Bft) O-SO 112 ° 0 min 0 W/m² 4,4 °C 4,8 °C 20,9 km/h (4 Bft)
04.10.2025 01:34 21,0 °C 9,4 °C 59 % 71 % 1014,9 hPa 0,0 l/m² 22,0 km/h (4 Bft) O 101 ° 0 min 0 W/m² 4,4 °C 1,9 °C 30,6 km/h (5 Bft)
04.10.2025 01:35 21,0 °C 9,4 °C 59 % 70 % 1015,0 hPa 0,0 l/m² 21,3 km/h (4 Bft) SO 124 ° 0 min 0 W/m² 4,2 °C 2,1 °C 27,4 km/h (5 Bft)
04.10.2025 01:36 20,9 °C 9,4 °C 59 % 70 % 1015,0 hPa 0,0 l/m² 17,8 km/h (3 Bft) S-SO 148 ° 0 min 0 W/m² 4,2 °C 3,3 °C 24,1 km/h (4 Bft)
04.10.2025 01:37 21,0 °C 9,5 °C 59 % 70 % 1014,8 hPa 0,0 l/m² 19,2 km/h (3 Bft) SO 130 ° 0 min 0 W/m² 4,3 °C 2,9 °C 27,4 km/h (5 Bft)
04.10.2025 01:38 20,9 °C 9,6 °C 59 % 70 % 1014,9 hPa 0,0 l/m² 19,7 km/h (3 Bft) SO 129 ° 0 min 0 W/m² 4,4 °C 2,9 °C 27,4 km/h (5 Bft)
04.10.2025 01:39 20,9 °C 9,6 °C 59 % 70 % 1014,9 hPa 0,0 l/m² 19,7 km/h (3 Bft) SO 128 ° 0 min 0 W/m² 4,4 °C 2,9 °C 24,1 km/h (4 Bft)
04.10.2025 01:40 20,9 °C 9,6 °C 59 % 70 % 1014,9 hPa 0,0 l/m² 15,8 km/h (3 Bft) SO 145 ° 0 min 0 W/m² 4,4 °C 4,3 °C 19,3 km/h (3 Bft)
04.10.2025 01:41 20,9 °C 9,6 °C 59 % 70 % 1014,8 hPa 0,0 l/m² 16,6 km/h (3 Bft) O-SO 120 ° 0 min 0 W/m² 4,4 °C 4,0 °C 22,5 km/h (4 Bft)
04.10.2025 01:42 21,0 °C 9,6 °C 59 % 70 % 1014,8 hPa 0,0 l/m² 17,0 km/h (3 Bft) O-SO 123 ° 0 min 0 W/m² 4,4 °C 3,8 °C 19,3 km/h (3 Bft)
04.10.2025 01:43 21,0 °C 9,6 °C 59 % 70 % 1014,8 hPa 0,0 l/m² 15,5 km/h (3 Bft) SO 129 ° 0 min 0 W/m² 4,4 °C 4,4 °C 20,9 km/h (4 Bft)
04.10.2025 01:44 20,9 °C 9,6 °C 59 % 70 % 1014,7 hPa 0,0 l/m² 19,6 km/h (3 Bft) O-SO 123 ° 0 min 0 W/m² 4,4 °C 2,9 °C 25,7 km/h (4 Bft)
04.10.2025 01:45 20,9 °C 9,7 °C 59 % 70 % 1014,7 hPa 0,0 l/m² 16,1 km/h (3 Bft) O-SO 114 ° 0 min 0 W/m² 4,5 °C 4,3 °C 20,9 km/h (4 Bft)
04.10.2025 01:46 20,9 °C 9,7 °C 59 % 70 % 1014,8 hPa 0,0 l/m² 18,2 km/h (3 Bft) S-SO 147 ° 0 min 0 W/m² 4,5 °C 3,5 °C 24,1 km/h (4 Bft)
04.10.2025 01:47 21,0 °C 9,7 °C 59 % 70 % 1014,8 hPa 0,0 l/m² 16,8 km/h (3 Bft) SO 128 ° 0 min 0 W/m² 4,5 °C 4,0 °C 24,1 km/h (4 Bft)
04.10.2025 01:48 20,9 °C 9,7 °C 59 % 70 % 1014,7 hPa 0,0 l/m² 19,8 km/h (3 Bft) SO 129 ° 0 min 0 W/m² 4,5 °C 3,0 °C 25,7 km/h (4 Bft)
04.10.2025 01:49 21,0 °C 9,7 °C 59 % 69 % 1014,6 hPa 0,0 l/m² 17,0 km/h (3 Bft) SO 132 ° 0 min 0 W/m² 4,3 °C 4,0 °C 22,5 km/h (4 Bft)
04.10.2025 01:50 20,9 °C 9,7 °C 59 % 69 % 1014,7 hPa 0,0 l/m² 20,5 km/h (4 Bft) O-SO 108 ° 0 min 0 W/m² 4,3 °C 2,7 °C 24,1 km/h (4 Bft)
04.10.2025 01:51 20,9 °C 9,7 °C 59 % 69 % 1014,7 hPa 0,0 l/m² 14,1 km/h (3 Bft) SO 146 ° 0 min 0 W/m² 4,3 °C 5,2 °C 19,3 km/h (3 Bft)
04.10.2025 01:52 20,9 °C 9,7 °C 59 % 69 % 1014,7 hPa 0,0 l/m² 16,9 km/h (3 Bft) S-SO 148 ° 0 min 0 W/m² 4,3 °C 4,0 °C 22,5 km/h (4 Bft)
04.10.2025 01:53 20,9 °C 9,7 °C 59 % 69 % 1014,6 hPa 0,0 l/m² 14,2 km/h (3 Bft) SO 142 ° 0 min 0 W/m² 4,3 °C 5,1 °C 19,3 km/h (3 Bft)
04.10.2025 01:54 21,0 °C 9,8 °C 59 % 69 % 1014,6 hPa 0,0 l/m² 18,1 km/h (3 Bft) SO 136 ° 0 min 0 W/m² 4,4 °C 3,7 °C 24,1 km/h (4 Bft)
04.10.2025 01:55 20,9 °C 9,8 °C 59 % 69 % 1014,5 hPa 0,0 l/m² 15,5 km/h (3 Bft) SO 130 ° 0 min 0 W/m² 4,4 °C 4,7 °C 20,9 km/h (4 Bft)
04.10.2025 01:56 20,9 °C 9,7 °C 59 % 69 % 1014,6 hPa 0,0 l/m² 14,9 km/h (3 Bft) SO 127 ° 0 min 0 W/m² 4,3 °C 4,8 °C 19,3 km/h (3 Bft)
04.10.2025 01:57 20,9 °C 9,8 °C 59 % 69 % 1014,6 hPa 0,0 l/m² 13,0 km/h (3 Bft) SO 137 ° 0 min 0 W/m² 4,4 °C 5,8 °C 19,3 km/h (3 Bft)
04.10.2025 01:58 20,9 °C 9,7 °C 59 % 69 % 1014,6 hPa 0,0 l/m² 15,7 km/h (3 Bft) S-SO 163 ° 0 min 0 W/m² 4,3 °C 4,5 °C 20,9 km/h (4 Bft)
04.10.2025 01:59 20,9 °C 9,7 °C 59 % 69 % 1014,5 hPa 0,0 l/m² 17,7 km/h (3 Bft) S-SO 148 ° 0 min 0 W/m² 4,3 °C 3,7 °C 24,1 km/h (4 Bft)
04.10.2025 02:00 20,9 °C 9,8 °C 59 % 69 % 1014,6 hPa 0,0 l/m² 18,4 km/h (3 Bft) O-SO 119 ° 0 min 0 W/m² 4,4 °C 3,6 °C 24,1 km/h (4 Bft)
04.10.2025 02:01 20,9 °C 9,8 °C 59 % 69 % 1014,6 hPa 0,0 l/m² 16,8 km/h (3 Bft) S-SO 155 ° 0 min 0 W/m² 4,4 °C 4,2 °C 22,5 km/h (4 Bft)
04.10.2025 02:02 20,9 °C 9,8 °C 59 % 69 % 1014,5 hPa 0,0 l/m² 15,0 km/h (3 Bft) SO 134 ° 0 min 0 W/m² 4,4 °C 4,9 °C 20,9 km/h (4 Bft)
04.10.2025 02:03 20,9 °C 9,8 °C 59 % 69 % 1014,5 hPa 0,0 l/m² 17,4 km/h (3 Bft) O-SO 123 ° 0 min 0 W/m² 4,4 °C 3,9 °C 24,1 km/h (4 Bft)
04.10.2025 02:04 20,9 °C 9,8 °C 59 % 69 % 1014,4 hPa 0,0 l/m² 16,6 km/h (3 Bft) SO 134 ° 0 min 0 W/m² 4,4 °C 4,2 °C 22,5 km/h (4 Bft)
04.10.2025 02:05 20,9 °C 9,8 °C 59 % 69 % 1014,4 hPa 0,0 l/m² 17,3 km/h (3 Bft) SO 130 ° 0 min 0 W/m² 4,4 °C 4,0 °C 22,5 km/h (4 Bft)
04.10.2025 02:06 21,0 °C 9,8 °C 59 % 69 % 1014,4 hPa 0,0 l/m² 17,3 km/h (3 Bft) O-SO 107 ° 0 min 0 W/m² 4,4 °C 4,0 °C 24,1 km/h (4 Bft)
04.10.2025 02:07 20,9 °C 9,8 °C 59 % 69 % 1014,5 hPa 0,0 l/m² 14,9 km/h (3 Bft) SO 134 ° 0 min 0 W/m² 4,4 °C 4,9 °C 19,3 km/h (3 Bft)
04.10.2025 02:08 20,9 °C 9,8 °C 59 % 69 % 1014,4 hPa 0,0 l/m² 16,7 km/h (3 Bft) SO 136 ° 0 min 0 W/m² 4,4 °C 4,2 °C 24,1 km/h (4 Bft)
04.10.2025 02:09 20,9 °C 9,8 °C 59 % 69 % 1014,4 hPa 0,0 l/m² 16,6 km/h (3 Bft) SO 136 ° 0 min 0 W/m² 4,4 °C 4,2 °C 20,9 km/h (4 Bft)
04.10.2025 02:10 20,9 °C 9,8 °C 59 % 69 % 1014,4 hPa 0,0 l/m² 16,4 km/h (3 Bft) SO 130 ° 0 min 0 W/m² 4,4 °C 4,3 °C 19,3 km/h (3 Bft)
04.10.2025 02:11 20,9 °C 9,8 °C 59 % 69 % 1014,4 hPa 0,0 l/m² 13,9 km/h (3 Bft) SO 128 ° 0 min 0 W/m² 4,4 °C 5,4 °C 17,7 km/h (3 Bft)
04.10.2025 02:12 20,9 °C 9,8 °C 59 % 69 % 1014,4 hPa 0,0 l/m² 15,4 km/h (3 Bft) SO 143 ° 0 min 0 W/m² 4,4 °C 4,7 °C 20,9 km/h (4 Bft)
04.10.2025 02:13 21,0 °C 9,8 °C 59 % 69 % 1014,4 hPa 0,0 l/m² 14,1 km/h (3 Bft) SO 129 ° 0 min 0 W/m² 4,4 °C 5,3 °C 17,7 km/h (3 Bft)
04.10.2025 02:14 20,9 °C 9,8 °C 59 % 69 % 1014,3 hPa 0,0 l/m² 15,3 km/h (3 Bft) SO 140 ° 0 min 0 W/m² 4,4 °C 4,8 °C 22,5 km/h (4 Bft)
04.10.2025 02:15 20,9 °C 9,8 °C 59 % 69 % 1014,3 hPa 0,0 l/m² 17,4 km/h (3 Bft) SO 126 ° 0 min 0 W/m² 4,4 °C 3,9 °C 22,5 km/h (4 Bft)
04.10.2025 02:16 20,9 °C 9,8 °C 59 % 69 % 1014,3 hPa 0,0 l/m² 15,1 km/h (3 Bft) S-SO 153 ° 0 min 0 W/m² 4,4 °C 4,8 °C 19,3 km/h (3 Bft)
04.10.2025 02:17 20,9 °C 9,7 °C 59 % 69 % 1014,3 hPa 0,0 l/m² 17,0 km/h (3 Bft) SO 132 ° 0 min 0 W/m² 4,3 °C 4,0 °C 20,9 km/h (4 Bft)
04.10.2025 02:18 20,9 °C 9,8 °C 59 % 69 % 1014,3 hPa 0,0 l/m² 15,8 km/h (3 Bft) S-SO 152 ° 0 min 0 W/m² 4,4 °C 4,6 °C 20,9 km/h (4 Bft)
04.10.2025 02:19 20,9 °C 9,8 °C 59 % 69 % 1014,3 hPa 0,0 l/m² 13,4 km/h (3 Bft) SO 124 ° 0 min 0 W/m² 4,4 °C 5,6 °C 19,3 km/h (3 Bft)
04.10.2025 02:20 21,0 °C 9,7 °C 59 % 69 % 1014,3 hPa 0,0 l/m² 16,0 km/h (3 Bft) SO 128 ° 0 min 0 W/m² 4,3 °C 4,4 °C 24,1 km/h (4 Bft)
04.10.2025 02:21 20,9 °C 9,7 °C 59 % 69 % 1014,3 hPa 0,0 l/m² 15,4 km/h (3 Bft) SO 144 ° 0 min 0 W/m² 4,3 °C 4,6 °C 19,3 km/h (3 Bft)
04.10.2025 02:22 20,9 °C 9,7 °C 59 % 69 % 1014,3 hPa 0,0 l/m² 16,5 km/h (3 Bft) SO 131 ° 0 min 0 W/m² 4,3 °C 4,2 °C 24,1 km/h (4 Bft)
04.10.2025 02:23 21,0 °C 9,7 °C 59 % 69 % 1014,3 hPa 0,0 l/m² 16,6 km/h (3 Bft) SO 132 ° 0 min 0 W/m² 4,3 °C 4,1 °C 20,9 km/h (4 Bft)
04.10.2025 02:24 21,0 °C 9,7 °C 59 % 69 % 1014,2 hPa 0,0 l/m² 11,0 km/h (2 Bft) SO 133 ° 0 min 0 W/m² 4,3 °C 6,7 °C 17,7 km/h (3 Bft)
04.10.2025 02:25 21,0 °C 9,7 °C 59 % 69 % 1014,3 hPa 0,0 l/m² 15,6 km/h (3 Bft) SO 132 ° 0 min 0 W/m² 4,3 °C 4,5 °C 19,3 km/h (3 Bft)
04.10.2025 02:26 21,0 °C 9,7 °C 59 % 69 % 1014,2 hPa 0,0 l/m² 15,2 km/h (3 Bft) SO 135 ° 0 min 0 W/m² 4,3 °C 4,7 °C 17,7 km/h (3 Bft)
04.10.2025 02:27 21,0 °C 9,7 °C 59 % 69 % 1014,2 hPa 0,0 l/m² 15,5 km/h (3 Bft) SO 138 ° 0 min 0 W/m² 4,3 °C 4,6 °C 20,9 km/h (4 Bft)
04.10.2025 02:28 21,0 °C 9,7 °C 59 % 69 % 1014,2 hPa 0,0 l/m² 15,5 km/h (3 Bft) SO 134 ° 0 min 0 W/m² 4,3 °C 4,6 °C 20,9 km/h (4 Bft)
04.10.2025 02:29 21,0 °C 9,7 °C 59 % 70 % 1014,2 hPa 0,0 l/m² 13,3 km/h (3 Bft) SO 136 ° 0 min 0 W/m² 4,5 °C 5,5 °C 16,1 km/h (3 Bft)
04.10.2025 02:30 21,0 °C 9,7 °C 59 % 70 % 1014,2 hPa 0,0 l/m² 13,7 km/h (3 Bft) SO 128 ° 0 min 0 W/m² 4,5 °C 5,3 °C 16,1 km/h (3 Bft)
04.10.2025 02:31 21,0 °C 9,7 °C 59 % 70 % 1014,2 hPa 0,0 l/m² 11,1 km/h (2 Bft) SO 141 ° 0 min 0 W/m² 4,5 °C 6,6 °C 16,1 km/h (3 Bft)
04.10.2025 02:32 21,0 °C 9,7 °C 59 % 70 % 1014,1 hPa 0,0 l/m² 14,6 km/h (3 Bft) O-SO 119 ° 0 min 0 W/m² 4,5 °C 4,9 °C 20,9 km/h (4 Bft)
04.10.2025 02:33 21,0 °C 9,7 °C 59 % 70 % 1014,1 hPa 0,0 l/m² 13,8 km/h (3 Bft) SO 140 ° 0 min 0 W/m² 4,5 °C 5,3 °C 17,7 km/h (3 Bft)
04.10.2025 02:34 21,0 °C 9,7 °C 59 % 70 % 1014,0 hPa 0,0 l/m² 12,6 km/h (3 Bft) O-SO 120 ° 0 min 0 W/m² 4,5 °C 5,9 °C 17,7 km/h (3 Bft)
04.10.2025 02:35 21,0 °C 9,6 °C 59 % 70 % 1014,1 hPa 0,0 l/m² 13,2 km/h (3 Bft) SO 138 ° 0 min 0 W/m² 4,4 °C 5,5 °C 20,9 km/h (4 Bft)
04.10.2025 02:36 21,0 °C 9,6 °C 59 % 70 % 1014,0 hPa 0,0 l/m² 13,3 km/h (3 Bft) O-SO 121 ° 0 min 0 W/m² 4,4 °C 5,4 °C 17,7 km/h (3 Bft)
04.10.2025 02:37 21,0 °C 9,6 °C 59 % 70 % 1014,0 hPa 0,0 l/m² 13,0 km/h (3 Bft) S-SO 148 ° 0 min 0 W/m² 4,4 °C 5,6 °C 16,1 km/h (3 Bft)
04.10.2025 02:38 21,0 °C 9,6 °C 59 % 70 % 1013,9 hPa 0,0 l/m² 13,5 km/h (3 Bft) O-SO 110 ° 0 min 0 W/m² 4,4 °C 5,3 °C 19,3 km/h (3 Bft)
04.10.2025 02:39 21,0 °C 9,6 °C 59 % 70 % 1013,9 hPa 0,0 l/m² 14,5 km/h (3 Bft) O-SO 121 ° 0 min 0 W/m² 4,4 °C 4,9 °C 17,7 km/h (3 Bft)
04.10.2025 02:40 21,0 °C 9,6 °C 59 % 70 % 1013,9 hPa 0,0 l/m² 13,8 km/h (3 Bft) O-SO 113 ° 0 min 0 W/m² 4,4 °C 5,2 °C 19,3 km/h (3 Bft)
04.10.2025 02:41 21,0 °C 9,6 °C 59 % 70 % 1014,0 hPa 0,0 l/m² 11,8 km/h (2 Bft) SO 132 ° 0 min 0 W/m² 4,4 °C 6,2 °C 16,1 km/h (3 Bft)
04.10.2025 02:42 21,0 °C 9,6 °C 59 % 70 % 1013,9 hPa 0,0 l/m² 10,1 km/h (2 Bft) SO 144 ° 0 min 0 W/m² 4,4 °C 7,1 °C 12,9 km/h (3 Bft)
04.10.2025 02:43 21,0 °C 9,6 °C 59 % 70 % 1013,9 hPa 0,0 l/m² 12,5 km/h (2 Bft) SO 126 ° 0 min 0 W/m² 4,4 °C 5,8 °C 20,9 km/h (4 Bft)
04.10.2025 02:44 21,0 °C 9,6 °C 59 % 70 % 1013,8 hPa 0,0 l/m² 14,9 km/h (3 Bft) SO 128 ° 0 min 0 W/m² 4,4 °C 4,7 °C 17,7 km/h (3 Bft)
04.10.2025 02:45 21,0 °C 9,6 °C 59 % 70 % 1013,7 hPa 0,0 l/m² 9,5 km/h (2 Bft) SO 135 ° 0 min 0 W/m² 4,4 °C 7,5 °C 12,9 km/h (3 Bft)
04.10.2025 02:46 21,0 °C 9,6 °C 59 % 70 % 1013,7 hPa 0,0 l/m² 10,9 km/h (2 Bft) O-SO 121 ° 0 min 0 W/m² 4,4 °C 6,6 °C 16,1 km/h (3 Bft)
04.10.2025 02:47 21,0 °C 9,6 °C 59 % 70 % 1013,7 hPa 0,0 l/m² 11,0 km/h (2 Bft) SO 127 ° 0 min 0 W/m² 4,4 °C 6,6 °C 14,5 km/h (3 Bft)
04.10.2025 02:48 21,1 °C 9,6 °C 59 % 70 % 1013,7 hPa 0,0 l/m² 11,9 km/h (2 Bft) O-SO 107 ° 0 min 0 W/m² 4,4 °C 6,1 °C 17,7 km/h (3 Bft)
04.10.2025 02:49 21,0 °C 9,6 °C 59 % 70 % 1013,7 hPa 0,0 l/m² 16,6 km/h (3 Bft) SO 125 ° 0 min 0 W/m² 4,4 °C 4,0 °C 19,3 km/h (3 Bft)
04.10.2025 02:50 21,0 °C 9,5 °C 59 % 70 % 1013,6 hPa 0,0 l/m² 15,8 km/h (3 Bft) SO 135 ° 0 min 0 W/m² 4,3 °C 4,2 °C 20,9 km/h (4 Bft)
04.10.2025 02:51 21,0 °C 9,5 °C 59 % 70 % 1013,7 hPa 0,0 l/m² 14,0 km/h (3 Bft) O-SO 123 ° 0 min 0 W/m² 4,3 °C 5,0 °C 24,1 km/h (4 Bft)
04.10.2025 02:52 21,1 °C 9,5 °C 59 % 70 % 1013,6 hPa 0,0 l/m² 15,6 km/h (3 Bft) SO 126 ° 0 min 0 W/m² 4,3 °C 4,3 °C 22,5 km/h (4 Bft)
04.10.2025 02:53 21,0 °C 9,6 °C 59 % 70 % 1013,6 hPa 0,0 l/m² 16,0 km/h (3 Bft) SO 140 ° 0 min 0 W/m² 4,4 °C 4,2 °C 22,5 km/h (4 Bft)
04.10.2025 02:54 21,0 °C 9,5 °C 59 % 70 % 1013,6 hPa 0,0 l/m² 17,7 km/h (3 Bft) SO 136 ° 0 min 0 W/m² 4,3 °C 3,4 °C 22,5 km/h (4 Bft)
04.10.2025 02:55 21,1 °C 9,6 °C 59 % 70 % 1013,5 hPa 0,0 l/m² 12,3 km/h (2 Bft) SO 128 ° 0 min 0 W/m² 4,4 °C 5,9 °C 17,7 km/h (3 Bft)
04.10.2025 02:56 21,0 °C 9,6 °C 59 % 70 % 1013,5 hPa 0,0 l/m² 10,3 km/h (2 Bft) SO 126 ° 0 min 0 W/m² 4,4 °C 7,0 °C 12,9 km/h (3 Bft)
04.10.2025 02:57 21,0 °C 9,5 °C 59 % 70 % 1013,5 hPa 0,0 l/m² 13,9 km/h (3 Bft) SO 138 ° 0 min 0 W/m² 4,3 °C 5,0 °C 17,7 km/h (3 Bft)
04.10.2025 02:58 21,0 °C 9,5 °C 59 % 70 % 1013,5 hPa 0,0 l/m² 15,4 km/h (3 Bft) S-SO 149 ° 0 min 0 W/m² 4,3 °C 4,4 °C 20,9 km/h (4 Bft)
04.10.2025 02:59 21,1 °C 9,5 °C 59 % 70 % 1013,4 hPa 0,0 l/m² 18,5 km/h (3 Bft) SO 137 ° 0 min 0 W/m² 4,3 °C 3,2 °C 24,1 km/h (4 Bft)
04.10.2025 03:00 21,0 °C 9,5 °C 59 % 70 % 1013,4 hPa 0,0 l/m² 13,7 km/h (3 Bft) SO 128 ° 0 min 0 W/m² 4,3 °C 5,1 °C 19,3 km/h (3 Bft)
04.10.2025 03:01 21,0 °C 9,5 °C 59 % 70 % 1013,3 hPa 0,0 l/m² 14,0 km/h (3 Bft) SO 144 ° 0 min 0 W/m² 4,3 °C 5,0 °C 22,5 km/h (4 Bft)
04.10.2025 03:02 21,1 °C 9,5 °C 59 % 70 % 1013,3 hPa 0,0 l/m² 15,8 km/h (3 Bft) SO 142 ° 0 min 0 W/m² 4,3 °C 4,2 °C 19,3 km/h (3 Bft)
04.10.2025 03:03 21,0 °C 9,5 °C 59 % 70 % 1013,4 hPa 0,0 l/m² 16,9 km/h (3 Bft) SO 127 ° 0 min 0 W/m² 4,3 °C 3,8 °C 19,3 km/h (3 Bft)
04.10.2025 03:04 21,0 °C 9,6 °C 59 % 70 % 1013,4 hPa 0,0 l/m² 15,7 km/h (3 Bft) SO 138 ° 0 min 0 W/m² 4,4 °C 4,4 °C 20,9 km/h (4 Bft)
04.10.2025 03:05 21,1 °C 9,6 °C 59 % 70 % 1013,3 hPa 0,0 l/m² 12,2 km/h (2 Bft) SO 126 ° 0 min 0 W/m² 4,4 °C 6,0 °C 14,5 km/h (3 Bft)
04.10.2025 03:06 21,1 °C 9,5 °C 59 % 70 % 1013,3 hPa 0,0 l/m² 15,2 km/h (3 Bft) O-SO 119 ° 0 min 0 W/m² 4,3 °C 4,4 °C 22,5 km/h (4 Bft)
04.10.2025 03:07 21,0 °C 9,6 °C 59 % 70 % 1013,3 hPa 0,0 l/m² 14,1 km/h (3 Bft) SO 132 ° 0 min 0 W/m² 4,4 °C 5,0 °C 17,7 km/h (3 Bft)
04.10.2025 03:08 21,0 °C 9,6 °C 59 % 70 % 1013,3 hPa 0,0 l/m² 10,9 km/h (2 Bft) SO 131 ° 0 min 0 W/m² 4,4 °C 6,6 °C 17,7 km/h (3 Bft)
04.10.2025 03:09 21,1 °C 9,6 °C 59 % 70 % 1013,3 hPa 0,0 l/m² 8,9 km/h (2 Bft) SO 136 ° 0 min 0 W/m² 4,4 °C 7,8 °C 12,9 km/h (3 Bft)
04.10.2025 03:10 21,0 °C 9,6 °C 59 % 70 % 1013,2 hPa 0,0 l/m² 12,2 km/h (2 Bft) O-SO 112 ° 0 min 0 W/m² 4,4 °C 6,0 °C 16,1 km/h (3 Bft)
04.10.2025 03:11 21,1 °C 9,6 °C 59 % 70 % 1013,3 hPa 0,0 l/m² 9,4 km/h (2 Bft) O-SO 115 ° 0 min 0 W/m² 4,4 °C 7,5 °C 12,9 km/h (3 Bft)
04.10.2025 03:12 21,1 °C 9,5 °C 59 % 70 % 1013,2 hPa 0,0 l/m² 8,3 km/h (2 Bft) SO 130 ° 0 min 0 W/m² 4,3 °C 8,1 °C 11,3 km/h (2 Bft)
04.10.2025 03:13 21,0 °C 9,6 °C 59 % 70 % 1013,1 hPa 0,0 l/m² 11,9 km/h (2 Bft) SO 132 ° 0 min 0 W/m² 4,4 °C 6,1 °C 16,1 km/h (3 Bft)
04.10.2025 03:14 21,1 °C 9,6 °C 59 % 70 % 1013,2 hPa 0,0 l/m² 11,3 km/h (2 Bft) SO 140 ° 0 min 0 W/m² 4,4 °C 6,4 °C 17,7 km/h (3 Bft)
04.10.2025 03:15 21,1 °C 9,6 °C 59 % 70 % 1013,2 hPa 0,0 l/m² 10,6 km/h (2 Bft) O-SO 117 ° 0 min 0 W/m² 4,4 °C 6,8 °C 16,1 km/h (3 Bft)
04.10.2025 03:16 21,1 °C 9,6 °C 59 % 70 % 1013,1 hPa 0,0 l/m² 12,8 km/h (3 Bft) SO 136 ° 0 min 0 W/m² 4,4 °C 5,7 °C 16,1 km/h (3 Bft)
04.10.2025 03:17 21,0 °C 9,6 °C 59 % 70 % 1013,0 hPa 0,0 l/m² 11,3 km/h (2 Bft) SO 126 ° 0 min 0 W/m² 4,4 °C 6,4 °C 14,5 km/h (3 Bft)
04.10.2025 03:18 21,0 °C 9,5 °C 59 % 70 % 1013,0 hPa 0,0 l/m² 8,4 km/h (2 Bft) SO 124 ° 0 min 0 W/m² 4,3 °C 8,1 °C 12,9 km/h (3 Bft)
04.10.2025 03:19 21,0 °C 9,5 °C 59 % 70 % 1013,0 hPa 0,0 l/m² 7,4 km/h (2 Bft) O-SO 117 ° 0 min 0 W/m² 4,3 °C 8,8 °C 11,3 km/h (2 Bft)
04.10.2025 03:20 21,1 °C 9,5 °C 59 % 71 % 1013,0 hPa 0,0 l/m² 9,0 km/h (2 Bft) O-SO 113 ° 0 min 0 W/m² 4,5 °C 7,7 °C 12,9 km/h (3 Bft)
04.10.2025 03:21 21,1 °C 9,5 °C 59 % 71 % 1012,9 hPa 0,0 l/m² 9,9 km/h (2 Bft) SO 138 ° 0 min 0 W/m² 4,5 °C 7,1 °C 12,9 km/h (3 Bft)
04.10.2025 03:22 21,0 °C 9,5 °C 59 % 71 % 1012,8 hPa 0,0 l/m² 9,6 km/h (2 Bft) O-SO 112 ° 0 min 0 W/m² 4,5 °C 7,3 °C 12,9 km/h (3 Bft)
04.10.2025 03:23 21,0 °C 9,4 °C 59 % 71 % 1012,8 hPa 0,0 l/m² 12,4 km/h (2 Bft) O-SO 115 ° 0 min 0 W/m² 4,4 °C 5,6 °C 17,7 km/h (3 Bft)
04.10.2025 03:24 21,1 °C 9,4 °C 59 % 71 % 1012,9 hPa 0,0 l/m² 10,5 km/h (2 Bft) O-SO 106 ° 0 min 0 W/m² 4,4 °C 6,6 °C 14,5 km/h (3 Bft)
04.10.2025 03:25 21,0 °C 9,4 °C 59 % 71 % 1012,8 hPa 0,0 l/m² 11,8 km/h (2 Bft) SO 129 ° 0 min 0 W/m² 4,4 °C 5,9 °C 17,7 km/h (3 Bft)
04.10.2025 03:26 21,1 °C 9,4 °C 59 % 71 % 1012,8 hPa 0,0 l/m² 7,0 km/h (2 Bft) O-SO 113 ° 0 min 0 W/m² 4,4 °C 9,0 °C 12,9 km/h (3 Bft)
04.10.2025 03:27 21,0 °C 9,4 °C 59 % 71 % 1012,7 hPa 0,0 l/m² 12,2 km/h (2 Bft) SO 140 ° 0 min 0 W/m² 4,4 °C 5,7 °C 19,3 km/h (3 Bft)
04.10.2025 03:28 21,1 °C 9,4 °C 59 % 71 % 1012,7 hPa 0,0 l/m² 12,8 km/h (3 Bft) SO 132 ° 0 min 0 W/m² 4,4 °C 5,4 °C 16,1 km/h (3 Bft)
04.10.2025 03:29 21,1 °C 9,4 °C 59 % 71 % 1012,6 hPa 0,0 l/m² 13,9 km/h (3 Bft) O-SO 108 ° 0 min 0 W/m² 4,4 °C 4,9 °C 16,1 km/h (3 Bft)
04.10.2025 03:30 21,1 °C 9,4 °C 59 % 71 % 1012,6 hPa 0,0 l/m² 12,0 km/h (2 Bft) O-SO 106 ° 0 min 0 W/m² 4,4 °C 5,8 °C 14,5 km/h (3 Bft)
04.10.2025 03:31 21,0 °C 9,4 °C 59 % 71 % 1012,5 hPa 0,0 l/m² 12,7 km/h (3 Bft) SO 141 ° 0 min 0 W/m² 4,4 °C 5,5 °C 17,7 km/h (3 Bft)
04.10.2025 03:32 21,0 °C 9,3 °C 59 % 71 % 1012,5 hPa 0,0 l/m² 13,4 km/h (3 Bft) O-SO 117 ° 0 min 0 W/m² 4,3 °C 5,0 °C 24,1 km/h (4 Bft)
04.10.2025 03:33 21,0 °C 9,4 °C 59 % 71 % 1012,5 hPa 0,0 l/m² 14,7 km/h (3 Bft) O-SO 112 ° 0 min 0 W/m² 4,4 °C 4,5 °C 19,3 km/h (3 Bft)
04.10.2025 03:34 21,1 °C 9,4 °C 59 % 71 % 1012,5 hPa 0,0 l/m² 12,9 km/h (3 Bft) O-SO 109 ° 0 min 0 W/m² 4,4 °C 5,4 °C 17,7 km/h (3 Bft)
04.10.2025 03:35 21,1 °C 9,3 °C 59 % 71 % 1012,5 hPa 0,0 l/m² 12,4 km/h (2 Bft) SO 131 ° 0 min 0 W/m² 4,3 °C 5,5 °C 16,1 km/h (3 Bft)
04.10.2025 03:36 21,0 °C 9,3 °C 59 % 71 % 1012,4 hPa 0,0 l/m² 11,4 km/h (2 Bft) O-SO 108 ° 0 min 0 W/m² 4,3 °C 6,0 °C 16,1 km/h (3 Bft)
04.10.2025 03:37 21,1 °C 9,3 °C 59 % 71 % 1012,3 hPa 0,0 l/m² 12,9 km/h (3 Bft) O-SO 111 ° 0 min 0 W/m² 4,3 °C 5,3 °C 17,7 km/h (3 Bft)
04.10.2025 03:38 21,0 °C 9,3 °C 59 % 71 % 1012,2 hPa 0,0 l/m² 15,5 km/h (3 Bft) O-SO 117 ° 0 min 0 W/m² 4,3 °C 4,1 °C 19,3 km/h (3 Bft)
04.10.2025 03:39 21,0 °C 9,3 °C 59 % 71 % 1012,2 hPa 0,0 l/m² 12,9 km/h (3 Bft) SO 130 ° 0 min 0 W/m² 4,3 °C 5,3 °C 19,3 km/h (3 Bft)
04.10.2025 03:40 21,0 °C 9,3 °C 59 % 71 % 1012,2 hPa 0,0 l/m² 12,8 km/h (3 Bft) SO 126 ° 0 min 0 W/m² 4,3 °C 5,3 °C 19,3 km/h (3 Bft)
04.10.2025 03:41 21,0 °C 9,3 °C 59 % 71 % 1012,1 hPa 0,0 l/m² 12,9 km/h (3 Bft) O-SO 112 ° 0 min 0 W/m² 4,3 °C 5,3 °C 17,7 km/h (3 Bft)
04.10.2025 03:42 21,0 °C 9,3 °C 59 % 71 % 1012,1 hPa 0,0 l/m² 12,4 km/h (2 Bft) SO 139 ° 0 min 0 W/m² 4,3 °C 5,5 °C 16,1 km/h (3 Bft)
04.10.2025 03:43 21,1 °C 9,3 °C 59 % 71 % 1012,1 hPa 0,0 l/m² 13,3 km/h (3 Bft) SO 140 ° 0 min 0 W/m² 4,3 °C 5,1 °C 19,3 km/h (3 Bft)
04.10.2025 03:45 21,0 °C 9,3 °C 59 % 71 % 1012,0 hPa 0,0 l/m² 13,3 km/h (3 Bft) SO 138 ° 0 min 0 W/m² 4,3 °C 5,1 °C 19,3 km/h (3 Bft)
04.10.2025 03:46 21,1 °C 9,3 °C 59 % 71 % 1012,0 hPa 0,0 l/m² 13,6 km/h (3 Bft) O-SO 118 ° 0 min 0 W/m² 4,3 °C 4,9 °C 17,7 km/h (3 Bft)
04.10.2025 03:47 21,0 °C 9,3 °C 59 % 71 % 1012,0 hPa 0,0 l/m² 12,9 km/h (3 Bft) SO 131 ° 0 min 0 W/m² 4,3 °C 5,3 °C 20,9 km/h (4 Bft)
04.10.2025 03:48 21,0 °C 9,3 °C 59 % 71 % 1012,0 hPa 0,0 l/m² 12,4 km/h (2 Bft) SO 128 ° 0 min 0 W/m² 4,3 °C 5,5 °C 19,3 km/h (3 Bft)
04.10.2025 03:49 21,0 °C 9,2 °C 59 % 71 % 1011,8 hPa 0,0 l/m² 14,2 km/h (3 Bft) O-SO 109 ° 0 min 0 W/m² 4,2 °C 4,5 °C 17,7 km/h (3 Bft)
04.10.2025 03:50 21,0 °C 9,3 °C 59 % 71 % 1011,8 hPa 0,0 l/m² 14,0 km/h (3 Bft) SO 129 ° 0 min 0 W/m² 4,3 °C 4,7 °C 16,1 km/h (3 Bft)
04.10.2025 03:51 21,0 °C 9,3 °C 59 % 71 % 1011,8 hPa 0,0 l/m² 12,7 km/h (3 Bft) O-SO 113 ° 0 min 0 W/m² 4,3 °C 5,4 °C 14,5 km/h (3 Bft)
04.10.2025 03:52 21,0 °C 9,2 °C 59 % 71 % 1011,8 hPa 0,0 l/m² 13,2 km/h (3 Bft) O-SO 123 ° 0 min 0 W/m² 4,2 °C 5,0 °C 16,1 km/h (3 Bft)
04.10.2025 03:53 21,0 °C 9,2 °C 59 % 71 % 1011,8 hPa 0,0 l/m² 8,6 km/h (2 Bft) SO 130 ° 0 min 0 W/m² 4,2 °C 7,6 °C 12,9 km/h (3 Bft)
04.10.2025 03:54 21,0 °C 9,2 °C 59 % 71 % 1011,8 hPa 0,0 l/m² 10,0 km/h (2 Bft) O-SO 121 ° 0 min 0 W/m² 4,2 °C 6,7 °C 12,9 km/h (3 Bft)
04.10.2025 03:55 21,0 °C 9,2 °C 59 % 71 % 1011,7 hPa 0,0 l/m² 14,3 km/h (3 Bft) O-SO 118 ° 0 min 0 W/m² 4,2 °C 4,5 °C 17,7 km/h (3 Bft)
04.10.2025 03:56 21,0 °C 9,2 °C 59 % 71 % 1011,7 hPa 0,0 l/m² 10,9 km/h (2 Bft) SO 138 ° 0 min 0 W/m² 4,2 °C 6,2 °C 14,5 km/h (3 Bft)
04.10.2025 03:57 21,1 °C 9,2 °C 59 % 71 % 1011,6 hPa 0,0 l/m² 13,7 km/h (3 Bft) SO 134 ° 0 min 0 W/m² 4,2 °C 4,8 °C 16,1 km/h (3 Bft)
04.10.2025 03:58 21,1 °C 9,2 °C 59 % 71 % 1011,6 hPa 0,0 l/m² 10,5 km/h (2 Bft) O-SO 121 ° 0 min 0 W/m² 4,2 °C 6,4 °C 14,5 km/h (3 Bft)
04.10.2025 03:59 21,0 °C 9,2 °C 59 % 71 % 1011,6 hPa 0,0 l/m² 13,1 km/h (3 Bft) SO 130 ° 0 min 0 W/m² 4,2 °C 5,0 °C 17,7 km/h (3 Bft)
04.10.2025 04:00 21,0 °C 9,2 °C 59 % 71 % 1011,5 hPa 0,0 l/m² 9,3 km/h (2 Bft) SO 129 ° 0 min 0 W/m² 4,2 °C 7,1 °C 14,5 km/h (3 Bft)
04.10.2025 04:01 21,0 °C 9,2 °C 59 % 72 % 1011,6 hPa 0,0 l/m² 6,7 km/h (2 Bft) SO 129 ° 0 min 0 W/m² 4,4 °C 9,0 °C 9,7 km/h (2 Bft)
04.10.2025 04:02 21,0 °C 9,2 °C 59 % 72 % 1011,6 hPa 0,0 l/m² 11,7 km/h (2 Bft) O-SO 123 ° 0 min 0 W/m² 4,4 °C 5,8 °C 16,1 km/h (3 Bft)
04.10.2025 04:03 21,0 °C 9,2 °C 59 % 72 % 1011,5 hPa 0,0 l/m² 12,5 km/h (2 Bft) O-SO 123 ° 0 min 0 W/m² 4,4 °C 5,3 °C 14,5 km/h (3 Bft)
04.10.2025 04:04 21,0 °C 9,2 °C 59 % 72 % 1011,5 hPa 0,0 l/m² 12,1 km/h (2 Bft) SO 135 ° 0 min 0 W/m² 4,4 °C 5,5 °C 17,7 km/h (3 Bft)
04.10.2025 04:05 21,0 °C 9,2 °C 59 % 72 % 1011,6 hPa 0,0 l/m² 12,4 km/h (2 Bft) SO 130 ° 0 min 0 W/m² 4,4 °C 5,4 °C 16,1 km/h (3 Bft)
04.10.2025 04:06 21,0 °C 9,1 °C 59 % 72 % 1011,6 hPa 0,0 l/m² 12,2 km/h (2 Bft) SO 132 ° 0 min 0 W/m² 4,3 °C 5,4 °C 17,7 km/h (3 Bft)
04.10.2025 04:07 21,0 °C 9,1 °C 59 % 72 % 1011,4 hPa 0,0 l/m² 12,7 km/h (3 Bft) SO 134 ° 0 min 0 W/m² 4,3 °C 5,1 °C 17,7 km/h (3 Bft)
04.10.2025 04:08 21,0 °C 9,1 °C 59 % 72 % 1011,4 hPa 0,0 l/m² 11,1 km/h (2 Bft) SO 135 ° 0 min 0 W/m² 4,3 °C 6,0 °C 17,7 km/h (3 Bft)
04.10.2025 04:09 21,0 °C 9,1 °C 59 % 72 % 1011,3 hPa 0,0 l/m² 13,3 km/h (3 Bft) O-SO 123 ° 0 min 0 W/m² 4,3 °C 4,8 °C 17,7 km/h (3 Bft)
04.10.2025 04:10 21,0 °C 9,1 °C 59 % 72 % 1011,2 hPa 0,0 l/m² 10,8 km/h (2 Bft) O-SO 115 ° 0 min 0 W/m² 4,3 °C 6,1 °C 14,5 km/h (3 Bft)
04.10.2025 04:11 21,0 °C 9,1 °C 59 % 72 % 1011,2 hPa 0,0 l/m² 14,6 km/h (3 Bft) SO 129 ° 0 min 0 W/m² 4,3 °C 4,2 °C 22,5 km/h (4 Bft)
04.10.2025 04:12 21,0 °C 9,1 °C 59 % 72 % 1011,2 hPa 0,0 l/m² 13,2 km/h (3 Bft) SO 142 ° 0 min 0 W/m² 4,3 °C 4,9 °C 17,7 km/h (3 Bft)
04.10.2025 04:13 21,0 °C 9,1 °C 59 % 72 % 1011,2 hPa 0,0 l/m² 12,7 km/h (3 Bft) O-SO 115 ° 0 min 0 W/m² 4,3 °C 5,1 °C 17,7 km/h (3 Bft)
04.10.2025 04:14 21,0 °C 9,1 °C 59 % 72 % 1011,1 hPa 0,0 l/m² 12,5 km/h (2 Bft) O-SO 119 ° 0 min 0 W/m² 4,3 °C 5,2 °C 14,5 km/h (3 Bft)
04.10.2025 04:15 21,0 °C 9,1 °C 59 % 72 % 1011,2 hPa 0,0 l/m² 10,9 km/h (2 Bft) SO 138 ° 0 min 0 W/m² 4,3 °C 6,1 °C 14,5 km/h (3 Bft)
04.10.2025 04:16 21,0 °C 9,1 °C 59 % 72 % 1011,1 hPa 0,0 l/m² 11,3 km/h (2 Bft) O-SO 120 ° 0 min 0 W/m² 4,3 °C 5,9 °C 14,5 km/h (3 Bft)
04.10.2025 04:17 21,0 °C 9,1 °C 59 % 72 % 1011,1 hPa 0,0 l/m² 9,9 km/h (2 Bft) SO 127 ° 0 min 0 W/m² 4,3 °C 6,7 °C 14,5 km/h (3 Bft)
04.10.2025 04:18 21,0 °C 9,1 °C 59 % 72 % 1011,1 hPa 0,0 l/m² 13,6 km/h (3 Bft) O-SO 114 ° 0 min 0 W/m² 4,3 °C 4,7 °C 19,3 km/h (3 Bft)
04.10.2025 04:19 21,0 °C 9,1 °C 59 % 72 % 1011,1 hPa 0,0 l/m² 12,7 km/h (3 Bft) O-SO 118 ° 0 min 0 W/m² 4,3 °C 5,1 °C 16,1 km/h (3 Bft)
04.10.2025 04:20 21,0 °C 9,1 °C 59 % 72 % 1011,1 hPa 0,0 l/m² 11,6 km/h (2 Bft) SO 130 ° 0 min 0 W/m² 4,3 °C 5,7 °C 17,7 km/h (3 Bft)
04.10.2025 04:21 21,0 °C 9,1 °C 59 % 72 % 1011,1 hPa 0,0 l/m² 12,0 km/h (2 Bft) O-SO 108 ° 0 min 0 W/m² 4,3 °C 5,5 °C 19,3 km/h (3 Bft)
04.10.2025 04:22 21,1 °C 9,1 °C 59 % 72 % 1011,1 hPa 0,0 l/m² 12,2 km/h (2 Bft) O-SO 113 ° 0 min 0 W/m² 4,3 °C 5,4 °C 17,7 km/h (3 Bft)
04.10.2025 04:23 21,0 °C 9,1 °C 59 % 72 % 1011,0 hPa 0,0 l/m² 9,6 km/h (2 Bft) SO 125 ° 0 min 0 W/m² 4,3 °C 6,8 °C 14,5 km/h (3 Bft)
04.10.2025 04:24 21,0 °C 9,1 °C 59 % 72 % 1011,0 hPa 0,0 l/m² 12,6 km/h (3 Bft) O-SO 116 ° 0 min 0 W/m² 4,3 °C 5,2 °C 14,5 km/h (3 Bft)
04.10.2025 04:25 21,0 °C 9,1 °C 59 % 72 % 1011,0 hPa 0,0 l/m² 13,1 km/h (3 Bft) O 94 ° 0 min 0 W/m² 4,3 °C 4,9 °C 16,1 km/h (3 Bft)
04.10.2025 04:26 21,0 °C 9,1 °C 59 % 72 % 1011,0 hPa 0,0 l/m² 12,4 km/h (2 Bft) O-SO 122 ° 0 min 0 W/m² 4,3 °C 5,3 °C 14,5 km/h (3 Bft)
04.10.2025 04:27 21,0 °C 9,1 °C 59 % 72 % 1011,0 hPa 0,0 l/m² 13,1 km/h (3 Bft) O-SO 119 ° 0 min 0 W/m² 4,3 °C 4,9 °C 16,1 km/h (3 Bft)
04.10.2025 04:28 21,0 °C 9,1 °C 59 % 72 % 1010,8 hPa 0,0 l/m² 10,3 km/h (2 Bft) O-SO 121 ° 0 min 0 W/m² 4,3 °C 6,4 °C 12,9 km/h (3 Bft)
04.10.2025 04:29 21,0 °C 9,1 °C 59 % 72 % 1010,8 hPa 0,0 l/m² 10,5 km/h (2 Bft) O-SO 105 ° 0 min 0 W/m² 4,3 °C 6,3 °C 12,9 km/h (3 Bft)
04.10.2025 04:30 21,0 °C 9,1 °C 59 % 72 % 1010,7 hPa 0,0 l/m² 12,2 km/h (2 Bft) O-SO 120 ° 0 min 0 W/m² 4,3 °C 5,4 °C 16,1 km/h (3 Bft)
04.10.2025 04:31 20,9 °C 9,1 °C 59 % 72 % 1010,7 hPa 0,0 l/m² 10,1 km/h (2 Bft) SO 132 ° 0 min 0 W/m² 4,3 °C 6,5 °C 11,3 km/h (2 Bft)
04.10.2025 04:32 21,0 °C 9,1 °C 59 % 72 % 1010,6 hPa 0,0 l/m² 12,0 km/h (2 Bft) SO 132 ° 0 min 0 W/m² 4,3 °C 5,5 °C 16,1 km/h (3 Bft)
04.10.2025 04:33 21,0 °C 9,1 °C 59 % 72 % 1010,6 hPa 0,0 l/m² 9,9 km/h (2 Bft) O-SO 109 ° 0 min 0 W/m² 4,3 °C 6,7 °C 12,9 km/h (3 Bft)
04.10.2025 04:34 21,0 °C 9,0 °C 59 % 72 % 1010,7 hPa 0,0 l/m² 12,6 km/h (3 Bft) O-SO 115 ° 0 min 0 W/m² 4,2 °C 5,1 °C 16,1 km/h (3 Bft)
04.10.2025 04:35 20,9 °C 9,1 °C 59 % 72 % 1010,6 hPa 0,0 l/m² 12,9 km/h (3 Bft) SO 127 ° 0 min 0 W/m² 4,3 °C 5,0 °C 17,7 km/h (3 Bft)
04.10.2025 04:36 21,0 °C 9,1 °C 59 % 72 % 1010,6 hPa 0,0 l/m² 10,9 km/h (2 Bft) SO 125 ° 0 min 0 W/m² 4,3 °C 6,1 °C 14,5 km/h (3 Bft)
04.10.2025 04:37 20,9 °C 9,1 °C 59 % 72 % 1010,5 hPa 0,0 l/m² 11,6 km/h (2 Bft) O-SO 105 ° 0 min 0 W/m² 4,3 °C 5,7 °C 16,1 km/h (3 Bft)
04.10.2025 04:38 21,0 °C 9,1 °C 59 % 72 % 1010,5 hPa 0,0 l/m² 10,8 km/h (2 Bft) SO 129 ° 0 min 0 W/m² 4,3 °C 6,1 °C 12,9 km/h (3 Bft)
04.10.2025 04:39 20,9 °C 9,1 °C 59 % 72 % 1010,5 hPa 0,0 l/m² 13,5 km/h (3 Bft) O-SO 112 ° 0 min 0 W/m² 4,3 °C 4,7 °C 19,3 km/h (3 Bft)
04.10.2025 04:40 20,9 °C 9,1 °C 59 % 72 % 1010,4 hPa 0,0 l/m² 12,3 km/h (2 Bft) O 88 ° 0 min 0 W/m² 4,3 °C 5,3 °C 17,7 km/h (3 Bft)
04.10.2025 04:41 21,0 °C 9,1 °C 59 % 72 % 1010,5 hPa 0,0 l/m² 12,7 km/h (3 Bft) O-SO 119 ° 0 min 0 W/m² 4,3 °C 5,1 °C 14,5 km/h (3 Bft)
04.10.2025 04:42 20,9 °C 9,1 °C 59 % 72 % 1010,4 hPa 0,0 l/m² 11,5 km/h (2 Bft) O-SO 103 ° 0 min 0 W/m² 4,3 °C 5,7 °C 14,5 km/h (3 Bft)
04.10.2025 04:43 20,9 °C 9,1 °C 59 % 72 % 1010,4 hPa 0,0 l/m² 9,3 km/h (2 Bft) O-SO 116 ° 0 min 0 W/m² 4,3 °C 7,0 °C 11,3 km/h (2 Bft)
04.10.2025 04:44 21,0 °C 9,1 °C 59 % 72 % 1010,4 hPa 0,0 l/m² 15,0 km/h (3 Bft) O-SO 123 ° 0 min 0 W/m² 4,3 °C 4,0 °C 17,7 km/h (3 Bft)
04.10.2025 04:45 20,9 °C 9,1 °C 59 % 72 % 1010,3 hPa 0,0 l/m² 11,3 km/h (2 Bft) O-SO 106 ° 0 min 0 W/m² 4,3 °C 5,9 °C 17,7 km/h (3 Bft)
04.10.2025 04:46 20,9 °C 9,1 °C 59 % 72 % 1010,3 hPa 0,0 l/m² 14,1 km/h (3 Bft) O-SO 113 ° 0 min 0 W/m² 4,3 °C 4,4 °C 19,3 km/h (3 Bft)
04.10.2025 04:47 20,9 °C 9,0 °C 59 % 72 % 1010,3 hPa 0,0 l/m² 11,5 km/h (2 Bft) O 90 ° 0 min 0 W/m² 4,2 °C 5,6 °C 14,5 km/h (3 Bft)
04.10.2025 04:48 21,0 °C 9,0 °C 59 % 72 % 1010,1 hPa 0,0 l/m² 12,2 km/h (2 Bft) SO 125 ° 0 min 0 W/m² 4,2 °C 5,3 °C 16,1 km/h (3 Bft)
04.10.2025 04:49 20,9 °C 9,1 °C 59 % 72 % 1010,2 hPa 0,0 l/m² 11,0 km/h (2 Bft) O-SO 113 ° 0 min 0 W/m² 4,3 °C 6,0 °C 14,5 km/h (3 Bft)
04.10.2025 04:50 20,9 °C 9,1 °C 59 % 72 % 1010,2 hPa 0,0 l/m² 13,9 km/h (3 Bft) O-SO 105 ° 0 min 0 W/m² 4,3 °C 4,5 °C 17,7 km/h (3 Bft)
04.10.2025 04:51 21,0 °C 9,1 °C 59 % 72 % 1010,2 hPa 0,0 l/m² 11,5 km/h (2 Bft) O-SO 103 ° 0 min 0 W/m² 4,3 °C 5,7 °C 14,5 km/h (3 Bft)
04.10.2025 04:52 20,9 °C 9,1 °C 59 % 72 % 1010,1 hPa 0,0 l/m² 11,1 km/h (2 Bft) O-SO 123 ° 0 min 0 W/m² 4,3 °C 6,0 °C 16,1 km/h (3 Bft)
04.10.2025 04:53 20,9 °C 9,1 °C 59 % 72 % 1010,1 hPa 0,0 l/m² 10,7 km/h (2 Bft) O-SO 111 ° 0 min 0 W/m² 4,3 °C 6,2 °C 14,5 km/h (3 Bft)
04.10.2025 04:54 20,9 °C 9,1 °C 59 % 72 % 1010,2 hPa 0,0 l/m² 12,3 km/h (2 Bft) SO 136 ° 0 min 0 W/m² 4,3 °C 5,3 °C 16,1 km/h (3 Bft)
04.10.2025 04:55 20,9 °C 9,1 °C 59 % 72 % 1010,2 hPa 0,0 l/m² 12,4 km/h (2 Bft) O-SO 112 ° 0 min 0 W/m² 4,3 °C 5,3 °C 16,1 km/h (3 Bft)
04.10.2025 04:56 20,9 °C 9,0 °C 59 % 72 % 1010,1 hPa 0,0 l/m² 10,7 km/h (2 Bft) O-SO 123 ° 0 min 0 W/m² 4,2 °C 6,1 °C 17,7 km/h (3 Bft)
04.10.2025 04:57 20,9 °C 9,1 °C 59 % 72 % 1010,2 hPa 0,0 l/m² 11,8 km/h (2 Bft) O-SO 103 ° 0 min 0 W/m² 4,3 °C 5,6 °C 17,7 km/h (3 Bft)
04.10.2025 04:58 20,9 °C 9,0 °C 59 % 72 % 1010,1 hPa 0,0 l/m² 12,6 km/h (3 Bft) O-SO 113 ° 0 min 0 W/m² 4,2 °C 5,1 °C 17,7 km/h (3 Bft)
04.10.2025 04:59 20,9 °C 9,0 °C 59 % 72 % 1010,1 hPa 0,0 l/m² 11,7 km/h (2 Bft) SO 138 ° 0 min 0 W/m² 4,2 °C 5,5 °C 16,1 km/h (3 Bft)
04.10.2025 05:00 20,9 °C 9,0 °C 59 % 72 % 1010,0 hPa 0,0 l/m² 11,8 km/h (2 Bft) O-SO 105 ° 0 min 0 W/m² 4,2 °C 5,5 °C 16,1 km/h (3 Bft)
04.10.2025 05:02 20,9 °C 9,1 °C 59 % 72 % 1010,0 hPa 0,0 l/m² 11,2 km/h (2 Bft) SO 126 ° 0 min 0 W/m² 4,3 °C 5,9 °C 16,1 km/h (3 Bft)
04.10.2025 05:03 20,9 °C 9,0 °C 59 % 72 % 1010,0 hPa 0,0 l/m² 8,9 km/h (2 Bft) O 89 ° 0 min 0 W/m² 4,2 °C 7,2 °C 12,9 km/h (3 Bft)
04.10.2025 05:04 20,9 °C 9,1 °C 59 % 72 % 1010,0 hPa 0,0 l/m² 11,7 km/h (2 Bft) O-SO 119 ° 0 min 0 W/m² 4,3 °C 5,6 °C 14,5 km/h (3 Bft)
04.10.2025 05:05 20,9 °C 9,0 °C 59 % 72 % 1009,9 hPa 0,0 l/m² 10,1 km/h (2 Bft) O-SO 112 ° 0 min 0 W/m² 4,2 °C 6,4 °C 14,5 km/h (3 Bft)
04.10.2025 05:06 20,9 °C 9,0 °C 59 % 72 % 1009,9 hPa 0,0 l/m² 11,1 km/h (2 Bft) O-SO 123 ° 0 min 0 W/m² 4,2 °C 5,9 °C 17,7 km/h (3 Bft)
04.10.2025 05:08 20,9 °C 9,0 °C 59 % 72 % 1009,8 hPa 0,0 l/m² 12,9 km/h (3 Bft) SO 127 ° 0 min 0 W/m² 4,2 °C 4,9 °C 17,7 km/h (3 Bft)
04.10.2025 05:09 20,9 °C 9,1 °C 59 % 72 % 1009,8 hPa 0,0 l/m² 7,4 km/h (2 Bft) O-SO 109 ° 0 min 0 W/m² 4,3 °C 8,3 °C 11,3 km/h (2 Bft)
04.10.2025 05:10 20,9 °C 9,1 °C 59 % 72 % 1009,7 hPa 0,0 l/m² 7,8 km/h (2 Bft) SO 134 ° 0 min 0 W/m² 4,3 °C 8,1 °C 12,9 km/h (3 Bft)
04.10.2025 05:11 20,9 °C 9,1 °C 59 % 72 % 1009,7 hPa 0,0 l/m² 10,4 km/h (2 Bft) SO 125 ° 0 min 0 W/m² 4,3 °C 6,4 °C 16,1 km/h (3 Bft)
04.10.2025 05:12 20,9 °C 9,0 °C 59 % 72 % 1009,6 hPa 0,0 l/m² 11,4 km/h (2 Bft) O-SO 119 ° 0 min 0 W/m² 4,2 °C 5,7 °C 17,7 km/h (3 Bft)
04.10.2025 05:13 20,9 °C 9,0 °C 59 % 72 % 1009,6 hPa 0,0 l/m² 11,5 km/h (2 Bft) O-SO 121 ° 0 min 0 W/m² 4,2 °C 5,6 °C 16,1 km/h (3 Bft)
04.10.2025 05:14 20,9 °C 9,1 °C 59 % 72 % 1009,5 hPa 0,0 l/m² 13,5 km/h (3 Bft) O-SO 123 ° 0 min 0 W/m² 4,3 °C 4,7 °C 19,3 km/h (3 Bft)
04.10.2025 05:15 20,9 °C 9,0 °C 59 % 72 % 1009,5 hPa 0,0 l/m² 13,7 km/h (3 Bft) O-SO 107 ° 0 min 0 W/m² 4,2 °C 4,5 °C 17,7 km/h (3 Bft)
04.10.2025 05:16 20,9 °C 9,1 °C 59 % 72 % 1009,4 hPa 0,0 l/m² 15,8 km/h (3 Bft) O-SO 103 ° 0 min 0 W/m² 4,3 °C 3,7 °C 22,5 km/h (4 Bft)
04.10.2025 05:17 20,9 °C 9,0 °C 59 % 72 % 1009,4 hPa 0,0 l/m² 17,2 km/h (3 Bft) S-SO 151 ° 0 min 0 W/m² 4,2 °C 3,0 °C 24,1 km/h (4 Bft)
04.10.2025 05:18 20,9 °C 9,0 °C 59 % 72 % 1009,3 hPa 0,0 l/m² 13,7 km/h (3 Bft) O-SO 117 ° 0 min 0 W/m² 4,2 °C 4,5 °C 17,7 km/h (3 Bft)
04.10.2025 05:19 20,9 °C 9,0 °C 59 % 72 % 1009,3 hPa 0,0 l/m² 13,5 km/h (3 Bft) O-SO 123 ° 0 min 0 W/m² 4,2 °C 4,6 °C 16,1 km/h (3 Bft)
04.10.2025 05:20 20,9 °C 9,0 °C 59 % 72 % 1009,3 hPa 0,0 l/m² 16,2 km/h (3 Bft) O-SO 115 ° 0 min 0 W/m² 4,2 °C 3,4 °C 22,5 km/h (4 Bft)
04.10.2025 05:21 20,9 °C 9,0 °C 59 % 72 % 1009,3 hPa 0,0 l/m² 12,7 km/h (3 Bft) O-SO 121 ° 0 min 0 W/m² 4,2 °C 5,0 °C 14,5 km/h (3 Bft)
04.10.2025 05:22 20,9 °C 9,1 °C 59 % 72 % 1009,3 hPa 0,0 l/m² 14,4 km/h (3 Bft) O 92 ° 0 min 0 W/m² 4,3 °C 4,3 °C 20,9 km/h (4 Bft)
04.10.2025 05:23 20,9 °C 9,0 °C 59 % 72 % 1009,2 hPa 0,0 l/m² 14,6 km/h (3 Bft) O-SO 111 ° 0 min 0 W/m² 4,2 °C 4,1 °C 24,1 km/h (4 Bft)
04.10.2025 05:24 20,9 °C 9,0 °C 59 % 72 % 1009,2 hPa 0,0 l/m² 13,1 km/h (3 Bft) SO 134 ° 0 min 0 W/m² 4,2 °C 4,8 °C 20,9 km/h (4 Bft)
04.10.2025 05:25 20,9 °C 9,0 °C 59 % 72 % 1009,2 hPa 0,0 l/m² 12,5 km/h (2 Bft) O-SO 122 ° 0 min 0 W/m² 4,2 °C 5,1 °C 16,1 km/h (3 Bft)
04.10.2025 05:26 20,9 °C 9,0 °C 59 % 72 % 1009,2 hPa 0,0 l/m² 7,2 km/h (2 Bft) O-SO 117 ° 0 min 0 W/m² 4,2 °C 8,4 °C 12,9 km/h (3 Bft)
04.10.2025 05:27 20,9 °C 9,0 °C 59 % 72 % 1009,1 hPa 0,0 l/m² 14,3 km/h (3 Bft) S-SO 150 ° 0 min 0 W/m² 4,2 °C 4,2 °C 17,7 km/h (3 Bft)
04.10.2025 05:28 20,9 °C 8,9 °C 59 % 72 % 1009,1 hPa 0,0 l/m² 12,1 km/h (2 Bft) O-SO 123 ° 0 min 0 W/m² 4,1 °C 5,2 °C 17,7 km/h (3 Bft)
04.10.2025 05:29 20,9 °C 9,0 °C 59 % 72 % 1009,1 hPa 0,0 l/m² 11,6 km/h (2 Bft) O-SO 113 ° 0 min 0 W/m² 4,2 °C 5,6 °C 14,5 km/h (3 Bft)
04.10.2025 05:30 20,9 °C 8,9 °C 59 % 72 % 1009,1 hPa 0,0 l/m² 10,1 km/h (2 Bft) SO 126 ° 0 min 0 W/m² 4,1 °C 6,3 °C 12,9 km/h (3 Bft)
04.10.2025 05:31 20,9 °C 9,0 °C 59 % 72 % 1009,1 hPa 0,0 l/m² 9,3 km/h (2 Bft) SO 125 ° 0 min 0 W/m² 4,2 °C 6,9 °C 14,5 km/h (3 Bft)
04.10.2025 05:32 20,9 °C 9,0 °C 59 % 72 % 1009,1 hPa 0,0 l/m² 9,2 km/h (2 Bft) O-SO 113 ° 0 min 0 W/m² 4,2 °C 7,0 °C 14,5 km/h (3 Bft)
04.10.2025 05:33 20,9 °C 9,0 °C 59 % 72 % 1009,1 hPa 0,0 l/m² 13,8 km/h (3 Bft) O-SO 110 ° 0 min 0 W/m² 4,2 °C 4,5 °C 20,9 km/h (4 Bft)
04.10.2025 05:34 20,9 °C 9,0 °C 59 % 72 % 1009,0 hPa 0,0 l/m² 8,4 km/h (2 Bft) SO 143 ° 0 min 0 W/m² 4,2 °C 7,5 °C 14,5 km/h (3 Bft)
04.10.2025 05:35 20,9 °C 8,9 °C 59 % 72 % 1009,0 hPa 0,0 l/m² 6,8 km/h (2 Bft) SO 130 ° 0 min 0 W/m² 4,1 °C 8,6 °C 12,9 km/h (3 Bft)
04.10.2025 05:36 20,9 °C 8,9 °C 59 % 72 % 1009,0 hPa 0,0 l/m² 7,4 km/h (2 Bft) SO 125 ° 0 min 0 W/m² 4,1 °C 8,1 °C 11,3 km/h (2 Bft)
04.10.2025 05:37 20,9 °C 9,0 °C 59 % 72 % 1008,9 hPa 0,0 l/m² 13,7 km/h (3 Bft) O-SO 108 ° 0 min 0 W/m² 4,2 °C 4,5 °C 16,1 km/h (3 Bft)
04.10.2025 05:38 20,9 °C 8,9 °C 59 % 72 % 1008,9 hPa 0,0 l/m² 13,2 km/h (3 Bft) O-SO 111 ° 0 min 0 W/m² 4,1 °C 4,6 °C 16,1 km/h (3 Bft)
04.10.2025 05:39 20,9 °C 9,0 °C 59 % 72 % 1008,9 hPa 0,0 l/m² 12,3 km/h (2 Bft) SO 138 ° 0 min 0 W/m² 4,2 °C 5,2 °C 17,7 km/h (3 Bft)
04.10.2025 05:40 20,9 °C 9,0 °C 59 % 72 % 1008,9 hPa 0,0 l/m² 9,5 km/h (2 Bft) O-SO 114 ° 0 min 0 W/m² 4,2 °C 6,8 °C 12,9 km/h (3 Bft)
04.10.2025 05:41 20,9 °C 8,9 °C 59 % 72 % 1008,9 hPa 0,0 l/m² 9,9 km/h (2 Bft) SO 127 ° 0 min 0 W/m² 4,1 °C 6,4 °C 14,5 km/h (3 Bft)
04.10.2025 05:42 20,9 °C 8,9 °C 59 % 72 % 1008,9 hPa 0,0 l/m² 12,3 km/h (2 Bft) SO 129 ° 0 min 0 W/m² 4,1 °C 5,1 °C 16,1 km/h (3 Bft)
04.10.2025 05:43 20,9 °C 9,0 °C 59 % 72 % 1008,8 hPa 0,0 l/m² 10,4 km/h (2 Bft) O-SO 122 ° 0 min 0 W/m² 4,2 °C 6,3 °C 16,1 km/h (3 Bft)
04.10.2025 05:44 20,9 °C 8,9 °C 59 % 72 % 1008,8 hPa 0,0 l/m² 10,8 km/h (2 Bft) SO 126 ° 0 min 0 W/m² 4,1 °C 5,9 °C 14,5 km/h (3 Bft)
04.10.2025 05:45 20,9 °C 9,0 °C 59 % 73 % 1008,7 hPa 0,0 l/m² 9,2 km/h (2 Bft) SO 130 ° 0 min 0 W/m² 4,4 °C 7,0 °C 12,9 km/h (3 Bft)
04.10.2025 05:46 20,9 °C 9,0 °C 59 % 73 % 1008,7 hPa 0,0 l/m² 13,2 km/h (3 Bft) O-SO 105 ° 0 min 0 W/m² 4,4 °C 4,8 °C 19,3 km/h (3 Bft)
04.10.2025 05:47 20,9 °C 8,9 °C 59 % 73 % 1008,7 hPa 0,0 l/m² 13,0 km/h (3 Bft) SO 132 ° 0 min 0 W/m² 4,3 °C 4,7 °C 17,7 km/h (3 Bft)
04.10.2025 05:48 20,9 °C 8,9 °C 59 % 73 % 1008,7 hPa 0,0 l/m² 13,6 km/h (3 Bft) O-SO 115 ° 0 min 0 W/m² 4,3 °C 4,4 °C 17,7 km/h (3 Bft)
04.10.2025 05:49 20,9 °C 8,9 °C 59 % 73 % 1008,6 hPa 0,0 l/m² 13,1 km/h (3 Bft) SO 132 ° 0 min 0 W/m² 4,3 °C 4,7 °C 17,7 km/h (3 Bft)
04.10.2025 05:50 20,9 °C 8,9 °C 59 % 73 % 1008,5 hPa 0,0 l/m² 13,4 km/h (3 Bft) O-SO 122 ° 0 min 0 W/m² 4,3 °C 4,5 °C 17,7 km/h (3 Bft)
04.10.2025 05:51 20,9 °C 8,9 °C 59 % 73 % 1008,5 hPa 0,0 l/m² 11,1 km/h (2 Bft) SO 134 ° 0 min 0 W/m² 4,3 °C 5,7 °C 14,5 km/h (3 Bft)
04.10.2025 05:52 20,9 °C 8,9 °C 59 % 73 % 1008,5 hPa 0,0 l/m² 15,0 km/h (3 Bft) O-SO 117 ° 0 min 0 W/m² 4,3 °C 3,8 °C 22,5 km/h (4 Bft)
04.10.2025 05:53 20,9 °C 8,9 °C 59 % 73 % 1008,4 hPa 0,0 l/m² 13,5 km/h (3 Bft) SO 128 ° 0 min 0 W/m² 4,3 °C 4,5 °C 17,7 km/h (3 Bft)
04.10.2025 05:54 20,9 °C 8,9 °C 59 % 74 % 1008,4 hPa 0,0 l/m² 10,8 km/h (2 Bft) O-SO 109 ° 0 min 0 W/m² 4,5 °C 5,9 °C 16,1 km/h (3 Bft)
04.10.2025 05:55 20,9 °C 8,9 °C 59 % 74 % 1008,4 hPa 0,0 l/m² 14,8 km/h (3 Bft) O 101 ° 0 min 0 W/m² 4,5 °C 3,9 °C 19,3 km/h (3 Bft)
04.10.2025 05:56 20,9 °C 8,8 °C 59 % 74 % 1008,4 hPa 0,0 l/m² 14,2 km/h (3 Bft) O-SO 120 ° 0 min 0 W/m² 4,4 °C 4,0 °C 20,9 km/h (4 Bft)
04.10.2025 05:57 20,9 °C 8,8 °C 59 % 74 % 1008,3 hPa 0,0 l/m² 15,5 km/h (3 Bft) O-SO 114 ° 0 min 0 W/m² 4,4 °C 3,5 °C 19,3 km/h (3 Bft)
04.10.2025 05:58 20,9 °C 8,8 °C 59 % 74 % 1008,1 hPa 0,0 l/m² 15,3 km/h (3 Bft) O-SO 117 ° 0 min 0 W/m² 4,4 °C 3,5 °C 17,7 km/h (3 Bft)
04.10.2025 05:59 20,9 °C 8,8 °C 59 % 74 % 1008,1 hPa 0,0 l/m² 16,3 km/h (3 Bft) SO 130 ° 0 min 0 W/m² 4,4 °C 3,1 °C 24,1 km/h (4 Bft)
04.10.2025 06:00 20,9 °C 8,8 °C 59 % 74 % 1008,1 hPa 0,0 l/m² 13,8 km/h (3 Bft) SO 135 ° 0 min 0 W/m² 4,4 °C 4,2 °C 19,3 km/h (3 Bft)
04.10.2025 06:01 20,9 °C 8,8 °C 59 % 74 % 1008,1 hPa 0,0 l/m² 11,5 km/h (2 Bft) SO 131 ° 0 min 0 W/m² 4,4 °C 5,4 °C 16,1 km/h (3 Bft)
04.10.2025 06:02 20,9 °C 8,8 °C 59 % 75 % 1008,0 hPa 0,0 l/m² 16,2 km/h (3 Bft) O-SO 108 ° 0 min 0 W/m² 4,6 °C 3,2 °C 22,5 km/h (4 Bft)
04.10.2025 06:03 20,9 °C 8,8 °C 59 % 75 % 1008,0 hPa 0,0 l/m² 16,2 km/h (3 Bft) SO 140 ° 0 min 0 W/m² 4,6 °C 3,2 °C 19,3 km/h (3 Bft)
04.10.2025 06:04 20,9 °C 8,8 °C 59 % 75 % 1007,9 hPa 0,0 l/m² 14,3 km/h (3 Bft) SO 134 ° 0 min 0 W/m² 4,6 °C 4,0 °C 17,7 km/h (3 Bft)
04.10.2025 06:05 20,9 °C 8,7 °C 59 % 75 % 1007,9 hPa 0,0 l/m² 14,0 km/h (3 Bft) O-SO 121 ° 0 min 0 W/m² 4,5 °C 4,0 °C 16,1 km/h (3 Bft)
04.10.2025 06:06 20,9 °C 8,7 °C 59 % 75 % 1007,9 hPa 0,0 l/m² 15,9 km/h (3 Bft) SO 127 ° 0 min 0 W/m² 4,5 °C 3,2 °C 20,9 km/h (4 Bft)
04.10.2025 06:07 20,8 °C 8,7 °C 59 % 75 % 1007,9 hPa 0,0 l/m² 14,3 km/h (3 Bft) SO 126 ° 0 min 0 W/m² 4,5 °C 3,9 °C 19,3 km/h (3 Bft)
04.10.2025 06:08 20,9 °C 8,7 °C 59 % 75 % 1007,8 hPa 0,0 l/m² 12,6 km/h (3 Bft) O-SO 115 ° 0 min 0 W/m² 4,5 °C 4,7 °C 17,7 km/h (3 Bft)
04.10.2025 06:09 20,9 °C 8,7 °C 59 % 75 % 1007,7 hPa 0,0 l/m² 13,4 km/h (3 Bft) O-SO 112 ° 0 min 0 W/m² 4,5 °C 4,3 °C 17,7 km/h (3 Bft)
04.10.2025 06:10 20,9 °C 8,7 °C 59 % 75 % 1007,7 hPa 0,0 l/m² 14,4 km/h (3 Bft) O-SO 123 ° 0 min 0 W/m² 4,5 °C 3,8 °C 20,9 km/h (4 Bft)
04.10.2025 06:11 20,9 °C 8,7 °C 59 % 75 % 1007,6 hPa 0,0 l/m² 13,5 km/h (3 Bft) O-SO 121 ° 0 min 0 W/m² 4,5 °C 4,3 °C 16,1 km/h (3 Bft)
04.10.2025 06:12 20,9 °C 8,7 °C 59 % 75 % 1007,7 hPa 0,0 l/m² 11,7 km/h (2 Bft) O-SO 117 ° 0 min 0 W/m² 4,5 °C 5,2 °C 16,1 km/h (3 Bft)
04.10.2025 06:13 20,9 °C 8,6 °C 59 % 76 % 1007,7 hPa 0,0 l/m² 13,2 km/h (3 Bft) SO 124 ° 0 min 0 W/m² 4,6 °C 4,3 °C 17,7 km/h (3 Bft)
04.10.2025 06:14 20,9 °C 8,7 °C 59 % 76 % 1007,6 hPa 0,0 l/m² 13,3 km/h (3 Bft) O-SO 117 ° 0 min 0 W/m² 4,7 °C 4,4 °C 16,1 km/h (3 Bft)
04.10.2025 06:15 20,9 °C 8,6 °C 59 % 76 % 1007,6 hPa 0,0 l/m² 10,3 km/h (2 Bft) O-SO 118 ° 0 min 0 W/m² 4,6 °C 5,9 °C 14,5 km/h (3 Bft)
04.10.2025 06:16 20,9 °C 8,6 °C 59 % 76 % 1007,6 hPa 0,0 l/m² 12,0 km/h (2 Bft) SO 125 ° 0 min 0 W/m² 4,6 °C 4,9 °C 17,7 km/h (3 Bft)
04.10.2025 06:17 20,9 °C 8,6 °C 59 % 76 % 1007,5 hPa 0,0 l/m² 13,5 km/h (3 Bft) O-SO 114 ° 0 min 0 W/m² 4,6 °C 4,1 °C 19,3 km/h (3 Bft)
04.10.2025 06:18 20,8 °C 8,6 °C 59 % 76 % 1007,6 hPa 0,0 l/m² 13,0 km/h (3 Bft) O-SO 112 ° 0 min 0 W/m² 4,6 °C 4,4 °C 16,1 km/h (3 Bft)
04.10.2025 06:19 20,9 °C 8,6 °C 59 % 76 % 1007,5 hPa 0,0 l/m² 10,0 km/h (2 Bft) O-SO 117 ° 0 min 0 W/m² 4,6 °C 6,0 °C 16,1 km/h (3 Bft)
04.10.2025 06:20 20,9 °C 8,6 °C 59 % 76 % 1007,5 hPa 0,0 l/m² 11,8 km/h (2 Bft) O-SO 116 ° 0 min 0 W/m² 4,6 °C 5,0 °C 14,5 km/h (3 Bft)
04.10.2025 06:21 20,9 °C 8,6 °C 59 % 76 % 1007,6 hPa 0,0 l/m² 9,0 km/h (2 Bft) O-SO 109 ° 0 min 0 W/m² 4,6 °C 6,7 °C 12,9 km/h (3 Bft)
04.10.2025 06:22 20,8 °C 8,6 °C 59 % 76 % 1007,5 hPa 0,0 l/m² 12,1 km/h (2 Bft) SO 124 ° 0 min 0 W/m² 4,6 °C 4,8 °C 16,1 km/h (3 Bft)
04.10.2025 06:23 20,8 °C 8,6 °C 59 % 76 % 1007,5 hPa 0,0 l/m² 12,5 km/h (2 Bft) O-SO 106 ° 0 min 0 W/m² 4,6 °C 4,6 °C 16,1 km/h (3 Bft)
04.10.2025 06:24 20,8 °C 8,6 °C 59 % 76 % 1007,3 hPa 0,0 l/m² 13,1 km/h (3 Bft) O-SO 123 ° 0 min 0 W/m² 4,6 °C 4,3 °C 16,1 km/h (3 Bft)
04.10.2025 06:25 20,9 °C 8,6 °C 59 % 76 % 1007,3 hPa 0,0 l/m² 10,6 km/h (2 Bft) SO 136 ° 0 min 0 W/m² 4,6 °C 5,7 °C 12,9 km/h (3 Bft)
04.10.2025 06:26 20,8 °C 8,6 °C 59 % 76 % 1007,2 hPa 0,0 l/m² 12,6 km/h (3 Bft) SO 128 ° 0 min 0 W/m² 4,6 °C 4,6 °C 20,9 km/h (4 Bft)
04.10.2025 06:27 20,9 °C 8,6 °C 59 % 76 % 1007,2 hPa 0,0 l/m² 9,6 km/h (2 Bft) SO 130 ° 0 min 0 W/m² 4,6 °C 6,3 °C 14,5 km/h (3 Bft)
04.10.2025 06:28 20,8 °C 8,6 °C 59 % 76 % 1007,2 hPa 0,0 l/m² 11,3 km/h (2 Bft) O-SO 117 ° 0 min 0 W/m² 4,6 °C 5,3 °C 14,5 km/h (3 Bft)
04.10.2025 06:29 20,8 °C 8,6 °C 59 % 76 % 1007,1 hPa 0,0 l/m² 10,9 km/h (2 Bft) SO 134 ° 0 min 0 W/m² 4,6 °C 5,5 °C 14,5 km/h (3 Bft)
04.10.2025 06:30 20,8 °C 8,6 °C 59 % 76 % 1007,1 hPa 0,0 l/m² 10,6 km/h (2 Bft) SO 146 ° 0 min 0 W/m² 4,6 °C 5,7 °C 14,5 km/h (3 Bft)
04.10.2025 06:31 20,8 °C 8,6 °C 59 % 76 % 1007,0 hPa 0,0 l/m² 9,7 km/h (2 Bft) SO 130 ° 0 min 0 W/m² 4,6 °C 6,2 °C 16,1 km/h (3 Bft)
04.10.2025 06:32 20,8 °C 8,6 °C 59 % 76 % 1007,1 hPa 0,0 l/m² 12,2 km/h (2 Bft) SO 130 ° 0 min 0 W/m² 4,6 °C 4,8 °C 16,1 km/h (3 Bft)
04.10.2025 06:33 20,8 °C 8,6 °C 59 % 76 % 1007,1 hPa 0,0 l/m² 12,3 km/h (2 Bft) SO 132 ° 0 min 0 W/m² 4,6 °C 4,7 °C 16,1 km/h (3 Bft)
04.10.2025 06:34 20,8 °C 8,6 °C 59 % 76 % 1007,0 hPa 0,0 l/m² 10,4 km/h (2 Bft) O-SO 116 ° 0 min 0 W/m² 4,6 °C 5,8 °C 12,9 km/h (3 Bft)
04.10.2025 06:35 20,8 °C 8,6 °C 59 % 76 % 1007,0 hPa 0,0 l/m² 11,5 km/h (2 Bft) O-SO 123 ° 0 min 0 W/m² 4,6 °C 5,2 °C 16,1 km/h (3 Bft)
04.10.2025 06:36 20,8 °C 8,6 °C 59 % 76 % 1007,0 hPa 0,0 l/m² 12,0 km/h (2 Bft) O-SO 119 ° 0 min 0 W/m² 4,6 °C 4,9 °C 14,5 km/h (3 Bft)
04.10.2025 06:37 20,8 °C 8,6 °C 59 % 76 % 1007,0 hPa 0,0 l/m² 10,6 km/h (2 Bft) SO 146 ° 0 min 0 W/m² 4,6 °C 5,7 °C 16,1 km/h (3 Bft)
04.10.2025 06:38 20,8 °C 8,6 °C 59 % 76 % 1007,0 hPa 0,0 l/m² 9,1 km/h (2 Bft) SO 130 ° 0 min 0 W/m² 4,6 °C 6,6 °C 12,9 km/h (3 Bft)
04.10.2025 06:39 20,8 °C 8,6 °C 59 % 76 % 1007,1 hPa 0,0 l/m² 7,8 km/h (2 Bft) SO 129 ° 0 min 0 W/m² 4,6 °C 7,5 °C 14,5 km/h (3 Bft)
04.10.2025 06:40 20,8 °C 8,6 °C 59 % 76 % 1007,0 hPa 0,0 l/m² 9,3 km/h (2 Bft) O-SO 107 ° 0 min 0 W/m² 4,6 °C 6,5 °C 12,9 km/h (3 Bft)
04.10.2025 06:42 20,8 °C 8,7 °C 59 % 76 % 1006,9 hPa 0,0 l/m² 9,6 km/h (2 Bft) O-SO 114 ° 0 min 0 W/m² 4,7 °C 6,4 °C 16,1 km/h (3 Bft)
04.10.2025 06:43 20,8 °C 8,7 °C 59 % 76 % 1006,9 hPa 0,0 l/m² 11,2 km/h (2 Bft) O-SO 113 ° 0 min 0 W/m² 4,7 °C 5,5 °C 14,5 km/h (3 Bft)
04.10.2025 06:45 20,8 °C 8,7 °C 59 % 76 % 1006,8 hPa 0,0 l/m² 10,3 km/h (2 Bft) SO 126 ° 0 min 0 W/m² 4,7 °C 6,0 °C 16,1 km/h (3 Bft)
04.10.2025 06:46 20,8 °C 8,7 °C 59 % 76 % 1006,8 hPa 0,0 l/m² 7,6 km/h (2 Bft) SO 130 ° 0 min 0 W/m² 4,7 °C 7,8 °C 12,9 km/h (3 Bft)
04.10.2025 06:47 20,8 °C 8,7 °C 59 % 76 % 1006,7 hPa 0,0 l/m² 9,7 km/h (2 Bft) SO 135 ° 0 min 0 W/m² 4,7 °C 6,3 °C 14,5 km/h (3 Bft)
04.10.2025 06:48 20,8 °C 8,8 °C 59 % 76 % 1006,7 hPa 0,0 l/m² 8,2 km/h (2 Bft) O-SO 111 ° 0 min 0 W/m² 4,8 °C 7,5 °C 12,9 km/h (3 Bft)
04.10.2025 06:49 20,8 °C 8,8 °C 59 % 76 % 1006,7 hPa 0,0 l/m² 10,3 km/h (2 Bft) O-SO 119 ° 0 min 0 W/m² 4,8 °C 6,1 °C 12,9 km/h (3 Bft)
04.10.2025 06:50 20,8 °C 8,8 °C 59 % 76 % 1006,6 hPa 0,0 l/m² 9,1 km/h (2 Bft) SO 133 ° 0 min 0 W/m² 4,8 °C 6,8 °C 12,9 km/h (3 Bft)
04.10.2025 06:51 20,8 °C 8,8 °C 59 % 76 % 1006,6 hPa 0,0 l/m² 7,8 km/h (2 Bft) O-SO 105 ° 0 min 0 W/m² 4,8 °C 7,7 °C 11,3 km/h (2 Bft)
04.10.2025 06:52 20,8 °C 8,8 °C 59 % 76 % 1006,7 hPa 0,0 l/m² 8,4 km/h (2 Bft) O 101 ° 0 min 0 W/m² 4,8 °C 7,3 °C 11,3 km/h (2 Bft)
04.10.2025 06:53 20,8 °C 8,8 °C 59 % 76 % 1006,6 hPa 0,0 l/m² 9,7 km/h (2 Bft) O-SO 113 ° 0 min 0 W/m² 4,8 °C 6,5 °C 12,9 km/h (3 Bft)
04.10.2025 06:54 20,8 °C 8,8 °C 59 % 76 % 1006,6 hPa 0,0 l/m² 10,7 km/h (2 Bft) O-SO 117 ° 0 min 0 W/m² 4,8 °C 5,9 °C 16,1 km/h (3 Bft)
04.10.2025 06:55 20,8 °C 8,9 °C 59 % 76 % 1006,4 hPa 0,0 l/m² 8,0 km/h (2 Bft) O-SO 122 ° 0 min 0 W/m² 4,9 °C 7,7 °C 12,9 km/h (3 Bft)
04.10.2025 06:56 20,8 °C 8,9 °C 59 % 76 % 1006,5 hPa 0,0 l/m² 7,4 km/h (2 Bft) O-SO 122 ° 0 min 0 W/m² 4,9 °C 8,1 °C 11,3 km/h (2 Bft)
04.10.2025 06:57 20,8 °C 8,9 °C 59 % 75 % 1006,5 hPa 0,0 l/m² 11,0 km/h (2 Bft) SO 128 ° 0 min 0 W/m² 4,7 °C 5,8 °C 14,5 km/h (3 Bft)
04.10.2025 06:58 20,8 °C 8,9 °C 59 % 75 % 1006,4 hPa 0,0 l/m² 13,1 km/h (3 Bft) SO 128 ° 0 min 0 W/m² 4,7 °C 4,7 °C 16,1 km/h (3 Bft)
04.10.2025 06:59 20,8 °C 8,9 °C 59 % 75 % 1006,2 hPa 0,0 l/m² 10,1 km/h (2 Bft) O-SO 111 ° 0 min 0 W/m² 4,7 °C 6,3 °C 14,5 km/h (3 Bft)
04.10.2025 07:00 20,8 °C 8,9 °C 59 % 75 % 1006,2 hPa 0,0 l/m² 11,6 km/h (2 Bft) O-SO 113 ° 0 min 0 W/m² 4,7 °C 5,5 °C 16,1 km/h (3 Bft)
04.10.2025 07:02 20,8 °C 9,0 °C 59 % 75 % 1006,2 hPa 0,0 l/m² 11,9 km/h (2 Bft) SO 145 ° 0 min 0 W/m² 4,8 °C 5,4 °C 17,7 km/h (3 Bft)
04.10.2025 07:03 20,8 °C 9,0 °C 59 % 75 % 1006,0 hPa 0,0 l/m² 10,9 km/h (2 Bft) SO 126 ° 0 min 0 W/m² 4,8 °C 6,0 °C 19,3 km/h (3 Bft)
04.10.2025 07:04 20,8 °C 9,1 °C 59 % 75 % 1005,9 hPa 0,0 l/m² 13,0 km/h (3 Bft) SO 125 ° 0 min 0 W/m² 4,9 °C 5,0 °C 14,5 km/h (3 Bft)
04.10.2025 07:05 20,8 °C 9,1 °C 59 % 75 % 1005,9 hPa 0,0 l/m² 9,5 km/h (2 Bft) SO 125 ° 0 min 0 W/m² 4,9 °C 6,9 °C 14,5 km/h (3 Bft)
04.10.2025 07:06 20,8 °C 9,1 °C 59 % 75 % 1005,9 hPa 0,0 l/m² 12,9 km/h (3 Bft) SO 141 ° 0 min 0 W/m² 4,9 °C 5,0 °C 17,7 km/h (3 Bft)
04.10.2025 07:08 20,8 °C 9,1 °C 59 % 75 % 1005,9 hPa 0,0 l/m² 13,7 km/h (3 Bft) O-SO 115 ° 0 min 0 W/m² 4,9 °C 4,6 °C 19,3 km/h (3 Bft)
04.10.2025 07:09 20,8 °C 9,2 °C 59 % 75 % 1005,8 hPa 0,0 l/m² 13,8 km/h (3 Bft) SO 138 ° 0 min 0 W/m² 5,0 °C 4,7 °C 17,7 km/h (3 Bft)
04.10.2025 07:10 20,8 °C 9,2 °C 59 % 75 % 1005,8 hPa 0,0 l/m² 13,1 km/h (3 Bft) SO 136 ° 0 min 0 W/m² 5,0 °C 5,0 °C 17,7 km/h (3 Bft)
04.10.2025 07:11 20,8 °C 9,2 °C 59 % 75 % 1005,8 hPa 0,0 l/m² 12,9 km/h (3 Bft) SO 135 ° 0 min 0 W/m² 5,0 °C 5,1 °C 19,3 km/h (3 Bft)
04.10.2025 07:12 20,8 °C 9,2 °C 59 % 74 % 1005,8 hPa 0,0 l/m² 12,9 km/h (3 Bft) SO 135 ° 0 min 0 W/m² 4,8 °C 5,1 °C 17,7 km/h (3 Bft)
04.10.2025 07:18 20,8 °C 9,5 °C 59 % 74 % 1005,4 hPa 0,0 l/m² 16,0 km/h (3 Bft) SO 144 ° 0 min 0 W/m² 5,1 °C 4,1 °C 24,1 km/h (4 Bft)
04.10.2025 07:20 20,8 °C 9,6 °C 59 % 73 % 1005,5 hPa 0,0 l/m² 15,5 km/h (3 Bft) S-SO 159 ° 0 min 0 W/m² 5,0 °C 4,4 °C 22,5 km/h (4 Bft)
04.10.2025 07:22 20,8 °C 9,7 °C 59 % 73 % 1005,4 hPa 0,0 l/m² 18,2 km/h (3 Bft) SO 138 ° 0 min 0 W/m² 5,1 °C 3,5 °C 29,0 km/h (5 Bft)
04.10.2025 07:24 20,8 °C 9,8 °C 59 % 73 % 1005,4 hPa 0,0 l/m² 20,4 km/h (4 Bft) S 176 ° 0 min 0 W/m² 5,2 °C 2,9 °C 29,0 km/h (5 Bft)
04.10.2025 07:26 20,8 °C 9,9 °C 59 % 71 % 1005,4 hPa 0,0 l/m² 22,2 km/h (4 Bft) S-SO 153 ° 0 min 0 W/m² 4,9 °C 2,5 °C 30,6 km/h (5 Bft)
04.10.2025 07:27 20,8 °C 10,0 °C 59 % 71 % 1005,4 hPa 0,0 l/m² 18,4 km/h (3 Bft) SO 135 ° 0 min 0 W/m² 5,0 °C 3,8 °C 27,4 km/h (5 Bft)
04.10.2025 07:28 20,8 °C 10,1 °C 59 % 71 % 1005,4 hPa 0,0 l/m² 19,5 km/h (3 Bft) S-SO 159 ° 0 min 0 W/m² 5,1 °C 3,6 °C 25,7 km/h (4 Bft)
04.10.2025 07:30 20,8 °C 10,2 °C 59 % 70 % 1005,4 hPa 0,0 l/m² 21,3 km/h (4 Bft) S-SO 150 ° 0 min 0 W/m² 5,0 °C 3,1 °C 29,0 km/h (5 Bft)
04.10.2025 07:31 20,8 °C 10,2 °C 59 % 70 % 1005,3 hPa 0,0 l/m² 16,6 km/h (3 Bft) S-SO 159 ° 0 min 0 W/m² 5,0 °C 4,7 °C 20,9 km/h (4 Bft)
04.10.2025 07:32 20,8 °C 10,2 °C 59 % 70 % 1005,2 hPa 0,0 l/m² 20,2 km/h (4 Bft) S-SO 160 ° 0 min 0 W/m² 5,0 °C 3,5 °C 27,4 km/h (5 Bft)
04.10.2025 07:35 20,8 °C 10,3 °C 59 % 70 % 1005,3 hPa 0,0 l/m² 16,4 km/h (3 Bft) S-SO 156 ° 0 min 0 W/m² 5,1 °C 4,9 °C 24,1 km/h (4 Bft)
04.10.2025 07:37 20,8 °C 10,3 °C 59 % 70 % 1005,2 hPa 0,0 l/m² 17,2 km/h (3 Bft) S-SO 156 ° 0 min 0 W/m² 5,1 °C 4,6 °C 32,2 km/h (5 Bft)
04.10.2025 07:39 20,8 °C 10,4 °C 59 % 70 % 1005,1 hPa 0,0 l/m² 18,1 km/h (3 Bft) SO 142 ° 0 min 0 W/m² 5,2 °C 4,4 °C 25,7 km/h (4 Bft)
04.10.2025 07:40 20,8 °C 10,4 °C 59 % 70 % 1005,2 hPa 0,0 l/m² 16,0 km/h (3 Bft) SO 144 ° 0 min 5 W/m² 5,2 °C 5,2 °C 19,3 km/h (3 Bft)
04.10.2025 07:41 20,8 °C 10,4 °C 59 % 70 % 1005,2 hPa 0,0 l/m² 13,4 km/h (3 Bft) S-SO 157 ° 0 min 5 W/m² 5,2 °C 6,3 °C 19,3 km/h (3 Bft)
04.10.2025 07:42 20,8 °C 10,4 °C 59 % 70 % 1005,2 hPa 0,0 l/m² 14,4 km/h (3 Bft) S-SO 158 ° 0 min 5 W/m² 5,2 °C 5,9 °C 19,3 km/h (3 Bft)
04.10.2025 07:45 20,8 °C 10,4 °C 59 % 69 % 1005,2 hPa 0,0 l/m² 15,1 km/h (3 Bft) S-SO 161 ° 0 min 5 W/m² 5,0 °C 5,6 °C 25,7 km/h (4 Bft)
04.10.2025 07:47 20,8 °C 10,4 °C 59 % 69 % 1005,2 hPa 0,0 l/m² 18,3 km/h (3 Bft) S-SO 155 ° 0 min 7 W/m² 5,0 °C 4,4 °C 25,7 km/h (4 Bft)
04.10.2025 07:48 20,7 °C 10,4 °C 59 % 69 % 1005,1 hPa 0,0 l/m² 18,3 km/h (3 Bft) S-SO 166 ° 0 min 7 W/m² 5,0 °C 4,4 °C 25,7 km/h (4 Bft)
04.10.2025 07:49 20,8 °C 10,4 °C 59 % 69 % 1005,1 hPa 0,0 l/m² 18,3 km/h (3 Bft) S-SO 167 ° 0 min 7 W/m² 5,0 °C 4,4 °C 24,1 km/h (4 Bft)
04.10.2025 07:51 20,8 °C 10,4 °C 59 % 69 % 1005,0 hPa 0,0 l/m² 16,1 km/h (3 Bft) SO 143 ° 0 min 7 W/m² 5,0 °C 5,2 °C 25,7 km/h (4 Bft)
04.10.2025 07:53 20,8 °C 10,4 °C 59 % 69 % 1004,9 hPa 0,0 l/m² 18,2 km/h (3 Bft) SO 135 ° 0 min 7 W/m² 5,0 °C 4,4 °C 27,4 km/h (5 Bft)
04.10.2025 07:55 20,8 °C 10,5 °C 59 % 69 % 1004,7 hPa 0,0 l/m² 18,4 km/h (3 Bft) SO 134 ° 0 min 7 W/m² 5,1 °C 4,5 °C 25,7 km/h (4 Bft)
04.10.2025 07:57 20,8 °C 10,5 °C 58 % 69 % 1004,7 hPa 0,0 l/m² 18,9 km/h (3 Bft) SO 132 ° 0 min 9 W/m² 5,1 °C 4,3 °C 32,2 km/h (5 Bft)
04.10.2025 07:59 20,8 °C 10,5 °C 59 % 70 % 1004,7 hPa 0,0 l/m² 17,3 km/h (3 Bft) S 173 ° 0 min 11 W/m² 5,3 °C 4,9 °C 27,4 km/h (5 Bft)
04.10.2025 08:00 20,8 °C 10,5 °C 59 % 70 % 1004,6 hPa 0,0 l/m² 20,1 km/h (4 Bft) SO 144 ° 0 min 11 W/m² 5,3 °C 3,9 °C 25,7 km/h (4 Bft)
04.10.2025 08:01 20,8 °C 10,5 °C 58 % 70 % 1004,6 hPa 0,0 l/m² 19,2 km/h (3 Bft) S-SO 160 ° 0 min 11 W/m² 5,3 °C 4,2 °C 25,7 km/h (4 Bft)
04.10.2025 08:02 20,8 °C 10,5 °C 58 % 70 % 1004,6 hPa 0,0 l/m² 19,5 km/h (3 Bft) S-SO 157 ° 0 min 11 W/m² 5,3 °C 4,1 °C 25,7 km/h (4 Bft)
04.10.2025 08:05 20,8 °C 10,4 °C 59 % 70 % 1004,5 hPa 0,0 l/m² 19,5 km/h (3 Bft) S-SO 153 ° 0 min 11 W/m² 5,2 °C 4,0 °C 30,6 km/h (5 Bft)
04.10.2025 08:07 20,8 °C 10,4 °C 59 % 71 % 1004,6 hPa 0,0 l/m² 17,8 km/h (3 Bft) S 170 ° 0 min 11 W/m² 5,4 °C 4,5 °C 30,6 km/h (5 Bft)
04.10.2025 08:09 20,7 °C 10,4 °C 58 % 72 % 1004,4 hPa 0,0 l/m² 18,5 km/h (3 Bft) S-SO 157 ° 0 min 11 W/m² 5,6 °C 4,3 °C 25,7 km/h (4 Bft)
04.10.2025 08:10 20,7 °C 10,4 °C 58 % 72 % 1004,3 hPa 0,0 l/m² 20,6 km/h (4 Bft) S-SO 155 ° 0 min 11 W/m² 5,6 °C 3,6 °C 25,7 km/h (4 Bft)
04.10.2025 08:11 20,7 °C 10,3 °C 58 % 72 % 1004,3 hPa 0,0 l/m² 15,8 km/h (3 Bft) SO 141 ° 0 min 12 W/m² 5,5 °C 5,2 °C 19,3 km/h (3 Bft)
04.10.2025 08:12 20,7 °C 10,3 °C 58 % 73 % 1004,3 hPa 0,0 l/m² 18,5 km/h (3 Bft) O-SO 123 ° 0 min 12 W/m² 5,7 °C 4,2 °C 22,5 km/h (4 Bft)
04.10.2025 08:15 20,7 °C 10,2 °C 58 % 73 % 1004,2 hPa 0,0 l/m² 20,2 km/h (4 Bft) S 170 ° 0 min 12 W/m² 5,6 °C 3,5 °C 29,0 km/h (5 Bft)
04.10.2025 08:17 20,7 °C 10,2 °C 58 % 74 % 1004,2 hPa 0,2 l/m² 19,5 km/h (3 Bft) S-SO 150 ° 0 min 14 W/m² 5,8 °C 3,7 °C 25,7 km/h (4 Bft)
04.10.2025 08:19 20,7 °C 10,1 °C 58 % 75 % 1003,9 hPa 0,0 l/m² 20,1 km/h (4 Bft) SO 142 ° 0 min 12 W/m² 5,9 °C 3,4 °C 32,2 km/h (5 Bft)
04.10.2025 08:20 20,7 °C 10,0 °C 58 % 75 % 1003,8 hPa 0,2 l/m² 21,5 km/h (4 Bft) SO 146 ° 0 min 14 W/m² 5,8 °C 2,8 °C 30,6 km/h (5 Bft)
04.10.2025 08:21 20,7 °C 9,9 °C 58 % 75 % 1003,9 hPa 0,0 l/m² 21,4 km/h (4 Bft) S-SO 159 ° 0 min 14 W/m² 5,7 °C 2,7 °C 32,2 km/h (5 Bft)
04.10.2025 08:22 20,7 °C 9,9 °C 58 % 75 % 1003,8 hPa 0,0 l/m² 19,5 km/h (3 Bft) S-SO 151 ° 0 min 14 W/m² 5,7 °C 3,3 °C 30,6 km/h (5 Bft)
04.10.2025 08:25 20,7 °C 9,8 °C 58 % 77 % 1003,8 hPa 0,0 l/m² 19,0 km/h (3 Bft) S-SO 162 ° 0 min 14 W/m² 6,0 °C 3,4 °C 27,4 km/h (5 Bft)
04.10.2025 08:27 20,7 °C 9,8 °C 58 % 77 % 1003,8 hPa 0,0 l/m² 19,7 km/h (3 Bft) SO 134 ° 0 min 14 W/m² 6,0 °C 3,1 °C 25,7 km/h (4 Bft)
04.10.2025 08:29 20,7 °C 9,7 °C 58 % 77 % 1003,7 hPa 0,0 l/m² 22,2 km/h (4 Bft) S-SO 147 ° 0 min 16 W/m² 5,9 °C 2,2 °C 32,2 km/h (5 Bft)
04.10.2025 08:30 20,7 °C 9,6 °C 58 % 78 % 1003,7 hPa 0,2 l/m² 24,6 km/h (4 Bft) S-SO 148 ° 0 min 16 W/m² 6,0 °C 1,4 °C 30,6 km/h (5 Bft)
04.10.2025 08:31 20,7 °C 9,6 °C 58 % 78 % 1003,6 hPa 0,0 l/m² 18,8 km/h (3 Bft) S-SO 148 ° 0 min 16 W/m² 6,0 °C 3,2 °C 25,7 km/h (4 Bft)
04.10.2025 08:32 20,7 °C 9,6 °C 58 % 78 % 1003,6 hPa 0,0 l/m² 21,5 km/h (4 Bft) SO 141 ° 0 min 16 W/m² 6,0 °C 2,3 °C 25,7 km/h (4 Bft)
04.10.2025 08:35 20,7 °C 9,4 °C 58 % 79 % 1003,5 hPa 0,0 l/m² 21,4 km/h (4 Bft) SO 130 ° 0 min 14 W/m² 5,9 °C 2,1 °C 30,6 km/h (5 Bft)
04.10.2025 08:37 20,7 °C 9,4 °C 58 % 79 % 1003,5 hPa 0,2 l/m² 21,9 km/h (4 Bft) S-SO 151 ° 0 min 14 W/m² 5,9 °C 1,9 °C 33,8 km/h (5 Bft)
04.10.2025 08:39 20,7 °C 9,3 °C 58 % 79 % 1003,6 hPa 0,0 l/m² 20,6 km/h (4 Bft) S-SO 162 ° 0 min 16 W/m² 5,8 °C 2,2 °C 32,2 km/h (5 Bft)
04.10.2025 08:40 20,7 °C 9,3 °C 58 % 80 % 1003,7 hPa 0,0 l/m² 20,8 km/h (4 Bft) SO 145 ° 0 min 16 W/m² 6,0 °C 2,1 °C 27,4 km/h (5 Bft)
04.10.2025 08:41 20,7 °C 9,3 °C 58 % 80 % 1003,6 hPa 0,0 l/m² 17,2 km/h (3 Bft) SO 127 ° 0 min 16 W/m² 6,0 °C 3,4 °C 22,5 km/h (4 Bft)
04.10.2025 08:42 20,7 °C 9,3 °C 58 % 80 % 1003,6 hPa 0,0 l/m² 17,5 km/h (3 Bft) SO 144 ° 0 min 16 W/m² 6,0 °C 3,3 °C 22,5 km/h (4 Bft)
04.10.2025 08:45 20,7 °C 9,2 °C 58 % 80 % 1003,4 hPa 0,0 l/m² 18,6 km/h (3 Bft) SO 144 ° 0 min 18 W/m² 5,9 °C 2,7 °C 25,7 km/h (4 Bft)
04.10.2025 08:47 20,7 °C 9,2 °C 58 % 81 % 1003,3 hPa 0,0 l/m² 19,2 km/h (3 Bft) SO 136 ° 0 min 18 W/m² 6,1 °C 2,5 °C 24,1 km/h (4 Bft)
04.10.2025 08:49 20,7 °C 9,2 °C 58 % 81 % 1003,3 hPa 0,2 l/m² 18,6 km/h (3 Bft) SO 143 ° 0 min 18 W/m² 6,1 °C 2,7 °C 29,0 km/h (5 Bft)
04.10.2025 08:50 20,7 °C 9,1 °C 58 % 81 % 1003,1 hPa 0,0 l/m² 14,7 km/h (3 Bft) S-SO 150 ° 0 min 18 W/m² 6,0 °C 4,2 °C 19,3 km/h (3 Bft)
04.10.2025 08:51 20,7 °C 9,1 °C 58 % 81 % 1003,1 hPa 0,0 l/m² 15,4 km/h (3 Bft) SO 135 ° 0 min 18 W/m² 6,0 °C 3,9 °C 24,1 km/h (4 Bft)
04.10.2025 08:52 20,7 °C 9,1 °C 58 % 81 % 1003,1 hPa 0,0 l/m² 19,4 km/h (3 Bft) SO 129 ° 0 min 18 W/m² 6,0 °C 2,3 °C 24,1 km/h (4 Bft)
04.10.2025 08:55 20,7 °C 9,1 °C 58 % 81 % 1003,3 hPa 0,0 l/m² 17,0 km/h (3 Bft) SO 140 ° 0 min 19 W/m² 6,0 °C 3,2 °C 25,7 km/h (4 Bft)
04.10.2025 08:57 20,7 °C 9,0 °C 58 % 81 % 1003,1 hPa 0,0 l/m² 18,3 km/h (3 Bft) SO 140 ° 0 min 19 W/m² 5,9 °C 2,6 °C 24,1 km/h (4 Bft)
04.10.2025 08:59 20,8 °C 9,0 °C 58 % 81 % 1003,1 hPa 0,0 l/m² 19,5 km/h (3 Bft) SO 143 ° 0 min 19 W/m² 5,9 °C 2,2 °C 27,4 km/h (5 Bft)
04.10.2025 09:00 20,7 °C 8,9 °C 58 % 81 % 1003,0 hPa 0,0 l/m² 18,0 km/h (3 Bft) SO 132 ° 0 min 19 W/m² 5,8 °C 2,6 °C 27,4 km/h (5 Bft)
04.10.2025 09:01 20,7 °C 8,9 °C 58 % 81 % 1003,0 hPa 0,0 l/m² 22,2 km/h (4 Bft) S-SO 165 ° 0 min 18 W/m² 5,8 °C 1,2 °C 32,2 km/h (5 Bft)
04.10.2025 09:02 20,7 °C 9,0 °C 58 % 82 % 1003,0 hPa 0,0 l/m² 17,9 km/h (3 Bft) SO 134 ° 0 min 18 W/m² 6,1 °C 2,7 °C 24,1 km/h (4 Bft)
04.10.2025 09:03 20,8 °C 8,9 °C 58 % 82 % 1003,0 hPa 0,0 l/m² 19,6 km/h (3 Bft) SO 132 ° 0 min 18 W/m² 6,0 °C 2,0 °C 27,4 km/h (5 Bft)
04.10.2025 09:04 20,8 °C 8,9 °C 58 % 82 % 1003,0 hPa 0,0 l/m² 16,9 km/h (3 Bft) SO 140 ° 0 min 18 W/m² 6,0 °C 3,0 °C 24,1 km/h (4 Bft)
04.10.2025 09:05 20,8 °C 8,9 °C 58 % 82 % 1003,1 hPa 0,0 l/m² 15,8 km/h (3 Bft) S-SO 151 ° 0 min 18 W/m² 6,0 °C 3,5 °C 19,3 km/h (3 Bft)
04.10.2025 09:06 20,8 °C 8,9 °C 58 % 82 % 1003,0 hPa 0,0 l/m² 17,0 km/h (3 Bft) SO 132 ° 0 min 18 W/m² 6,0 °C 3,0 °C 22,5 km/h (4 Bft)
04.10.2025 09:08 20,7 °C 9,0 °C 58 % 82 % 1002,8 hPa 0,2 l/m² 16,1 km/h (3 Bft) S 171 ° 0 min 19 W/m² 6,1 °C 3,5 °C 25,7 km/h (4 Bft)
04.10.2025 09:09 20,7 °C 8,9 °C 58 % 82 % 1002,8 hPa 0,0 l/m² 16,7 km/h (3 Bft) SO 127 ° 0 min 19 W/m² 6,0 °C 3,1 °C 20,9 km/h (4 Bft)
04.10.2025 09:11 20,8 °C 9,0 °C 58 % 82 % 1002,8 hPa 0,0 l/m² 13,6 km/h (3 Bft) SO 127 ° 0 min 19 W/m² 6,1 °C 4,6 °C 20,9 km/h (4 Bft)
04.10.2025 09:12 20,8 °C 9,0 °C 58 % 82 % 1002,8 hPa 0,0 l/m² 15,7 km/h (3 Bft) SO 135 ° 0 min 21 W/m² 6,1 °C 3,6 °C 19,3 km/h (3 Bft)
04.10.2025 09:13 20,8 °C 8,9 °C 58 % 82 % 1002,8 hPa 0,0 l/m² 13,3 km/h (3 Bft) S-SO 153 ° 0 min 23 W/m² 6,0 °C 4,6 °C 20,9 km/h (4 Bft)
04.10.2025 09:14 20,8 °C 8,9 °C 58 % 82 % 1002,7 hPa 0,0 l/m² 18,7 km/h (3 Bft) SO 138 ° 0 min 25 W/m² 6,0 °C 2,3 °C 25,7 km/h (4 Bft)
04.10.2025 09:15 20,8 °C 9,0 °C 58 % 82 % 1002,7 hPa 0,0 l/m² 16,1 km/h (3 Bft) SO 135 ° 0 min 25 W/m² 6,1 °C 3,5 °C 19,3 km/h (3 Bft)
04.10.2025 09:16 20,8 °C 9,0 °C 58 % 82 % 1002,9 hPa 0,0 l/m² 19,3 km/h (3 Bft) SO 135 ° 0 min 26 W/m² 6,1 °C 2,2 °C 25,7 km/h (4 Bft)
04.10.2025 09:22 20,8 °C 9,1 °C 58 % 83 % 1002,5 hPa 0,0 l/m² 16,6 km/h (3 Bft) SO 126 ° 0 min 25 W/m² 6,4 °C 3,4 °C 20,9 km/h (4 Bft)
04.10.2025 09:24 20,8 °C 9,1 °C 58 % 83 % 1002,4 hPa 0,0 l/m² 19,3 km/h (3 Bft) O-SO 118 ° 0 min 26 W/m² 6,4 °C 2,4 °C 27,4 km/h (5 Bft)
04.10.2025 09:26 20,8 °C 9,1 °C 58 % 83 % 1002,4 hPa 0,0 l/m² 17,7 km/h (3 Bft) O-SO 122 ° 0 min 26 W/m² 6,4 °C 2,9 °C 27,4 km/h (5 Bft)
04.10.2025 09:28 20,8 °C 9,1 °C 58 % 83 % 1002,3 hPa 0,0 l/m² 14,5 km/h (3 Bft) SO 134 ° 0 min 25 W/m² 6,4 °C 4,3 °C 19,3 km/h (3 Bft)
04.10.2025 09:30 20,8 °C 9,1 °C 58 % 83 % 1002,1 hPa 0,0 l/m² 14,5 km/h (3 Bft) SO 139 ° 0 min 21 W/m² 6,4 °C 4,3 °C 22,5 km/h (4 Bft)
04.10.2025 09:31 20,8 °C 9,1 °C 58 % 83 % 1002,0 hPa 0,0 l/m² 17,3 km/h (3 Bft) O-SO 121 ° 0 min 25 W/m² 6,4 °C 3,1 °C 20,9 km/h (4 Bft)
04.10.2025 09:32 20,8 °C 9,2 °C 58 % 83 % 1002,0 hPa 0,0 l/m² 15,4 km/h (3 Bft) S-SO 153 ° 0 min 25 W/m² 6,5 °C 4,0 °C 19,3 km/h (3 Bft)
04.10.2025 09:35 20,8 °C 9,2 °C 58 % 84 % 1001,8 hPa 0,0 l/m² 15,1 km/h (3 Bft) SO 136 ° 0 min 30 W/m² 6,6 °C 4,1 °C 19,3 km/h (3 Bft)
04.10.2025 09:37 20,8 °C 9,2 °C 58 % 84 % 1001,7 hPa 0,0 l/m² 13,4 km/h (3 Bft) SO 142 ° 0 min 35 W/m² 6,6 °C 4,9 °C 19,3 km/h (3 Bft)
04.10.2025 09:39 20,8 °C 9,2 °C 58 % 84 % 1001,8 hPa 0,0 l/m² 12,3 km/h (2 Bft) SO 133 ° 0 min 35 W/m² 6,6 °C 5,4 °C 19,3 km/h (3 Bft)
04.10.2025 09:40 20,8 °C 9,2 °C 58 % 84 % 1001,7 hPa 0,0 l/m² 19,2 km/h (3 Bft) SO 130 ° 0 min 32 W/m² 6,6 °C 2,5 °C 29,0 km/h (5 Bft)
04.10.2025 09:41 20,8 °C 9,2 °C 58 % 84 % 1001,6 hPa 0,0 l/m² 11,4 km/h (2 Bft) O-SO 119 ° 0 min 28 W/m² 6,6 °C 5,9 °C 14,5 km/h (3 Bft)
04.10.2025 09:42 20,8 °C 9,2 °C 58 % 84 % 1001,6 hPa 0,0 l/m² 12,9 km/h (3 Bft) SO 130 ° 0 min 26 W/m² 6,6 °C 5,1 °C 19,3 km/h (3 Bft)
04.10.2025 09:44 20,8 °C 9,2 °C 58 % 84 % 1001,5 hPa 0,0 l/m² 15,3 km/h (3 Bft) SO 125 ° 0 min 25 W/m² 6,6 °C 4,0 °C 24,1 km/h (4 Bft)
04.10.2025 09:45 20,8 °C 9,3 °C 58 % 84 % 1001,5 hPa 0,0 l/m² 9,7 km/h (2 Bft) SO 142 ° 0 min 25 W/m² 6,7 °C 7,0 °C 19,3 km/h (3 Bft)
04.10.2025 09:46 20,8 °C 9,3 °C 58 % 84 % 1001,5 hPa 0,0 l/m² 13,2 km/h (3 Bft) SO 144 ° 0 min 25 W/m² 6,7 °C 5,1 °C 19,3 km/h (3 Bft)
04.10.2025 09:48 20,8 °C 9,3 °C 58 % 85 % 1001,4 hPa 0,0 l/m² 12,9 km/h (3 Bft) SO 132 ° 0 min 28 W/m² 6,9 °C 5,3 °C 20,9 km/h (4 Bft)
04.10.2025 09:50 20,8 °C 9,3 °C 58 % 85 % 1001,5 hPa 0,0 l/m² 13,3 km/h (3 Bft) S-SO 156 ° 0 min 30 W/m² 6,9 °C 5,1 °C 17,7 km/h (3 Bft)
04.10.2025 09:51 20,8 °C 9,3 °C 58 % 85 % 1001,4 hPa 0,0 l/m² 15,2 km/h (3 Bft) SO 137 ° 0 min 30 W/m² 6,9 °C 4,2 °C 20,9 km/h (4 Bft)
04.10.2025 09:52 20,8 °C 9,4 °C 58 % 85 % 1001,4 hPa 0,0 l/m² 14,2 km/h (3 Bft) S-SO 157 ° 0 min 30 W/m² 7,0 °C 4,8 °C 19,3 km/h (3 Bft)
04.10.2025 09:54 20,8 °C 9,4 °C 58 % 85 % 1001,5 hPa 0,0 l/m² 10,6 km/h (2 Bft) S-SO 158 ° 0 min 30 W/m² 7,0 °C 6,6 °C 22,5 km/h (4 Bft)
04.10.2025 09:55 20,8 °C 9,4 °C 58 % 85 % 1001,4 hPa 0,0 l/m² 12,1 km/h (2 Bft) S-SO 152 ° 0 min 30 W/m² 7,0 °C 5,8 °C 19,3 km/h (3 Bft)
04.10.2025 09:57 20,8 °C 9,5 °C 58 % 85 % 1001,4 hPa 0,0 l/m² 14,0 km/h (3 Bft) S-SO 159 ° 0 min 26 W/m² 7,1 °C 5,0 °C 20,9 km/h (4 Bft)
04.10.2025 09:59 20,8 °C 9,6 °C 58 % 85 % 1001,3 hPa 0,0 l/m² 15,5 km/h (3 Bft) SO 139 ° 0 min 28 W/m² 7,2 °C 4,4 °C 22,5 km/h (4 Bft)
04.10.2025 10:00 20,8 °C 9,7 °C 58 % 85 % 1001,3 hPa 0,0 l/m² 12,0 km/h (2 Bft) S-SO 161 ° 0 min 30 W/m² 7,3 °C 6,2 °C 16,1 km/h (3 Bft)
04.10.2025 10:01 20,8 °C 9,7 °C 58 % 85 % 1001,3 hPa 0,0 l/m² 14,9 km/h (3 Bft) S-SO 161 ° 0 min 30 W/m² 7,3 °C 4,8 °C 25,7 km/h (4 Bft)
04.10.2025 10:02 20,8 °C 9,8 °C 58 % 85 % 1001,3 hPa 0,0 l/m² 19,5 km/h (3 Bft) SO 144 ° 0 min 33 W/m² 7,4 °C 3,2 °C 27,4 km/h (5 Bft)
04.10.2025 10:04 20,8 °C 9,8 °C 58 % 85 % 1001,0 hPa 0,0 l/m² 19,4 km/h (3 Bft) S-SO 165 ° 0 min 39 W/m² 7,4 °C 3,2 °C 29,0 km/h (5 Bft)
04.10.2025 10:05 20,8 °C 9,9 °C 58 % 85 % 1001,0 hPa 0,0 l/m² 22,5 km/h (4 Bft) S-SO 166 ° 0 min 40 W/m² 7,5 °C 2,4 °C 30,6 km/h (5 Bft)
04.10.2025 10:07 20,8 °C 10,1 °C 58 % 85 % 1000,9 hPa 0,0 l/m² 18,5 km/h (3 Bft) S 182 ° 0 min 44 W/m² 7,7 °C 3,9 °C 27,4 km/h (5 Bft)
04.10.2025 10:09 20,8 °C 10,2 °C 58 % 85 % 1000,8 hPa 0,0 l/m² 20,7 km/h (4 Bft) SO 145 ° 0 min 46 W/m² 7,8 °C 3,3 °C 33,8 km/h (5 Bft)
04.10.2025 10:10 20,8 °C 10,3 °C 58 % 85 % 1000,7 hPa 0,0 l/m² 21,2 km/h (4 Bft) S-SO 157 ° 0 min 47 W/m² 7,9 °C 3,3 °C 30,6 km/h (5 Bft)
04.10.2025 10:11 20,8 °C 10,3 °C 58 % 84 % 1000,7 hPa 0,0 l/m² 21,3 km/h (4 Bft) S-SO 156 ° 0 min 40 W/m² 7,7 °C 3,3 °C 27,4 km/h (5 Bft)
04.10.2025 10:12 20,8 °C 10,3 °C 58 % 84 % 1000,7 hPa 0,0 l/m² 19,4 km/h (3 Bft) S 171 ° 0 min 39 W/m² 7,7 °C 3,9 °C 24,1 km/h (4 Bft)
04.10.2025 10:14 20,8 °C 10,4 °C 58 % 84 % 1000,5 hPa 0,0 l/m² 21,8 km/h (4 Bft) S-SO 151 ° 0 min 42 W/m² 7,8 °C 3,3 °C 32,2 km/h (5 Bft)
04.10.2025 10:15 20,8 °C 10,6 °C 58 % 84 % 1000,5 hPa 0,0 l/m² 23,6 km/h (4 Bft) S-SO 155 ° 0 min 44 W/m² 8,0 °C 3,0 °C 33,8 km/h (5 Bft)
04.10.2025 10:17 20,8 °C 10,6 °C 58 % 84 % 1000,5 hPa 0,0 l/m² 19,4 km/h (3 Bft) SO 140 ° 0 min 42 W/m² 8,0 °C 4,3 °C 30,6 km/h (5 Bft)
04.10.2025 10:19 20,8 °C 10,7 °C 58 % 83 % 1000,4 hPa 0,0 l/m² 23,7 km/h (4 Bft) S 184 ° 0 min 47 W/m² 7,9 °C 3,1 °C 35,4 km/h (5 Bft)
04.10.2025 10:20 20,8 °C 10,7 °C 58 % 83 % 1000,3 hPa 0,0 l/m² 24,7 km/h (4 Bft) S-SO 153 ° 0 min 49 W/m² 7,9 °C 2,9 °C 37,0 km/h (5 Bft)
04.10.2025 10:21 20,8 °C 10,8 °C 58 % 83 % 1000,4 hPa 0,0 l/m² 21,4 km/h (4 Bft) S-SO 162 ° 0 min 51 W/m² 8,0 °C 3,9 °C 27,4 km/h (5 Bft)
04.10.2025 10:22 20,8 °C 10,8 °C 58 % 83 % 1000,4 hPa 0,0 l/m² 21,5 km/h (4 Bft) S 183 ° 0 min 47 W/m² 8,0 °C 3,9 °C 27,4 km/h (5 Bft)
04.10.2025 10:24 20,8 °C 10,9 °C 58 % 83 % 1000,3 hPa 0,0 l/m² 23,7 km/h (4 Bft) S 172 ° 0 min 44 W/m² 8,1 °C 3,4 °C 33,8 km/h (5 Bft)
04.10.2025 10:25 20,8 °C 10,9 °C 58 % 82 % 1000,3 hPa 0,0 l/m² 21,9 km/h (4 Bft) S 176 ° 0 min 40 W/m² 7,9 °C 3,9 °C 27,4 km/h (5 Bft)
04.10.2025 10:27 20,8 °C 11,0 °C 58 % 82 % 1000,3 hPa 0,0 l/m² 21,1 km/h (4 Bft) S-SO 148 ° 0 min 35 W/m² 8,0 °C 4,2 °C 32,2 km/h (5 Bft)
04.10.2025 10:29 20,8 °C 11,1 °C 58 % 82 % 1000,4 hPa 0,0 l/m² 21,3 km/h (4 Bft) S-SO 165 ° 0 min 39 W/m² 8,1 °C 4,3 °C 33,8 km/h (5 Bft)
04.10.2025 10:30 20,8 °C 11,1 °C 58 % 82 % 1000,1 hPa 0,0 l/m² 20,3 km/h (4 Bft) S-SO 150 ° 0 min 40 W/m² 8,1 °C 4,6 °C 27,4 km/h (5 Bft)
04.10.2025 10:31 20,8 °C 11,1 °C 58 % 82 % 1000,2 hPa 0,0 l/m² 22,9 km/h (4 Bft) S-SO 165 ° 0 min 40 W/m² 8,1 °C 3,9 °C 30,6 km/h (5 Bft)
04.10.2025 10:32 20,8 °C 11,2 °C 58 % 82 % 1000,2 hPa 0,0 l/m² 18,8 km/h (3 Bft) S 174 ° 0 min 39 W/m² 8,2 °C 5,2 °C 24,1 km/h (4 Bft)
04.10.2025 10:34 20,8 °C 11,2 °C 58 % 81 % 1000,2 hPa 0,0 l/m² 19,4 km/h (3 Bft) S-SO 168 ° 0 min 35 W/m² 8,1 °C 5,0 °C 29,0 km/h (5 Bft)
04.10.2025 10:35 20,8 °C 11,2 °C 58 % 81 % 1000,2 hPa 0,0 l/m² 16,6 km/h (3 Bft) SO 133 ° 0 min 30 W/m² 8,1 °C 6,0 °C 22,5 km/h (4 Bft)
04.10.2025 10:37 20,8 °C 11,2 °C 58 % 81 % 1000,2 hPa 0,0 l/m² 18,0 km/h (3 Bft) S-SO 153 ° 0 min 28 W/m² 8,1 °C 5,5 °C 27,4 km/h (5 Bft)
04.10.2025 10:39 20,8 °C 11,3 °C 58 % 81 % 1000,1 hPa 0,0 l/m² 19,6 km/h (3 Bft) SO 130 ° 0 min 30 W/m² 8,2 °C 5,1 °C 27,4 km/h (5 Bft)
04.10.2025 10:40 20,8 °C 11,3 °C 58 % 81 % 1000,1 hPa 0,0 l/m² 13,8 km/h (3 Bft) SO 144 ° 0 min 33 W/m² 8,2 °C 7,2 °C 17,7 km/h (3 Bft)
04.10.2025 10:41 20,8 °C 11,3 °C 58 % 81 % 1000,1 hPa 0,0 l/m² 17,0 km/h (3 Bft) S-SO 154 ° 0 min 35 W/m² 8,2 °C 6,0 °C 22,5 km/h (4 Bft)
04.10.2025 10:42 20,8 °C 11,3 °C 58 % 81 % 1000,1 hPa 0,0 l/m² 21,2 km/h (4 Bft) S 170 ° 0 min 35 W/m² 8,2 °C 4,6 °C 29,0 km/h (5 Bft)
04.10.2025 10:44 20,8 °C 11,4 °C 58 % 81 % 1000,0 hPa 0,0 l/m² 18,5 km/h (3 Bft) S-SO 155 ° 0 min 39 W/m² 8,3 °C 5,6 °C 27,4 km/h (5 Bft)
04.10.2025 10:45 20,8 °C 11,4 °C 58 % 81 % 1000,0 hPa 0,0 l/m² 23,2 km/h (4 Bft) S-SO 156 ° 0 min 39 W/m² 8,3 °C 4,2 °C 33,8 km/h (5 Bft)
04.10.2025 10:47 20,8 °C 11,4 °C 58 % 81 % 1000,0 hPa 0,0 l/m² 17,2 km/h (3 Bft) SO 138 ° 0 min 33 W/m² 8,3 °C 6,0 °C 24,1 km/h (4 Bft)
04.10.2025 10:49 20,8 °C 11,4 °C 58 % 81 % 999,9 hPa 0,0 l/m² 17,5 km/h (3 Bft) S-SO 148 ° 0 min 33 W/m² 8,3 °C 5,9 °C 24,1 km/h (4 Bft)
04.10.2025 10:50 20,8 °C 11,4 °C 58 % 81 % 999,8 hPa 0,0 l/m² 15,8 km/h (3 Bft) S-SO 162 ° 0 min 33 W/m² 8,3 °C 6,5 °C 25,7 km/h (4 Bft)
04.10.2025 10:51 20,8 °C 11,5 °C 58 % 81 % 999,9 hPa 0,0 l/m² 21,6 km/h (4 Bft) SO 144 ° 0 min 35 W/m² 8,4 °C 4,8 °C 29,0 km/h (5 Bft)
04.10.2025 10:52 20,8 °C 11,5 °C 58 % 81 % 999,9 hPa 0,0 l/m² 18,3 km/h (3 Bft) SO 140 ° 0 min 35 W/m² 8,4 °C 5,8 °C 29,0 km/h (5 Bft)
04.10.2025 10:54 20,8 °C 11,5 °C 58 % 81 % 999,8 hPa 0,0 l/m² 18,1 km/h (3 Bft) SO 140 ° 0 min 35 W/m² 8,4 °C 5,8 °C 27,4 km/h (5 Bft)
04.10.2025 10:55 20,8 °C 11,5 °C 58 % 81 % 999,8 hPa 0,0 l/m² 15,3 km/h (3 Bft) S 169 ° 0 min 35 W/m² 8,4 °C 6,8 °C 19,3 km/h (3 Bft)
04.10.2025 10:57 20,8 °C 11,6 °C 58 % 81 % 999,8 hPa 0,0 l/m² 18,0 km/h (3 Bft) S 169 ° 0 min 37 W/m² 8,5 °C 6,0 °C 25,7 km/h (4 Bft)
04.10.2025 10:59 20,8 °C 11,6 °C 58 % 81 % 999,6 hPa 0,0 l/m² 18,9 km/h (3 Bft) S-SO 148 ° 0 min 37 W/m² 8,5 °C 5,7 °C 30,6 km/h (5 Bft)
04.10.2025 11:00 20,8 °C 11,6 °C 58 % 81 % 999,8 hPa 0,0 l/m² 14,3 km/h (3 Bft) S 180 ° 0 min 39 W/m² 8,5 °C 7,4 °C 20,9 km/h (4 Bft)
04.10.2025 11:01 20,8 °C 11,7 °C 58 % 81 % 999,8 hPa 0,0 l/m² 12,9 km/h (3 Bft) S 183 ° 0 min 37 W/m² 8,5 °C 8,1 °C 17,7 km/h (3 Bft)
04.10.2025 11:02 20,8 °C 11,7 °C 58 % 81 % 999,8 hPa 0,0 l/m² 19,8 km/h (3 Bft) S-SO 165 ° 0 min 37 W/m² 8,5 °C 5,5 °C 32,2 km/h (5 Bft)
04.10.2025 11:03 20,8 °C 11,7 °C 58 % 81 % 999,7 hPa 0,0 l/m² 19,2 km/h (3 Bft) S-SO 159 ° 0 min 37 W/m² 8,5 °C 5,7 °C 25,7 km/h (4 Bft)
04.10.2025 11:04 20,8 °C 11,7 °C 58 % 81 % 999,7 hPa 0,0 l/m² 18,9 km/h (3 Bft) S-SO 148 ° 0 min 35 W/m² 8,5 °C 5,8 °C 22,5 km/h (4 Bft)
04.10.2025 11:06 20,8 °C 11,8 °C 58 % 81 % 999,6 hPa 0,0 l/m² 20,8 km/h (4 Bft) S-SO 165 ° 0 min 35 W/m² 8,6 °C 5,4 °C 30,6 km/h (5 Bft)
04.10.2025 11:07 20,8 °C 11,9 °C 58 % 81 % 999,6 hPa 0,0 l/m² 18,4 km/h (3 Bft) S-SO 151 ° 0 min 35 W/m² 8,7 °C 6,2 °C 25,7 km/h (4 Bft)
04.10.2025 11:08 20,8 °C 11,8 °C 58 % 81 % 999,6 hPa 0,0 l/m² 20,6 km/h (4 Bft) S-SO 153 ° 0 min 35 W/m² 8,6 °C 5,4 °C 27,4 km/h (5 Bft)
04.10.2025 11:09 20,8 °C 11,9 °C 58 % 81 % 999,6 hPa 0,0 l/m² 13,1 km/h (3 Bft) S-SO 157 ° 0 min 37 W/m² 8,7 °C 8,2 °C 17,7 km/h (3 Bft)
04.10.2025 11:11 20,8 °C 11,9 °C 58 % 81 % 999,6 hPa 0,0 l/m² 18,4 km/h (3 Bft) S 190 ° 0 min 46 W/m² 8,7 °C 6,2 °C 25,7 km/h (4 Bft)
04.10.2025 11:12 20,8 °C 12,0 °C 58 % 81 % 999,5 hPa 0,0 l/m² 18,8 km/h (3 Bft) S 171 ° 0 min 49 W/m² 8,8 °C 6,2 °C 25,7 km/h (4 Bft)
04.10.2025 11:13 20,8 °C 12,0 °C 58 % 81 % 999,5 hPa 0,0 l/m² 17,1 km/h (3 Bft) SO 143 ° 0 min 49 W/m² 8,8 °C 6,8 °C 22,5 km/h (4 Bft)
04.10.2025 11:14 20,8 °C 12,1 °C 58 % 81 % 999,5 hPa 0,0 l/m² 21,5 km/h (4 Bft) S 186 ° 0 min 49 W/m² 8,9 °C 5,6 °C 32,2 km/h (5 Bft)
04.10.2025 11:16 20,8 °C 12,1 °C 58 % 81 % 999,5 hPa 0,0 l/m² 18,0 km/h (3 Bft) S 180 ° 0 min 49 W/m² 8,9 °C 6,6 °C 32,2 km/h (5 Bft)
04.10.2025 11:17 20,8 °C 12,2 °C 58 % 81 % 999,5 hPa 0,0 l/m² 16,4 km/h (3 Bft) S-SO 157 ° 0 min 49 W/m² 9,0 °C 7,3 °C 19,3 km/h (3 Bft)
04.10.2025 11:19 20,8 °C 12,2 °C 58 % 81 % 999,5 hPa 0,0 l/m² 13,9 km/h (3 Bft) S 180 ° 0 min 51 W/m² 9,0 °C 8,2 °C 20,9 km/h (4 Bft)
04.10.2025 11:20 20,8 °C 12,2 °C 58 % 81 % 999,5 hPa 0,0 l/m² 9,0 km/h (2 Bft) SO 134 ° 1 min 53 W/m² 9,0 °C 10,6 °C 14,5 km/h (3 Bft)
04.10.2025 11:21 20,8 °C 12,2 °C 58 % 81 % 999,5 hPa 0,0 l/m² 15,6 km/h (3 Bft) S-SO 149 ° 1 min 58 W/m² 9,0 °C 7,6 °C 20,9 km/h (4 Bft)
04.10.2025 11:22 20,8 °C 12,2 °C 58 % 81 % 999,4 hPa 0,0 l/m² 20,9 km/h (4 Bft) S 171 ° 1 min 63 W/m² 9,0 °C 5,9 °C 30,6 km/h (5 Bft)
04.10.2025 11:24 20,8 °C 12,3 °C 58 % 81 % 999,4 hPa 0,0 l/m² 20,8 km/h (4 Bft) S-SO 157 ° 2 min 70 W/m² 9,1 °C 6,0 °C 30,6 km/h (5 Bft)
04.10.2025 11:25 20,8 °C 12,3 °C 58 % 81 % 999,4 hPa 0,0 l/m² 15,7 km/h (3 Bft) S 183 ° 1 min 74 W/m² 9,1 °C 7,7 °C 22,5 km/h (4 Bft)
04.10.2025 11:27 20,8 °C 12,4 °C 58 % 81 % 999,2 hPa 0,0 l/m² 16,6 km/h (3 Bft) S-SO 167 ° 2 min 90 W/m² 9,2 °C 7,5 °C 27,4 km/h (5 Bft)
04.10.2025 11:28 20,8 °C 12,4 °C 58 % 81 % 999,1 hPa 0,0 l/m² 18,9 km/h (3 Bft) S 179 ° 1 min 91 W/m² 9,2 °C 6,7 °C 27,4 km/h (5 Bft)
04.10.2025 11:30 20,8 °C 12,5 °C 58 % 81 % 999,0 hPa 0,0 l/m² 20,7 km/h (4 Bft) S 171 ° 2 min 97 W/m² 9,3 °C 6,3 °C 35,4 km/h (5 Bft)
04.10.2025 11:31 20,8 °C 12,6 °C 58 % 81 % 999,0 hPa 0,0 l/m² 16,5 km/h (3 Bft) S-SO 164 ° 1 min 100 W/m² 9,4 °C 7,7 °C 29,0 km/h (5 Bft)
04.10.2025 11:32 20,8 °C 12,6 °C 58 % 81 % 999,0 hPa 0,0 l/m² 19,6 km/h (3 Bft) S-SO 165 ° 1 min 102 W/m² 9,4 °C 6,8 °C 32,2 km/h (5 Bft)
04.10.2025 11:33 20,8 °C 12,6 °C 58 % 81 % 999,0 hPa 0,0 l/m² 21,0 km/h (4 Bft) S 169 ° 1 min 102 W/m² 9,4 °C 6,4 °C 25,7 km/h (4 Bft)
04.10.2025 11:35 20,8 °C 12,7 °C 58 % 81 % 998,8 hPa 0,0 l/m² 23,9 km/h (4 Bft) S 177 ° 2 min 107 W/m² 9,5 °C 5,7 °C 35,4 km/h (5 Bft)
04.10.2025 11:36 20,8 °C 12,7 °C 58 % 81 % 998,8 hPa 0,0 l/m² 22,1 km/h (4 Bft) S 184 ° 1 min 107 W/m² 9,5 °C 6,2 °C 30,6 km/h (5 Bft)
04.10.2025 11:38 20,8 °C 12,8 °C 58 % 81 % 998,9 hPa 0,0 l/m² 20,0 km/h (4 Bft) S-SO 157 ° 2 min 104 W/m² 9,6 °C 6,9 °C 35,4 km/h (5 Bft)
04.10.2025 11:39 20,8 °C 12,8 °C 58 % 81 % 998,9 hPa 0,0 l/m² 13,4 km/h (3 Bft) S-SO 167 ° 1 min 104 W/m² 9,6 °C 9,1 °C 20,9 km/h (4 Bft)
04.10.2025 11:41 20,8 °C 12,9 °C 58 % 81 % 998,8 hPa 0,0 l/m² 17,5 km/h (3 Bft) S-SO 159 ° 2 min 95 W/m² 9,7 °C 7,8 °C 29,0 km/h (5 Bft)
04.10.2025 11:42 20,8 °C 12,9 °C 58 % 81 % 998,8 hPa 0,0 l/m² 13,5 km/h (3 Bft) S-SO 161 ° 1 min 86 W/m² 9,7 °C 9,2 °C 20,9 km/h (4 Bft)
04.10.2025 11:43 20,8 °C 13,0 °C 58 % 81 % 998,8 hPa 0,0 l/m² 11,9 km/h (2 Bft) SO 144 ° 1 min 81 W/m² 9,8 °C 10,0 °C 17,7 km/h (3 Bft)
04.10.2025 11:44 20,8 °C 13,0 °C 58 % 81 % 998,8 hPa 0,0 l/m² 20,1 km/h (4 Bft) S-SO 153 ° 1 min 74 W/m² 9,8 °C 7,1 °C 29,0 km/h (5 Bft)
04.10.2025 11:46 20,8 °C 13,1 °C 58 % 81 % 998,7 hPa 0,0 l/m² 19,9 km/h (4 Bft) SO 139 ° 2 min 62 W/m² 9,9 °C 7,3 °C 30,6 km/h (5 Bft)
04.10.2025 11:47 20,8 °C 13,1 °C 58 % 81 % 998,7 hPa 0,0 l/m² 22,4 km/h (4 Bft) SO 141 ° 1 min 60 W/m² 9,9 °C 6,7 °C 27,4 km/h (5 Bft)
04.10.2025 11:49 20,8 °C 13,2 °C 58 % 81 % 998,6 hPa 0,0 l/m² 22,5 km/h (4 Bft) SO 146 ° 2 min 58 W/m² 10,0 °C 6,8 °C 32,2 km/h (5 Bft)
04.10.2025 11:50 20,8 °C 13,2 °C 58 % 81 % 998,7 hPa 0,0 l/m² 17,6 km/h (3 Bft) S-SO 158 ° 1 min 54 W/m² 10,0 °C 8,1 °C 22,5 km/h (4 Bft)
04.10.2025 11:51 20,8 °C 13,2 °C 58 % 81 % 998,7 hPa 0,0 l/m² 19,5 km/h (3 Bft) S 181 ° 0 min 46 W/m² 10,0 °C 7,6 °C 29,0 km/h (5 Bft)
04.10.2025 11:52 20,8 °C 13,2 °C 58 % 81 % 998,7 hPa 0,0 l/m² 18,4 km/h (3 Bft) S 171 ° 0 min 44 W/m² 10,0 °C 7,9 °C 22,5 km/h (4 Bft)
04.10.2025 11:54 20,8 °C 13,3 °C 58 % 81 % 998,6 hPa 0,0 l/m² 16,1 km/h (3 Bft) SO 142 ° 0 min 46 W/m² 10,1 °C 8,7 °C 22,5 km/h (4 Bft)
04.10.2025 11:55 20,8 °C 13,3 °C 58 % 81 % 998,7 hPa 0,0 l/m² 15,0 km/h (3 Bft) S 181 ° 0 min 42 W/m² 10,1 °C 9,1 °C 19,3 km/h (3 Bft)
04.10.2025 11:57 20,7 °C 13,3 °C 58 % 81 % 998,6 hPa 0,0 l/m² 20,8 km/h (4 Bft) S-SO 165 ° 0 min 42 W/m² 10,1 °C 7,3 °C 29,0 km/h (5 Bft)
04.10.2025 11:58 20,7 °C 13,3 °C 58 % 81 % 998,6 hPa 0,0 l/m² 21,2 km/h (4 Bft) S-SO 166 ° 0 min 39 W/m² 10,1 °C 7,2 °C 25,7 km/h (4 Bft)
04.10.2025 11:59 20,8 °C 13,3 °C 58 % 81 % 998,7 hPa 0,0 l/m² 19,3 km/h (3 Bft) S-SO 157 ° 0 min 37 W/m² 10,1 °C 7,7 °C 24,1 km/h (4 Bft)
04.10.2025 12:00 20,8 °C 13,4 °C 58 % 81 % 998,7 hPa 0,0 l/m² 16,1 km/h (3 Bft) S-SO 157 ° 0 min 35 W/m² 10,2 °C 8,9 °C 24,1 km/h (4 Bft)
04.10.2025 12:01 20,8 °C 13,4 °C 58 % 81 % 998,7 hPa 0,0 l/m² 14,5 km/h (3 Bft) S-SO 157 ° 0 min 35 W/m² 10,2 °C 9,4 °C 19,3 km/h (3 Bft)
04.10.2025 12:07 20,8 °C 13,4 °C 58 % 81 % 998,5 hPa 0,0 l/m² 14,1 km/h (3 Bft) SO 129 ° 0 min 28 W/m² 10,2 °C 9,6 °C 20,9 km/h (4 Bft)
04.10.2025 12:09 20,7 °C 13,4 °C 58 % 81 % 998,5 hPa 0,0 l/m² 11,3 km/h (2 Bft) S-SO 150 ° 0 min 30 W/m² 10,2 °C 10,7 °C 19,3 km/h (3 Bft)
04.10.2025 12:11 20,7 °C 13,4 °C 58 % 81 % 998,5 hPa 0,0 l/m² 9,6 km/h (2 Bft) O-SO 107 ° 0 min 33 W/m² 10,2 °C 11,6 °C 16,1 km/h (3 Bft)
04.10.2025 12:12 20,7 °C 13,4 °C 58 % 81 % 998,5 hPa 0,0 l/m² 7,0 km/h (2 Bft) O-SO 105 ° 0 min 33 W/m² 10,2 °C 13,0 °C 9,7 km/h (2 Bft)
04.10.2025 12:13 20,7 °C 13,4 °C 58 % 81 % 998,5 hPa 0,0 l/m² 13,3 km/h (3 Bft) SO 133 ° 0 min 33 W/m² 10,2 °C 9,9 °C 19,3 km/h (3 Bft)
04.10.2025 12:14 20,7 °C 13,4 °C 58 % 81 % 998,4 hPa 0,0 l/m² 11,7 km/h (2 Bft) O-SO 112 ° 0 min 37 W/m² 10,2 °C 10,6 °C 17,7 km/h (3 Bft)
04.10.2025 12:15 20,7 °C 13,4 °C 58 % 81 % 998,4 hPa 0,0 l/m² 9,8 km/h (2 Bft) SO 133 ° 0 min 42 W/m² 10,2 °C 11,5 °C 16,1 km/h (3 Bft)
04.10.2025 12:17 20,7 °C 13,4 °C 58 % 81 % 998,4 hPa 0,0 l/m² 11,9 km/h (2 Bft) SO 135 ° 0 min 47 W/m² 10,2 °C 10,5 °C 19,3 km/h (3 Bft)
04.10.2025 12:19 20,7 °C 13,4 °C 58 % 81 % 998,4 hPa 0,0 l/m² 11,0 km/h (2 Bft) S 184 ° 2 min 56 W/m² 10,2 °C 10,9 °C 16,1 km/h (3 Bft)
04.10.2025 12:20 20,8 °C 13,4 °C 58 % 81 % 998,5 hPa 0,0 l/m² 11,2 km/h (2 Bft) SO 130 ° 1 min 53 W/m² 10,2 °C 10,8 °C 14,5 km/h (3 Bft)
04.10.2025 12:21 20,7 °C 13,4 °C 58 % 81 % 998,6 hPa 0,0 l/m² 13,1 km/h (3 Bft) S-SO 151 ° 1 min 56 W/m² 10,2 °C 10,0 °C 17,7 km/h (3 Bft)
04.10.2025 12:22 20,7 °C 13,4 °C 58 % 81 % 998,6 hPa 0,0 l/m² 16,0 km/h (3 Bft) S-SO 159 ° 1 min 62 W/m² 10,2 °C 8,9 °C 20,9 km/h (4 Bft)
04.10.2025 12:24 20,7 °C 13,5 °C 58 % 82 % 998,4 hPa 0,0 l/m² 15,8 km/h (3 Bft) S 172 ° 2 min 56 W/m² 10,5 °C 9,1 °C 24,1 km/h (4 Bft)
04.10.2025 12:25 20,8 °C 13,6 °C 58 % 82 % 998,4 hPa 0,0 l/m² 18,9 km/h (3 Bft) S-SO 152 ° 1 min 56 W/m² 10,6 °C 8,2 °C 25,7 km/h (4 Bft)
04.10.2025 12:27 20,8 °C 13,6 °C 58 % 82 % 998,4 hPa 0,0 l/m² 11,7 km/h (2 Bft) S 190 ° 0 min 51 W/m² 10,6 °C 10,8 °C 17,7 km/h (3 Bft)
04.10.2025 12:29 20,7 °C 13,6 °C 58 % 82 % 998,4 hPa 0,0 l/m² 15,5 km/h (3 Bft) S 180 ° 0 min 49 W/m² 10,6 °C 9,3 °C 22,5 km/h (4 Bft)
04.10.2025 12:30 20,7 °C 13,6 °C 58 % 82 % 998,3 hPa 0,0 l/m² 13,8 km/h (3 Bft) S 190 ° 0 min 49 W/m² 10,6 °C 9,9 °C 19,3 km/h (3 Bft)
04.10.2025 12:31 20,7 °C 13,7 °C 58 % 82 % 998,2 hPa 0,0 l/m² 13,1 km/h (3 Bft) SO 144 ° 0 min 47 W/m² 10,7 °C 10,3 °C 19,3 km/h (3 Bft)
04.10.2025 12:32 20,7 °C 13,6 °C 58 % 82 % 998,2 hPa 0,0 l/m² 15,7 km/h (3 Bft) SO 145 ° 0 min 40 W/m² 10,6 °C 9,3 °C 19,3 km/h (3 Bft)
04.10.2025 12:34 20,7 °C 13,7 °C 58 % 82 % 998,2 hPa 0,0 l/m² 15,6 km/h (3 Bft) S-SO 166 ° 0 min 39 W/m² 10,7 °C 9,4 °C 25,7 km/h (4 Bft)
04.10.2025 12:35 20,7 °C 13,7 °C 58 % 82 % 998,2 hPa 0,0 l/m² 14,7 km/h (3 Bft) S-SO 150 ° 0 min 40 W/m² 10,7 °C 9,7 °C 20,9 km/h (4 Bft)
04.10.2025 12:37 20,7 °C 13,7 °C 58 % 82 % 998,2 hPa 0,0 l/m² 12,0 km/h (2 Bft) S-SO 147 ° 0 min 37 W/m² 10,7 °C 10,8 °C 19,3 km/h (3 Bft)
04.10.2025 12:39 20,7 °C 13,7 °C 58 % 82 % 998,1 hPa 0,0 l/m² 16,4 km/h (3 Bft) S-SO 150 ° 0 min 40 W/m² 10,7 °C 9,1 °C 20,9 km/h (4 Bft)
04.10.2025 12:40 20,7 °C 13,8 °C 58 % 82 % 998,1 hPa 0,0 l/m² 14,6 km/h (3 Bft) S-SO 155 ° 0 min 40 W/m² 10,8 °C 9,9 °C 17,7 km/h (3 Bft)
04.10.2025 12:41 20,7 °C 13,8 °C 58 % 82 % 998,1 hPa 0,0 l/m² 15,9 km/h (3 Bft) SO 144 ° 0 min 40 W/m² 10,8 °C 9,4 °C 17,7 km/h (3 Bft)
04.10.2025 12:42 20,7 °C 13,8 °C 58 % 82 % 998,1 hPa 0,0 l/m² 13,7 km/h (3 Bft) S-SO 160 ° 0 min 42 W/m² 10,8 °C 10,2 °C 17,7 km/h (3 Bft)
04.10.2025 12:44 20,7 °C 13,8 °C 58 % 82 % 998,1 hPa 0,0 l/m² 13,0 km/h (3 Bft) S-SO 160 ° 0 min 49 W/m² 10,8 °C 10,5 °C 17,7 km/h (3 Bft)
04.10.2025 12:45 20,7 °C 13,9 °C 58 % 82 % 998,1 hPa 0,2 l/m² 14,5 km/h (3 Bft) SO 135 ° 1 min 54 W/m² 10,9 °C 10,0 °C 16,1 km/h (3 Bft)
04.10.2025 12:46 20,7 °C 13,9 °C 58 % 82 % 998,1 hPa 0,2 l/m² 11,0 km/h (2 Bft) S-SO 157 ° 1 min 56 W/m² 10,9 °C 11,4 °C 16,1 km/h (3 Bft)
04.10.2025 12:48 20,7 °C 13,9 °C 58 % 82 % 998,0 hPa 0,0 l/m² 9,8 km/h (2 Bft) SO 146 ° 2 min 63 W/m² 10,9 °C 12,0 °C 16,1 km/h (3 Bft)
04.10.2025 12:50 20,7 °C 13,9 °C 58 % 83 % 997,9 hPa 0,0 l/m² 11,3 km/h (2 Bft) SO 129 ° 2 min 70 W/m² 11,1 °C 11,3 °C 16,1 km/h (3 Bft)
04.10.2025 12:51 20,7 °C 13,9 °C 58 % 83 % 997,8 hPa 0,0 l/m² 16,0 km/h (3 Bft) SO 124 ° 1 min 74 W/m² 11,1 °C 9,5 °C 22,5 km/h (4 Bft)
04.10.2025 12:52 20,7 °C 13,9 °C 58 % 83 % 997,8 hPa 0,0 l/m² 17,5 km/h (3 Bft) S-SO 167 ° 1 min 72 W/m² 11,1 °C 9,0 °C 20,9 km/h (4 Bft)
04.10.2025 12:54 20,7 °C 14,0 °C 58 % 83 % 997,9 hPa 0,0 l/m² 10,3 km/h (2 Bft) S-SO 168 ° 2 min 91 W/m² 11,2 °C 11,9 °C 22,5 km/h (4 Bft)
04.10.2025 12:55 20,7 °C 13,9 °C 58 % 84 % 997,9 hPa 0,0 l/m² 12,1 km/h (2 Bft) S-SO 153 ° 1 min 121 W/m² 11,2 °C 11,0 °C 19,3 km/h (3 Bft)
04.10.2025 12:57 20,7 °C 14,1 °C 58 % 84 % 997,9 hPa 0,0 l/m² 11,7 km/h (2 Bft) S-SO 168 ° 2 min 141 W/m² 11,4 °C 11,4 °C 16,1 km/h (3 Bft)
04.10.2025 12:59 20,7 °C 14,1 °C 58 % 85 % 997,8 hPa 0,2 l/m² 15,1 km/h (3 Bft) S 182 ° 2 min 179 W/m² 11,6 °C 10,1 °C 24,1 km/h (4 Bft)
04.10.2025 13:00 20,7 °C 14,1 °C 58 % 85 % 997,8 hPa 0,0 l/m² 10,3 km/h (2 Bft) S-SW 205 ° 1 min 199 W/m² 11,6 °C 12,0 °C 16,1 km/h (3 Bft)
04.10.2025 13:01 20,7 °C 14,2 °C 58 % 85 % 997,8 hPa 0,0 l/m² 6,0 km/h (2 Bft) S 179 ° 1 min 223 W/m² 11,7 °C 14,2 °C 9,7 km/h (2 Bft)
04.10.2025 13:02 20,7 °C 14,2 °C 58 % 85 % 997,8 hPa 0,0 l/m² 5,4 km/h (2 Bft) S 188 ° 1 min 220 W/m² 11,7 °C 14,2 °C 8,0 km/h (2 Bft)
04.10.2025 13:03 20,7 °C 14,2 °C 58 % 85 % 997,8 hPa 0,0 l/m² 12,8 km/h (3 Bft) S 188 ° 1 min 207 W/m² 11,7 °C 11,0 °C 17,7 km/h (3 Bft)
04.10.2025 13:04 20,7 °C 14,3 °C 58 % 86 % 997,8 hPa 0,0 l/m² 8,0 km/h (2 Bft) SW 214 ° 1 min 207 W/m² 12,0 °C 13,4 °C 9,7 km/h (2 Bft)
04.10.2025 13:05 20,7 °C 14,3 °C 58 % 86 % 997,8 hPa 0,0 l/m² 9,9 km/h (2 Bft) S-SW 203 ° 1 min 209 W/m² 12,0 °C 12,4 °C 14,5 km/h (3 Bft)
04.10.2025 13:06 20,7 °C 14,4 °C 58 % 86 % 997,7 hPa 0,0 l/m² 18,8 km/h (3 Bft) S-SW 208 ° 1 min 218 W/m² 12,1 °C 9,3 °C 24,1 km/h (4 Bft)
04.10.2025 13:08 20,7 °C 14,6 °C 58 % 87 % 997,8 hPa 0,0 l/m² 19,2 km/h (3 Bft) S-SW 205 ° 2 min 225 W/m² 12,5 °C 9,4 °C 24,1 km/h (4 Bft)
04.10.2025 13:09 20,7 °C 14,6 °C 58 % 87 % 997,8 hPa 0,0 l/m² 14,4 km/h (3 Bft) SW 216 ° 1 min 225 W/m² 12,5 °C 10,9 °C 17,7 km/h (3 Bft)
04.10.2025 13:11 20,7 °C 14,8 °C 58 % 87 % 997,7 hPa 0,0 l/m² 17,7 km/h (3 Bft) S-SW 209 ° 2 min 230 W/m² 12,7 °C 10,1 °C 25,7 km/h (4 Bft)
04.10.2025 13:12 20,7 °C 14,8 °C 58 % 87 % 997,6 hPa 0,0 l/m² 24,1 km/h (4 Bft) S-SW 211 ° 1 min 225 W/m² 12,7 °C 8,5 °C 35,4 km/h (5 Bft)
04.10.2025 13:13 20,7 °C 14,8 °C 58 % 87 % 997,7 hPa 0,0 l/m² 18,4 km/h (3 Bft) W-SW 243 ° 1 min 207 W/m² 12,7 °C 9,9 °C 22,5 km/h (4 Bft)
04.10.2025 13:14 20,7 °C 14,9 °C 58 % 87 % 997,7 hPa 0,0 l/m² 17,6 km/h (3 Bft) SW 217 ° 1 min 188 W/m² 12,8 °C 10,3 °C 20,9 km/h (4 Bft)
04.10.2025 13:15 20,7 °C 14,9 °C 58 % 87 % 997,6 hPa 0,0 l/m² 18,2 km/h (3 Bft) SW 215 ° 1 min 181 W/m² 12,8 °C 10,1 °C 24,1 km/h (4 Bft)
04.10.2025 13:16 20,7 °C 14,9 °C 58 % 87 % 997,6 hPa 0,0 l/m² 16,3 km/h (3 Bft) SW 217 ° 1 min 179 W/m² 12,8 °C 10,7 °C 19,3 km/h (3 Bft)
04.10.2025 13:18 20,7 °C 15,0 °C 58 % 87 % 997,6 hPa 0,0 l/m² 18,0 km/h (3 Bft) SW 224 ° 2 min 179 W/m² 12,9 °C 10,3 °C 25,7 km/h (4 Bft)
04.10.2025 13:19 20,7 °C 15,1 °C 58 % 87 % 997,6 hPa 0,0 l/m² 18,9 km/h (3 Bft) SW 219 ° 1 min 167 W/m² 13,0 °C 10,2 °C 22,5 km/h (4 Bft)
04.10.2025 13:22 20,7 °C 15,1 °C 58 % 87 % 997,6 hPa 0,0 l/m² 21,2 km/h (4 Bft) SW 217 ° 3 min 155 W/m² 13,0 °C 9,6 °C 27,4 km/h (5 Bft)
04.10.2025 13:24 20,7 °C 15,1 °C 58 % 87 % 997,6 hPa 0,0 l/m² 18,9 km/h (3 Bft) SW 227 ° 2 min 183 W/m² 13,0 °C 10,2 °C 27,4 km/h (5 Bft)
04.10.2025 13:25 20,7 °C 15,1 °C 58 % 87 % 997,6 hPa 0,0 l/m² 17,8 km/h (3 Bft) SW 217 ° 1 min 207 W/m² 13,0 °C 10,5 °C 22,5 km/h (4 Bft)
04.10.2025 13:26 20,7 °C 15,1 °C 58 % 87 % 997,6 hPa 0,0 l/m² 17,6 km/h (3 Bft) SW 217 ° 1 min 200 W/m² 13,0 °C 10,5 °C 20,9 km/h (4 Bft)
04.10.2025 13:27 20,7 °C 15,2 °C 58 % 87 % 997,6 hPa 0,0 l/m² 18,0 km/h (3 Bft) S-SW 208 ° 1 min 193 W/m² 13,0 °C 10,5 °C 24,1 km/h (4 Bft)
04.10.2025 13:28 20,7 °C 15,1 °C 58 % 87 % 997,6 hPa 0,0 l/m² 14,5 km/h (3 Bft) S-SW 213 ° 1 min 193 W/m² 13,0 °C 11,5 °C 17,7 km/h (3 Bft)
04.10.2025 13:29 20,7 °C 15,2 °C 58 % 87 % 997,5 hPa 0,0 l/m² 18,0 km/h (3 Bft) SW 221 ° 1 min 200 W/m² 13,0 °C 10,5 °C 22,5 km/h (4 Bft)
04.10.2025 13:31 20,7 °C 15,2 °C 58 % 87 % 997,5 hPa 0,0 l/m² 19,0 km/h (3 Bft) S-SW 198 ° 2 min 216 W/m² 13,0 °C 10,3 °C 29,0 km/h (5 Bft)
04.10.2025 13:33 20,7 °C 15,2 °C 58 % 87 % 997,4 hPa 0,0 l/m² 16,0 km/h (3 Bft) SW 232 ° 2 min 209 W/m² 13,0 °C 11,1 °C 20,9 km/h (4 Bft)
04.10.2025 13:34 20,7 °C 15,2 °C 58 % 87 % 997,4 hPa 0,0 l/m² 17,8 km/h (3 Bft) S-SW 202 ° 1 min 214 W/m² 13,0 °C 10,6 °C 20,9 km/h (4 Bft)
04.10.2025 13:35 20,7 °C 15,2 °C 58 % 87 % 997,5 hPa 0,0 l/m² 14,9 km/h (3 Bft) S-SW 195 ° 1 min 213 W/m² 13,0 °C 11,5 °C 17,7 km/h (3 Bft)
04.10.2025 13:36 20,7 °C 15,3 °C 58 % 87 % 997,4 hPa 0,0 l/m² 19,2 km/h (3 Bft) S-SW 207 ° 1 min 204 W/m² 13,1 °C 10,3 °C 20,9 km/h (4 Bft)
04.10.2025 13:37 20,7 °C 15,3 °C 58 % 87 % 997,5 hPa 0,0 l/m² 15,5 km/h (3 Bft) SW 217 ° 1 min 204 W/m² 13,1 °C 11,4 °C 19,3 km/h (3 Bft)
04.10.2025 13:38 20,7 °C 15,3 °C 58 % 87 % 997,4 hPa 0,0 l/m² 14,7 km/h (3 Bft) SW 222 ° 1 min 193 W/m² 13,1 °C 11,7 °C 20,9 km/h (4 Bft)
04.10.2025 13:39 20,7 °C 15,3 °C 58 % 87 % 997,5 hPa 0,0 l/m² 20,1 km/h (4 Bft) SW 218 ° 1 min 162 W/m² 13,1 °C 10,1 °C 25,7 km/h (4 Bft)
04.10.2025 13:41 20,7 °C 15,3 °C 58 % 86 % 997,7 hPa 0,0 l/m² 18,7 km/h (3 Bft) SW 224 ° 2 min 93 W/m² 13,0 °C 10,5 °C 24,1 km/h (4 Bft)
04.10.2025 13:42 20,7 °C 15,3 °C 58 % 86 % 997,9 hPa 0,0 l/m² 21,1 km/h (4 Bft) SW 236 ° 0 min 39 W/m² 13,0 °C 9,9 °C 25,7 km/h (4 Bft)
04.10.2025 13:43 20,7 °C 15,3 °C 58 % 86 % 997,9 hPa 0,0 l/m² 21,3 km/h (4 Bft) W-SW 246 ° 0 min 33 W/m² 13,0 °C 9,8 °C 29,0 km/h (5 Bft)
04.10.2025 13:44 20,7 °C 15,3 °C 58 % 86 % 997,9 hPa 0,0 l/m² 18,5 km/h (3 Bft) W-SW 257 ° 0 min 32 W/m² 13,0 °C 10,5 °C 24,1 km/h (4 Bft)
04.10.2025 13:45 20,7 °C 15,3 °C 58 % 86 % 997,9 hPa 0,0 l/m² 16,0 km/h (3 Bft) W 277 ° 0 min 32 W/m² 13,0 °C 11,2 °C 25,7 km/h (4 Bft)
04.10.2025 13:46 20,7 °C 15,3 °C 58 % 86 % 998,0 hPa 0,0 l/m² 16,7 km/h (3 Bft) W 263 ° 0 min 33 W/m² 13,0 °C 11,0 °C 20,9 km/h (4 Bft)
04.10.2025 13:47 20,7 °C 15,2 °C 58 % 86 % 998,1 hPa 0,0 l/m² 16,5 km/h (3 Bft) W-SW 248 ° 0 min 37 W/m² 12,9 °C 11,0 °C 22,5 km/h (4 Bft)
04.10.2025 13:48 20,7 °C 15,2 °C 58 % 86 % 998,0 hPa 0,0 l/m² 17,2 km/h (3 Bft) W 276 ° 0 min 28 W/m² 12,9 °C 10,8 °C 27,4 km/h (5 Bft)
04.10.2025 13:49 20,7 °C 15,2 °C 58 % 86 % 998,1 hPa 0,0 l/m² 17,3 km/h (3 Bft) W-NW 282 ° 0 min 26 W/m² 12,9 °C 10,7 °C 25,7 km/h (4 Bft)
04.10.2025 13:51 20,7 °C 15,1 °C 58 % 86 % 998,1 hPa 0,0 l/m² 15,2 km/h (3 Bft) W 275 ° 0 min 26 W/m² 12,8 °C 11,2 °C 25,7 km/h (4 Bft)
04.10.2025 13:53 20,7 °C 15,1 °C 58 % 86 % 998,1 hPa 0,0 l/m² 16,6 km/h (3 Bft) W 262 ° 0 min 35 W/m² 12,8 °C 10,8 °C 27,4 km/h (5 Bft)
04.10.2025 13:54 20,7 °C 14,9 °C 58 % 86 % 998,1 hPa 0,0 l/m² 20,0 km/h (4 Bft) W 279 ° 1 min 58 W/m² 12,6 °C 9,6 °C 32,2 km/h (5 Bft)
04.10.2025 13:55 20,7 °C 14,9 °C 58 % 86 % 998,1 hPa 0,0 l/m² 16,5 km/h (3 Bft) W-SW 246 ° 1 min 60 W/m² 12,6 °C 10,6 °C 24,1 km/h (4 Bft)
04.10.2025 13:56 20,7 °C 14,9 °C 58 % 86 % 998,1 hPa 0,0 l/m² 14,1 km/h (3 Bft) W-SW 248 ° 0 min 51 W/m² 12,6 °C 11,4 °C 20,9 km/h (4 Bft)
04.10.2025 13:57 20,7 °C 14,8 °C 58 % 86 % 998,1 hPa 0,0 l/m² 12,6 km/h (3 Bft) W-SW 258 ° 0 min 46 W/m² 12,5 °C 11,8 °C 22,5 km/h (4 Bft)
04.10.2025 13:58 20,7 °C 14,8 °C 58 % 86 % 998,1 hPa 0,0 l/m² 13,1 km/h (3 Bft) W-SW 257 ° 0 min 44 W/m² 12,5 °C 11,6 °C 22,5 km/h (4 Bft)
04.10.2025 13:59 20,7 °C 14,8 °C 58 % 86 % 998,1 hPa 0,0 l/m² 16,3 km/h (3 Bft) W-SW 252 ° 0 min 44 W/m² 12,5 °C 10,5 °C 22,5 km/h (4 Bft)
04.10.2025 14:01 20,7 °C 14,7 °C 58 % 86 % 998,1 hPa 0,0 l/m² 17,0 km/h (3 Bft) W-SW 250 ° 0 min 46 W/m² 12,4 °C 10,2 °C 24,1 km/h (4 Bft)
04.10.2025 14:03 20,7 °C 14,6 °C 58 % 86 % 998,0 hPa 0,0 l/m² 18,4 km/h (3 Bft) SW 219 ° 0 min 42 W/m² 12,3 °C 9,7 °C 25,7 km/h (4 Bft)
04.10.2025 14:04 20,7 °C 14,5 °C 58 % 86 % 998,1 hPa 0,0 l/m² 14,9 km/h (3 Bft) W-NW 302 ° 0 min 39 W/m² 12,2 °C 10,6 °C 17,7 km/h (3 Bft)
04.10.2025 14:05 20,7 °C 14,5 °C 58 % 86 % 998,2 hPa 0,0 l/m² 17,8 km/h (3 Bft) W-SW 247 ° 0 min 37 W/m² 12,2 °C 9,7 °C 24,1 km/h (4 Bft)
04.10.2025 14:06 20,7 °C 14,4 °C 58 % 86 % 998,2 hPa 0,0 l/m² 18,5 km/h (3 Bft) W-SW 242 ° 0 min 42 W/m² 12,1 °C 9,4 °C 29,0 km/h (5 Bft)
04.10.2025 14:07 20,7 °C 14,4 °C 58 % 87 % 998,2 hPa 0,0 l/m² 21,4 km/h (4 Bft) W-SW 246 ° 0 min 47 W/m² 12,3 °C 8,6 °C 27,4 km/h (5 Bft)
04.10.2025 14:08 20,7 °C 14,4 °C 58 % 87 % 998,0 hPa 0,0 l/m² 20,5 km/h (4 Bft) W-SW 240 ° 1 min 53 W/m² 12,3 °C 8,8 °C 27,4 km/h (5 Bft)
04.10.2025 14:09 20,7 °C 14,3 °C 58 % 87 % 998,0 hPa 0,0 l/m² 17,1 km/h (3 Bft) W 269 ° 1 min 56 W/m² 12,2 °C 9,7 °C 24,1 km/h (4 Bft)
04.10.2025 14:11 20,7 °C 14,3 °C 58 % 87 % 997,9 hPa 0,0 l/m² 16,8 km/h (3 Bft) W-SW 240 ° 2 min 58 W/m² 12,2 °C 9,8 °C 22,5 km/h (4 Bft)
04.10.2025 14:13 20,7 °C 14,2 °C 58 % 87 % 998,0 hPa 0,0 l/m² 12,2 km/h (2 Bft) W-SW 255 ° 2 min 60 W/m² 12,1 °C 11,3 °C 19,3 km/h (3 Bft)
04.10.2025 14:14 20,7 °C 14,2 °C 58 % 87 % 997,9 hPa 0,0 l/m² 13,9 km/h (3 Bft) SW 236 ° 1 min 60 W/m² 12,1 °C 10,6 °C 20,9 km/h (4 Bft)
04.10.2025 14:15 20,7 °C 14,2 °C 58 % 87 % 997,9 hPa 0,0 l/m² 13,5 km/h (3 Bft) W-SW 242 ° 1 min 60 W/m² 12,1 °C 10,8 °C 17,7 km/h (3 Bft)
04.10.2025 14:16 20,7 °C 14,2 °C 58 % 87 % 997,8 hPa 0,0 l/m² 12,3 km/h (2 Bft) W-SW 248 ° 1 min 62 W/m² 12,1 °C 11,2 °C 16,1 km/h (3 Bft)
04.10.2025 14:17 20,7 °C 14,2 °C 58 % 87 % 997,6 hPa 0,0 l/m² 10,5 km/h (2 Bft) SW 233 ° 1 min 62 W/m² 12,1 °C 12,0 °C 14,5 km/h (3 Bft)
04.10.2025 14:18 20,7 °C 14,2 °C 58 % 87 % 997,5 hPa 0,0 l/m² 12,4 km/h (2 Bft) SW 214 ° 1 min 67 W/m² 12,1 °C 11,2 °C 17,7 km/h (3 Bft)
04.10.2025 14:19 20,7 °C 14,1 °C 58 % 87 % 997,4 hPa 0,0 l/m² 9,6 km/h (2 Bft) W-SW 241 ° 1 min 76 W/m² 12,0 °C 12,3 °C 14,5 km/h (3 Bft)
04.10.2025 14:21 20,7 °C 14,1 °C 58 % 88 % 997,1 hPa 0,0 l/m² 10,8 km/h (2 Bft) W-SW 248 ° 2 min 91 W/m² 12,1 °C 11,8 °C 16,1 km/h (3 Bft)
04.10.2025 14:23 20,7 °C 14,1 °C 58 % 88 % 997,6 hPa 0,0 l/m² 12,0 km/h (2 Bft) SW 236 ° 2 min 53 W/m² 12,1 °C 11,2 °C 16,1 km/h (3 Bft)
04.10.2025 14:24 20,7 °C 14,1 °C 58 % 88 % 997,6 hPa 0,0 l/m² 13,3 km/h (3 Bft) SW 230 ° 0 min 35 W/m² 12,1 °C 10,7 °C 17,7 km/h (3 Bft)
04.10.2025 14:25 20,7 °C 14,1 °C 58 % 88 % 997,7 hPa 0,2 l/m² 9,5 km/h (2 Bft) W-SW 242 ° 0 min 30 W/m² 12,1 °C 12,4 °C 12,9 km/h (3 Bft)
04.10.2025 14:26 20,7 °C 14,0 °C 58 % 88 % 997,6 hPa 0,0 l/m² 11,5 km/h (2 Bft) W-SW 237 ° 0 min 26 W/m² 12,0 °C 11,3 °C 16,1 km/h (3 Bft)
04.10.2025 14:27 20,7 °C 14,0 °C 58 % 88 % 997,6 hPa 0,0 l/m² 9,6 km/h (2 Bft) SW 229 ° 0 min 26 W/m² 12,0 °C 12,2 °C 11,3 km/h (2 Bft)
04.10.2025 14:28 20,7 °C 14,0 °C 58 % 88 % 997,5 hPa 0,0 l/m² 8,8 km/h (2 Bft) W-SW 245 ° 0 min 23 W/m² 12,0 °C 12,6 °C 14,5 km/h (3 Bft)
04.10.2025 14:29 20,7 °C 14,0 °C 58 % 88 % 997,6 hPa 0,0 l/m² 11,0 km/h (2 Bft) SW 230 ° 0 min 21 W/m² 12,0 °C 11,6 °C 14,5 km/h (3 Bft)
04.10.2025 14:31 20,7 °C 13,9 °C 58 % 88 % 997,6 hPa 0,0 l/m² 10,3 km/h (2 Bft) W-SW 241 ° 0 min 30 W/m² 11,9 °C 11,8 °C 14,5 km/h (3 Bft)
04.10.2025 14:33 20,7 °C 13,9 °C 58 % 88 % 997,7 hPa 0,0 l/m² 9,9 km/h (2 Bft) SW 232 ° 0 min 33 W/m² 11,9 °C 12,0 °C 16,1 km/h (3 Bft)
04.10.2025 14:34 20,7 °C 13,9 °C 58 % 88 % 997,6 hPa 0,0 l/m² 11,3 km/h (2 Bft) W-SW 237 ° 0 min 33 W/m² 11,9 °C 11,3 °C 16,1 km/h (3 Bft)
04.10.2025 14:35 20,7 °C 13,9 °C 58 % 88 % 997,5 hPa 0,0 l/m² 11,2 km/h (2 Bft) SW 230 ° 0 min 35 W/m² 11,9 °C 11,3 °C 16,1 km/h (3 Bft)
04.10.2025 14:36 20,7 °C 13,8 °C 58 % 88 % 997,6 hPa 0,0 l/m² 8,1 km/h (2 Bft) SW 233 ° 0 min 40 W/m² 11,8 °C 12,8 °C 11,3 km/h (2 Bft)
04.10.2025 14:37 20,7 °C 13,8 °C 58 % 88 % 997,6 hPa 0,0 l/m² 10,4 km/h (2 Bft) SW 217 ° 0 min 42 W/m² 11,8 °C 11,6 °C 14,5 km/h (3 Bft)
04.10.2025 14:38 20,7 °C 13,8 °C 58 % 88 % 997,6 hPa 0,2 l/m² 9,5 km/h (2 Bft) SW 230 ° 0 min 46 W/m² 11,8 °C 12,0 °C 16,1 km/h (3 Bft)
04.10.2025 14:39 20,7 °C 13,8 °C 58 % 88 % 997,6 hPa 0,0 l/m² 9,7 km/h (2 Bft) SW 227 ° 0 min 49 W/m² 11,8 °C 11,9 °C 12,9 km/h (3 Bft)
04.10.2025 14:40 20,7 °C 13,8 °C 58 % 89 % 997,5 hPa 0,0 l/m² 8,9 km/h (2 Bft) SW 223 ° 0 min 51 W/m² 12,0 °C 12,3 °C 12,9 km/h (3 Bft)
04.10.2025 14:42 20,7 °C 13,8 °C 58 % 89 % 997,6 hPa 0,0 l/m² 9,2 km/h (2 Bft) SW 233 ° 0 min 46 W/m² 12,0 °C 12,2 °C 14,5 km/h (3 Bft)
04.10.2025 14:44 20,7 °C 13,8 °C 58 % 89 % 997,6 hPa 0,0 l/m² 10,2 km/h (2 Bft) SW 233 ° 0 min 42 W/m² 12,0 °C 11,7 °C 14,5 km/h (3 Bft)
04.10.2025 14:45 20,7 °C 13,7 °C 58 % 89 % 997,6 hPa 0,0 l/m² 10,8 km/h (2 Bft) SW 229 ° 0 min 42 W/m² 11,9 °C 11,3 °C 17,7 km/h (3 Bft)
04.10.2025 14:46 20,7 °C 13,7 °C 58 % 89 % 997,6 hPa 0,0 l/m² 8,8 km/h (2 Bft) SW 219 ° 0 min 42 W/m² 11,9 °C 12,3 °C 11,3 km/h (2 Bft)
04.10.2025 14:47 20,7 °C 13,7 °C 58 % 89 % 997,6 hPa 0,0 l/m² 6,9 km/h (2 Bft) SW 219 ° 0 min 40 W/m² 11,9 °C 13,4 °C 8,0 km/h (2 Bft)
04.10.2025 14:48 20,7 °C 13,7 °C 58 % 89 % 997,6 hPa 0,0 l/m² 3,3 km/h (1 Bft) SW 236 ° 0 min 42 W/m² 11,9 °C 13,7 °C 8,0 km/h (2 Bft)
04.10.2025 14:49 20,7 °C 13,7 °C 58 % 89 % 997,5 hPa 0,0 l/m² 5,1 km/h (1 Bft) SW 220 ° 0 min 42 W/m² 11,9 °C 13,7 °C 8,0 km/h (2 Bft)
04.10.2025 14:50 20,7 °C 13,7 °C 58 % 89 % 997,5 hPa 0,0 l/m² 1,1 km/h (1 Bft) SW 231 ° 0 min 40 W/m² 11,9 °C 13,7 °C 3,2 km/h (1 Bft)
04.10.2025 14:52 20,7 °C 13,7 °C 58 % 89 % 997,5 hPa 0,0 l/m² 2,2 km/h (1 Bft) SW 234 ° 0 min 39 W/m² 11,9 °C 13,7 °C 6,4 km/h (2 Bft)
04.10.2025 14:54 20,7 °C 13,7 °C 58 % 89 % 997,6 hPa 0,0 l/m² 3,5 km/h (1 Bft) W-SW 239 ° 0 min 42 W/m² 11,9 °C 13,7 °C 6,4 km/h (2 Bft)
04.10.2025 14:55 20,7 °C 13,7 °C 58 % 89 % 997,5 hPa 0,0 l/m² 3,2 km/h (1 Bft) W-SW 239 ° 0 min 42 W/m² 11,9 °C 13,7 °C 4,8 km/h (1 Bft)
04.10.2025 14:56 20,7 °C 13,7 °C 58 % 89 % 997,6 hPa 0,0 l/m² 4,6 km/h (1 Bft) S-SW 205 ° 0 min 40 W/m² 11,9 °C 13,7 °C 6,4 km/h (2 Bft)
04.10.2025 14:57 20,7 °C 13,7 °C 58 % 89 % 997,6 hPa 0,0 l/m² 2,7 km/h (1 Bft) W-SW 240 ° 0 min 39 W/m² 11,9 °C 13,7 °C 6,4 km/h (2 Bft)
04.10.2025 14:58 20,7 °C 13,7 °C 58 % 89 % 997,6 hPa 0,0 l/m² 4,5 km/h (1 Bft) SW 223 ° 0 min 37 W/m² 11,9 °C 13,7 °C 6,4 km/h (2 Bft)
04.10.2025 14:59 20,7 °C 13,6 °C 58 % 89 % 997,6 hPa 0,0 l/m² 4,6 km/h (1 Bft) SW 222 ° 0 min 35 W/m² 11,8 °C 13,6 °C 6,4 km/h (2 Bft)
04.10.2025 15:00 20,7 °C 13,7 °C 58 % 89 % 997,7 hPa 0,0 l/m² 3,8 km/h (1 Bft) SW 222 ° 0 min 33 W/m² 11,9 °C 13,7 °C 4,8 km/h (1 Bft)
04.10.2025 15:02 20,7 °C 13,6 °C 58 % 89 % 997,7 hPa 0,0 l/m² 3,8 km/h (1 Bft) SW 226 ° 0 min 33 W/m² 11,8 °C 13,6 °C 6,4 km/h (2 Bft)
04.10.2025 15:04 20,7 °C 13,6 °C 58 % 89 % 997,7 hPa 0,0 l/m² 2,7 km/h (1 Bft) SW 228 ° 0 min 37 W/m² 11,8 °C 13,6 °C 6,4 km/h (2 Bft)
04.10.2025 15:05 20,7 °C 13,6 °C 58 % 89 % 997,7 hPa 0,0 l/m² 2,1 km/h (1 Bft) SW 227 ° 0 min 42 W/m² 11,8 °C 13,6 °C 4,8 km/h (1 Bft)
04.10.2025 15:06 20,6 °C 13,6 °C 58 % 89 % 997,8 hPa 0,0 l/m² 4,2 km/h (1 Bft) SW 235 ° 0 min 44 W/m² 11,8 °C 13,6 °C 8,0 km/h (2 Bft)
04.10.2025 15:07 20,7 °C 13,6 °C 58 % 89 % 997,7 hPa 0,0 l/m² 4,5 km/h (1 Bft) SW 236 ° 0 min 46 W/m² 11,8 °C 13,6 °C 6,4 km/h (2 Bft)
04.10.2025 15:08 20,7 °C 13,6 °C 58 % 89 % 997,8 hPa 0,0 l/m² 3,8 km/h (1 Bft) SW 236 ° 0 min 46 W/m² 11,8 °C 13,6 °C 6,4 km/h (2 Bft)
04.10.2025 15:09 20,7 °C 13,6 °C 58 % 89 % 997,8 hPa 0,0 l/m² 4,2 km/h (1 Bft) SW 234 ° 0 min 46 W/m² 11,8 °C 13,6 °C 4,8 km/h (1 Bft)
04.10.2025 15:10 20,7 °C 13,6 °C 58 % 89 % 997,8 hPa 0,0 l/m² 4,4 km/h (1 Bft) W-SW 239 ° 0 min 47 W/m² 11,8 °C 13,6 °C 6,4 km/h (2 Bft)
04.10.2025 15:12 20,7 °C 13,6 °C 58 % 90 % 998,0 hPa 0,0 l/m² 5,7 km/h (2 Bft) SW 234 ° 0 min 46 W/m² 12,0 °C 13,6 °C 8,0 km/h (2 Bft)
04.10.2025 15:14 20,7 °C 13,6 °C 58 % 90 % 998,0 hPa 0,0 l/m² 5,8 km/h (2 Bft) SW 226 ° 0 min 51 W/m² 12,0 °C 13,6 °C 11,3 km/h (2 Bft)
04.10.2025 15:15 20,7 °C 13,6 °C 58 % 90 % 998,0 hPa 0,0 l/m² 7,8 km/h (2 Bft) SW 220 ° 1 min 56 W/m² 12,0 °C 12,7 °C 9,7 km/h (2 Bft)
04.10.2025 15:16 20,7 °C 13,6 °C 58 % 90 % 998,0 hPa 0,0 l/m² 8,4 km/h (2 Bft) SW 222 ° 1 min 72 W/m² 12,0 °C 12,4 °C 9,7 km/h (2 Bft)
04.10.2025 15:17 20,7 °C 13,6 °C 58 % 90 % 998,0 hPa 0,0 l/m² 7,0 km/h (2 Bft) SW 236 ° 1 min 77 W/m² 12,0 °C 13,2 °C 11,3 km/h (2 Bft)
04.10.2025 15:18 20,7 °C 13,6 °C 58 % 90 % 998,0 hPa 0,0 l/m² 8,2 km/h (2 Bft) SW 215 ° 1 min 79 W/m² 12,0 °C 12,5 °C 9,7 km/h (2 Bft)
04.10.2025 15:19 20,7 °C 13,6 °C 58 % 90 % 997,9 hPa 0,0 l/m² 9,2 km/h (2 Bft) SW 221 ° 1 min 77 W/m² 12,0 °C 12,0 °C 14,5 km/h (3 Bft)
04.10.2025 15:21 20,7 °C 13,6 °C 58 % 90 % 997,9 hPa 0,0 l/m² 8,6 km/h (2 Bft) SW 220 ° 2 min 74 W/m² 12,0 °C 12,3 °C 12,9 km/h (3 Bft)
04.10.2025 15:23 20,7 °C 13,6 °C 58 % 90 % 997,9 hPa 0,0 l/m² 7,1 km/h (2 Bft) SW 222 ° 2 min 74 W/m² 12,0 °C 13,2 °C 11,3 km/h (2 Bft)
04.10.2025 15:24 20,7 °C 13,6 °C 58 % 90 % 997,8 hPa 0,0 l/m² 5,8 km/h (2 Bft) SW 221 ° 1 min 74 W/m² 12,0 °C 13,6 °C 8,0 km/h (2 Bft)
04.10.2025 15:25 20,7 °C 13,6 °C 58 % 90 % 997,8 hPa 0,0 l/m² 7,3 km/h (2 Bft) SW 224 ° 1 min 70 W/m² 12,0 °C 13,0 °C 9,7 km/h (2 Bft)
04.10.2025 15:26 20,7 °C 13,6 °C 58 % 90 % 997,7 hPa 0,0 l/m² 5,8 km/h (2 Bft) SW 221 ° 1 min 67 W/m² 12,0 °C 13,6 °C 8,0 km/h (2 Bft)
04.10.2025 15:27 20,7 °C 13,6 °C 58 % 90 % 997,8 hPa 0,0 l/m² 5,3 km/h (1 Bft) SW 219 ° 1 min 62 W/m² 12,0 °C 13,6 °C 8,0 km/h (2 Bft)
04.10.2025 15:28 20,7 °C 13,6 °C 58 % 90 % 997,8 hPa 0,0 l/m² 5,9 km/h (2 Bft) SW 223 ° 1 min 54 W/m² 12,0 °C 13,6 °C 8,0 km/h (2 Bft)
04.10.2025 15:29 20,7 °C 13,6 °C 58 % 90 % 997,8 hPa 0,0 l/m² 4,5 km/h (1 Bft) SW 227 ° 1 min 53 W/m² 12,0 °C 13,6 °C 8,0 km/h (2 Bft)
04.10.2025 15:30 20,7 °C 13,6 °C 58 % 90 % 997,8 hPa 0,0 l/m² 5,2 km/h (1 Bft) SW 230 ° 1 min 54 W/m² 12,0 °C 13,6 °C 8,0 km/h (2 Bft)
04.10.2025 15:32 20,7 °C 13,6 °C 58 % 90 % 997,9 hPa 0,0 l/m² 3,9 km/h (1 Bft) SW 229 ° 2 min 60 W/m² 12,0 °C 13,6 °C 6,4 km/h (2 Bft)
04.10.2025 15:34 20,7 °C 13,6 °C 58 % 90 % 997,9 hPa 0,0 l/m² 4,7 km/h (1 Bft) SW 229 ° 2 min 63 W/m² 12,0 °C 13,6 °C 6,4 km/h (2 Bft)
04.10.2025 15:35 20,7 °C 13,6 °C 58 % 90 % 998,0 hPa 0,0 l/m² 4,7 km/h (1 Bft) W-SW 237 ° 1 min 60 W/m² 12,0 °C 13,6 °C 6,4 km/h (2 Bft)
04.10.2025 15:36 20,7 °C 13,6 °C 58 % 90 % 998,0 hPa 0,0 l/m² 5,6 km/h (2 Bft) SW 234 ° 1 min 56 W/m² 12,0 °C 13,6 °C 8,0 km/h (2 Bft)
04.10.2025 15:37 20,7 °C 13,6 °C 58 % 90 % 998,0 hPa 0,0 l/m² 6,0 km/h (2 Bft) SW 236 ° 1 min 58 W/m² 12,0 °C 13,6 °C 9,7 km/h (2 Bft)
04.10.2025 15:38 20,7 °C 13,6 °C 58 % 90 % 998,0 hPa 0,0 l/m² 6,7 km/h (2 Bft) W-SW 240 ° 1 min 60 W/m² 12,0 °C 13,4 °C 8,0 km/h (2 Bft)
04.10.2025 15:39 20,7 °C 13,6 °C 58 % 90 % 998,0 hPa 0,0 l/m² 4,4 km/h (1 Bft) W-SW 240 ° 1 min 58 W/m² 12,0 °C 13,6 °C 6,4 km/h (2 Bft)
04.10.2025 15:40 20,7 °C 13,6 °C 58 % 90 % 998,0 hPa 0,0 l/m² 4,1 km/h (1 Bft) S-SW 201 ° 1 min 69 W/m² 12,0 °C 13,6 °C 4,8 km/h (1 Bft)
04.10.2025 15:42 20,7 °C 13,6 °C 58 % 90 % 997,9 hPa 0,0 l/m² 3,0 km/h (1 Bft) SW 219 ° 2 min 79 W/m² 12,0 °C 13,6 °C 4,8 km/h (1 Bft)
04.10.2025 15:44 20,7 °C 13,6 °C 58 % 90 % 997,9 hPa 0,0 l/m² 3,1 km/h (1 Bft) SW 223 ° 2 min 62 W/m² 12,0 °C 13,6 °C 4,8 km/h (1 Bft)
04.10.2025 15:45 20,7 °C 13,6 °C 58 % 91 % 997,8 hPa 0,0 l/m² 4,8 km/h (1 Bft) SW 221 ° 1 min 65 W/m² 12,2 °C 13,6 °C 4,8 km/h (1 Bft)
04.10.2025 15:46 20,7 °C 13,6 °C 58 % 90 % 997,8 hPa 0,0 l/m² 3,1 km/h (1 Bft) S-SW 210 ° 1 min 76 W/m² 12,0 °C 13,6 °C 4,8 km/h (1 Bft)
04.10.2025 15:47 20,7 °C 13,6 °C 58 % 90 % 997,8 hPa 0,0 l/m² 3,5 km/h (1 Bft) S-SW 198 ° 1 min 86 W/m² 12,0 °C 13,6 °C 6,4 km/h (2 Bft)
04.10.2025 15:48 20,7 °C 13,6 °C 58 % 90 % 997,8 hPa 0,0 l/m² 5,4 km/h (2 Bft) S-SW 198 ° 1 min 95 W/m² 12,0 °C 13,6 °C 6,4 km/h (2 Bft)
04.10.2025 15:49 20,7 °C 13,6 °C 58 % 90 % 997,9 hPa 0,0 l/m² 4,3 km/h (1 Bft) S-SW 195 ° 1 min 98 W/m² 12,0 °C 13,6 °C 4,8 km/h (1 Bft)
04.10.2025 15:50 20,7 °C 13,6 °C 58 % 91 % 997,9 hPa 0,0 l/m² 6,3 km/h (2 Bft) S-SW 193 ° 1 min 102 W/m² 12,2 °C 13,6 °C 8,0 km/h (2 Bft)
04.10.2025 15:52 20,7 °C 13,6 °C 58 % 91 % 997,9 hPa 0,0 l/m² 5,3 km/h (1 Bft) S-SW 201 ° 2 min 93 W/m² 12,2 °C 13,6 °C 6,4 km/h (2 Bft)
04.10.2025 15:53 20,7 °C 13,6 °C 58 % 91 % 997,9 hPa 0,0 l/m² 6,0 km/h (2 Bft) S-SW 205 ° 1 min 83 W/m² 12,2 °C 13,6 °C 8,0 km/h (2 Bft)
04.10.2025 15:54 20,7 °C 13,6 °C 58 % 91 % 997,9 hPa 0,0 l/m² 5,6 km/h (2 Bft) S-SW 203 ° 1 min 76 W/m² 12,2 °C 13,6 °C 6,4 km/h (2 Bft)
04.10.2025 15:55 20,7 °C 13,6 °C 58 % 91 % 997,9 hPa 0,0 l/m² 6,2 km/h (2 Bft) S-SW 202 ° 1 min 72 W/m² 12,2 °C 13,6 °C 8,0 km/h (2 Bft)
04.10.2025 15:56 20,7 °C 13,7 °C 58 % 91 % 997,9 hPa 0,0 l/m² 6,2 km/h (2 Bft) S-SW 205 ° 1 min 72 W/m² 12,3 °C 13,7 °C 6,4 km/h (2 Bft)
04.10.2025 15:57 20,7 °C 13,6 °C 58 % 91 % 998,0 hPa 0,0 l/m² 6,2 km/h (2 Bft) S 188 ° 1 min 67 W/m² 12,2 °C 13,6 °C 8,0 km/h (2 Bft)
04.10.2025 15:58 20,7 °C 13,7 °C 58 % 91 % 998,0 hPa 0,0 l/m² 7,3 km/h (2 Bft) S-SW 213 ° 1 min 70 W/m² 12,3 °C 13,2 °C 9,7 km/h (2 Bft)
04.10.2025 15:59 20,7 °C 13,6 °C 58 % 91 % 998,0 hPa 0,0 l/m² 6,7 km/h (2 Bft) S-SW 205 ° 1 min 65 W/m² 12,2 °C 13,4 °C 8,0 km/h (2 Bft)
04.10.2025 16:00 20,7 °C 13,7 °C 58 % 91 % 997,9 hPa 0,0 l/m² 6,0 km/h (2 Bft) S-SW 200 ° 1 min 54 W/m² 12,3 °C 13,7 °C 8,0 km/h (2 Bft)
04.10.2025 16:02 20,7 °C 13,6 °C 58 % 91 % 998,0 hPa 0,0 l/m² 6,6 km/h (2 Bft) S-SW 206 ° 2 min 53 W/m² 12,2 °C 13,5 °C 9,7 km/h (2 Bft)
04.10.2025 16:04 20,7 °C 13,6 °C 58 % 91 % 997,9 hPa 0,0 l/m² 9,0 km/h (2 Bft) S-SW 202 ° 2 min 70 W/m² 12,2 °C 12,1 °C 16,1 km/h (3 Bft)
04.10.2025 16:05 20,8 °C 13,6 °C 58 % 91 % 997,7 hPa 0,0 l/m² 8,2 km/h (2 Bft) S-SW 196 ° 1 min 77 W/m² 12,2 °C 12,5 °C 11,3 km/h (2 Bft)
04.10.2025 16:06 20,7 °C 13,6 °C 58 % 91 % 997,7 hPa 0,0 l/m² 7,7 km/h (2 Bft) S 186 ° 1 min 77 W/m² 12,2 °C 12,8 °C 9,7 km/h (2 Bft)
04.10.2025 16:07 20,7 °C 13,6 °C 58 % 91 % 997,6 hPa 0,0 l/m² 7,1 km/h (2 Bft) S 186 ° 1 min 67 W/m² 12,2 °C 13,2 °C 9,7 km/h (2 Bft)
04.10.2025 16:08 20,7 °C 13,6 °C 58 % 91 % 997,6 hPa 0,0 l/m² 7,7 km/h (2 Bft) S 180 ° 1 min 62 W/m² 12,2 °C 12,8 °C 9,7 km/h (2 Bft)
04.10.2025 16:09 20,7 °C 13,6 °C 58 % 91 % 997,7 hPa 0,0 l/m² 6,8 km/h (2 Bft) S 185 ° 1 min 56 W/m² 12,2 °C 13,4 °C 8,0 km/h (2 Bft)
04.10.2025 16:10 20,7 °C 13,6 °C 58 % 91 % 997,7 hPa 0,2 l/m² 7,6 km/h (2 Bft) S-SW 194 ° 1 min 54 W/m² 12,2 °C 12,9 °C 9,7 km/h (2 Bft)
04.10.2025 16:11 20,7 °C 13,6 °C 58 % 91 % 997,8 hPa 0,0 l/m² 8,6 km/h (2 Bft) S-SW 192 ° 1 min 54 W/m² 12,2 °C 12,3 °C 11,3 km/h (2 Bft)
04.10.2025 16:12 20,7 °C 13,6 °C 58 % 91 % 997,8 hPa 0,0 l/m² 7,6 km/h (2 Bft) S-SW 194 ° 0 min 51 W/m² 12,2 °C 12,9 °C 9,7 km/h (2 Bft)
04.10.2025 16:13 20,7 °C 13,6 °C 58 % 91 % 997,8 hPa 0,0 l/m² 7,4 km/h (2 Bft) S 179 ° 0 min 46 W/m² 12,2 °C 13,0 °C 8,0 km/h (2 Bft)
04.10.2025 16:14 20,8 °C 13,5 °C 58 % 91 % 997,8 hPa 0,0 l/m² 8,2 km/h (2 Bft) S-SW 201 ° 0 min 42 W/m² 12,1 °C 12,4 °C 11,3 km/h (2 Bft)
04.10.2025 16:15 20,7 °C 13,6 °C 58 % 91 % 997,9 hPa 0,0 l/m² 8,3 km/h (2 Bft) S-SW 201 ° 0 min 39 W/m² 12,2 °C 12,5 °C 9,7 km/h (2 Bft)
04.10.2025 16:16 20,7 °C 13,5 °C 58 % 91 % 997,9 hPa 0,0 l/m² 7,4 km/h (2 Bft) S 182 ° 0 min 39 W/m² 12,1 °C 12,9 °C 9,7 km/h (2 Bft)
04.10.2025 16:17 20,7 °C 13,5 °C 58 % 91 % 997,8 hPa 0,0 l/m² 6,7 km/h (2 Bft) S-SW 192 ° 0 min 35 W/m² 12,1 °C 13,3 °C 8,0 km/h (2 Bft)
04.10.2025 16:18 20,7 °C 13,5 °C 58 % 91 % 997,9 hPa 0,0 l/m² 5,8 km/h (2 Bft) S-SW 196 ° 0 min 32 W/m² 12,1 °C 13,5 °C 8,0 km/h (2 Bft)
04.10.2025 16:19 20,7 °C 13,5 °C 58 % 91 % 998,0 hPa 0,0 l/m² 5,7 km/h (2 Bft) S-SW 201 ° 0 min 32 W/m² 12,1 °C 13,5 °C 8,0 km/h (2 Bft)
04.10.2025 16:20 20,7 °C 13,4 °C 58 % 91 % 998,0 hPa 0,0 l/m² 9,6 km/h (2 Bft) SW 215 ° 0 min 32 W/m² 12,0 °C 11,6 °C 11,3 km/h (2 Bft)
04.10.2025 16:21 20,7 °C 13,4 °C 58 % 91 % 997,9 hPa 0,0 l/m² 9,2 km/h (2 Bft) SW 218 ° 0 min 39 W/m² 12,0 °C 11,8 °C 11,3 km/h (2 Bft)
04.10.2025 16:22 20,8 °C 13,4 °C 58 % 91 % 997,9 hPa 0,0 l/m² 8,4 km/h (2 Bft) S-SW 213 ° 0 min 33 W/m² 12,0 °C 12,2 °C 9,7 km/h (2 Bft)
04.10.2025 16:23 20,8 °C 13,4 °C 58 % 91 % 998,0 hPa 0,0 l/m² 7,4 km/h (2 Bft) SW 221 ° 0 min 26 W/m² 12,0 °C 12,8 °C 8,0 km/h (2 Bft)
04.10.2025 16:24 20,7 °C 13,4 °C 58 % 91 % 997,9 hPa 0,0 l/m² 7,8 km/h (2 Bft) S-SW 211 ° 0 min 23 W/m² 12,0 °C 12,5 °C 9,7 km/h (2 Bft)
04.10.2025 16:25 20,8 °C 13,4 °C 58 % 91 % 998,0 hPa 0,0 l/m² 10,1 km/h (2 Bft) SW 214 ° 0 min 21 W/m² 12,0 °C 11,3 °C 12,9 km/h (3 Bft)
04.10.2025 16:26 20,8 °C 13,4 °C 58 % 91 % 998,0 hPa 0,0 l/m² 6,9 km/h (2 Bft) S-SW 200 ° 0 min 28 W/m² 12,0 °C 13,1 °C 9,7 km/h (2 Bft)
04.10.2025 16:27 20,8 °C 13,4 °C 58 % 91 % 997,9 hPa 0,0 l/m² 7,6 km/h (2 Bft) S-SW 210 ° 0 min 40 W/m² 12,0 °C 12,7 °C 11,3 km/h (2 Bft)
04.10.2025 16:28 20,8 °C 13,4 °C 58 % 91 % 997,8 hPa 0,0 l/m² 7,4 km/h (2 Bft) S-SW 198 ° 0 min 42 W/m² 12,0 °C 12,8 °C 11,3 km/h (2 Bft)
04.10.2025 16:29 20,8 °C 13,4 °C 58 % 91 % 997,8 hPa 0,0 l/m² 6,3 km/h (2 Bft) S-SW 212 ° 0 min 42 W/m² 12,0 °C 13,4 °C 11,3 km/h (2 Bft)
04.10.2025 16:30 20,8 °C 13,4 °C 58 % 91 % 997,8 hPa 0,0 l/m² 8,6 km/h (2 Bft) S-SW 211 ° 0 min 42 W/m² 12,0 °C 12,1 °C 11,3 km/h (2 Bft)
04.10.2025 16:31 20,7 °C 13,4 °C 58 % 91 % 997,9 hPa 0,0 l/m² 7,8 km/h (2 Bft) S-SW 196 ° 0 min 40 W/m² 12,0 °C 12,5 °C 11,3 km/h (2 Bft)
04.10.2025 16:32 20,8 °C 13,4 °C 58 % 91 % 997,9 hPa 0,0 l/m² 9,1 km/h (2 Bft) S-SW 202 ° 0 min 28 W/m² 12,0 °C 11,8 °C 11,3 km/h (2 Bft)
04.10.2025 16:33 20,7 °C 13,4 °C 58 % 91 % 998,0 hPa 0,0 l/m² 7,5 km/h (2 Bft) S-SW 210 ° 0 min 30 W/m² 12,0 °C 12,7 °C 9,7 km/h (2 Bft)
04.10.2025 16:34 20,8 °C 13,4 °C 58 % 91 % 997,9 hPa 0,0 l/m² 6,4 km/h (2 Bft) S-SW 202 ° 0 min 40 W/m² 12,0 °C 13,4 °C 9,7 km/h (2 Bft)
04.10.2025 16:35 20,8 °C 13,3 °C 58 % 91 % 997,9 hPa 0,0 l/m² 6,4 km/h (2 Bft) S 186 ° 0 min 39 W/m² 11,9 °C 13,3 °C 8,0 km/h (2 Bft)
04.10.2025 16:36 20,8 °C 13,4 °C 58 % 91 % 997,7 hPa 0,0 l/m² 10,9 km/h (2 Bft) S-SW 207 ° 0 min 35 W/m² 12,0 °C 10,9 °C 16,1 km/h (3 Bft)
04.10.2025 16:37 20,8 °C 13,3 °C 58 % 91 % 997,7 hPa 0,0 l/m² 10,7 km/h (2 Bft) S-SW 209 ° 0 min 42 W/m² 11,9 °C 10,9 °C 12,9 km/h (3 Bft)
04.10.2025 16:38 20,8 °C 13,3 °C 58 % 91 % 997,7 hPa 0,0 l/m² 13,0 km/h (3 Bft) S-SW 203 ° 0 min 42 W/m² 11,9 °C 9,9 °C 16,1 km/h (3 Bft)
04.10.2025 16:39 20,8 °C 13,3 °C 58 % 91 % 997,7 hPa 0,0 l/m² 11,4 km/h (2 Bft) S-SW 197 ° 0 min 39 W/m² 11,9 °C 10,6 °C 14,5 km/h (3 Bft)
04.10.2025 16:40 20,8 °C 13,3 °C 58 % 91 % 997,8 hPa 0,0 l/m² 11,3 km/h (2 Bft) SW 214 ° 0 min 32 W/m² 11,9 °C 10,6 °C 14,5 km/h (3 Bft)
04.10.2025 16:41 20,8 °C 13,3 °C 58 % 91 % 997,8 hPa 0,0 l/m² 9,8 km/h (2 Bft) S 181 ° 0 min 35 W/m² 11,9 °C 11,3 °C 12,9 km/h (3 Bft)
04.10.2025 16:42 20,8 °C 13,3 °C 58 % 91 % 997,8 hPa 0,0 l/m² 9,4 km/h (2 Bft) SW 218 ° 0 min 39 W/m² 11,9 °C 11,5 °C 11,3 km/h (2 Bft)
04.10.2025 16:43 20,8 °C 13,3 °C 58 % 91 % 997,8 hPa 0,2 l/m² 13,3 km/h (3 Bft) SW 215 ° 0 min 37 W/m² 11,9 °C 9,8 °C 17,7 km/h (3 Bft)
04.10.2025 16:44 20,8 °C 13,3 °C 58 % 91 % 997,9 hPa 0,0 l/m² 15,7 km/h (3 Bft) S-SW 208 ° 0 min 39 W/m² 11,9 °C 8,9 °C 17,7 km/h (3 Bft)
04.10.2025 16:45 20,8 °C 13,3 °C 58 % 91 % 997,9 hPa 0,0 l/m² 14,0 km/h (3 Bft) SW 214 ° 0 min 40 W/m² 11,9 °C 9,5 °C 16,1 km/h (3 Bft)
04.10.2025 16:46 20,8 °C 13,3 °C 58 % 91 % 997,9 hPa 0,0 l/m² 12,9 km/h (3 Bft) S-SW 213 ° 0 min 42 W/m² 11,9 °C 9,9 °C 16,1 km/h (3 Bft)
04.10.2025 16:47 20,8 °C 13,2 °C 58 % 91 % 997,8 hPa 0,0 l/m² 15,0 km/h (3 Bft) S-SW 194 ° 0 min 39 W/m² 11,8 °C 9,0 °C 16,1 km/h (3 Bft)
04.10.2025 16:48 20,8 °C 13,2 °C 58 % 91 % 997,6 hPa 0,0 l/m² 14,3 km/h (3 Bft) S 188 ° 0 min 35 W/m² 11,8 °C 9,3 °C 17,7 km/h (3 Bft)
04.10.2025 16:49 20,8 °C 13,2 °C 58 % 91 % 997,4 hPa 0,0 l/m² 11,9 km/h (2 Bft) S 180 ° 0 min 32 W/m² 11,8 °C 10,2 °C 16,1 km/h (3 Bft)
04.10.2025 16:50 20,8 °C 13,2 °C 58 % 91 % 997,3 hPa 0,0 l/m² 11,8 km/h (2 Bft) S 175 ° 0 min 35 W/m² 11,8 °C 10,3 °C 16,1 km/h (3 Bft)
04.10.2025 16:51 20,8 °C 13,2 °C 58 % 91 % 997,0 hPa 0,0 l/m² 10,2 km/h (2 Bft) S-SO 155 ° 0 min 35 W/m² 11,8 °C 11,0 °C 14,5 km/h (3 Bft)
04.10.2025 16:52 20,8 °C 13,2 °C 58 % 91 % 996,6 hPa 0,0 l/m² 9,5 km/h (2 Bft) SO 143 ° 0 min 32 W/m² 11,8 °C 11,4 °C 14,5 km/h (3 Bft)
04.10.2025 16:53 20,8 °C 13,2 °C 58 % 91 % 996,3 hPa 0,0 l/m² 7,6 km/h (2 Bft) SO 144 ° 0 min 32 W/m² 11,8 °C 12,5 °C 11,3 km/h (2 Bft)
04.10.2025 16:54 20,8 °C 13,2 °C 58 % 91 % 996,4 hPa 0,0 l/m² 11,2 km/h (2 Bft) S 172 ° 0 min 30 W/m² 11,8 °C 10,6 °C 16,1 km/h (3 Bft)
04.10.2025 16:55 20,7 °C 13,1 °C 58 % 91 % 996,5 hPa 0,0 l/m² 12,2 km/h (2 Bft) S 176 ° 0 min 28 W/m² 11,7 °C 10,0 °C 16,1 km/h (3 Bft)
04.10.2025 16:56 20,8 °C 13,1 °C 58 % 91 % 996,6 hPa 0,0 l/m² 11,7 km/h (2 Bft) SO 143 ° 0 min 25 W/m² 11,7 °C 10,2 °C 17,7 km/h (3 Bft)
04.10.2025 16:57 20,8 °C 13,1 °C 58 % 91 % 996,6 hPa 0,0 l/m² 12,7 km/h (3 Bft) S-SO 165 ° 0 min 26 W/m² 11,7 °C 9,8 °C 17,7 km/h (3 Bft)
04.10.2025 16:58 20,8 °C 13,1 °C 58 % 91 % 996,5 hPa 0,0 l/m² 10,1 km/h (2 Bft) S-SO 156 ° 0 min 26 W/m² 11,7 °C 11,0 °C 12,9 km/h (3 Bft)
04.10.2025 16:59 20,8 °C 13,1 °C 58 % 91 % 996,6 hPa 0,0 l/m² 9,5 km/h (2 Bft) S 179 ° 0 min 26 W/m² 11,7 °C 11,3 °C 14,5 km/h (3 Bft)
04.10.2025 17:00 20,8 °C 13,1 °C 58 % 91 % 996,6 hPa 0,0 l/m² 10,2 km/h (2 Bft) S 184 ° 0 min 26 W/m² 11,7 °C 10,9 °C 14,5 km/h (3 Bft)
04.10.2025 17:01 20,8 °C 13,1 °C 58 % 91 % 996,6 hPa 0,0 l/m² 10,9 km/h (2 Bft) S-SO 163 ° 0 min 26 W/m² 11,7 °C 10,6 °C 16,1 km/h (3 Bft)
04.10.2025 17:02 20,7 °C 13,1 °C 58 % 91 % 996,5 hPa 0,0 l/m² 9,1 km/h (2 Bft) S-SO 163 ° 0 min 26 W/m² 11,7 °C 11,5 °C 12,9 km/h (3 Bft)
04.10.2025 17:03 20,7 °C 13,0 °C 58 % 91 % 996,5 hPa 0,0 l/m² 8,2 km/h (2 Bft) S-SO 159 ° 0 min 26 W/m² 11,6 °C 11,9 °C 11,3 km/h (2 Bft)
04.10.2025 17:04 20,8 °C 13,0 °C 58 % 91 % 996,5 hPa 0,0 l/m² 8,5 km/h (2 Bft) S-SO 159 ° 0 min 26 W/m² 11,6 °C 11,7 °C 12,9 km/h (3 Bft)
04.10.2025 17:05 20,8 °C 13,0 °C 58 % 91 % 996,6 hPa 0,0 l/m² 9,5 km/h (2 Bft) S 173 ° 0 min 26 W/m² 11,6 °C 11,2 °C 12,9 km/h (3 Bft)
04.10.2025 17:06 20,8 °C 13,0 °C 58 % 91 % 996,6 hPa 0,0 l/m² 9,2 km/h (2 Bft) S-SO 154 ° 0 min 25 W/m² 11,6 °C 11,3 °C 12,9 km/h (3 Bft)
04.10.2025 17:07 20,8 °C 13,0 °C 58 % 91 % 996,7 hPa 0,0 l/m² 7,4 km/h (2 Bft) S-SO 160 ° 0 min 23 W/m² 11,6 °C 12,4 °C 9,7 km/h (2 Bft)
04.10.2025 17:08 20,7 °C 12,9 °C 58 % 91 % 996,8 hPa 0,0 l/m² 6,3 km/h (2 Bft) S-SW 198 ° 0 min 21 W/m² 11,5 °C 12,9 °C 8,0 km/h (2 Bft)
04.10.2025 17:09 20,7 °C 12,9 °C 58 % 91 % 997,1 hPa 0,0 l/m² 8,4 km/h (2 Bft) S-SW 209 ° 0 min 23 W/m² 11,5 °C 11,7 °C 9,7 km/h (2 Bft)
04.10.2025 17:10 20,7 °C 12,9 °C 58 % 91 % 997,3 hPa 0,0 l/m² 10,2 km/h (2 Bft) SW 219 ° 0 min 23 W/m² 11,5 °C 10,7 °C 12,9 km/h (3 Bft)
04.10.2025 17:11 20,8 °C 12,9 °C 58 % 91 % 997,4 hPa 0,0 l/m² 8,1 km/h (2 Bft) SW 229 ° 0 min 23 W/m² 11,5 °C 11,8 °C 11,3 km/h (2 Bft)
04.10.2025 17:12 20,8 °C 12,9 °C 58 % 91 % 997,5 hPa 0,0 l/m² 9,2 km/h (2 Bft) W-SW 244 ° 0 min 23 W/m² 11,5 °C 11,2 °C 12,9 km/h (3 Bft)
04.10.2025 17:13 20,8 °C 12,9 °C 58 % 91 % 997,6 hPa 0,0 l/m² 10,3 km/h (2 Bft) W-SW 245 ° 0 min 23 W/m² 11,5 °C 10,6 °C 14,5 km/h (3 Bft)
04.10.2025 17:14 20,7 °C 12,9 °C 58 % 91 % 997,6 hPa 0,0 l/m² 12,2 km/h (2 Bft) W-SW 248 ° 0 min 23 W/m² 11,5 °C 9,8 °C 16,1 km/h (3 Bft)
04.10.2025 17:15 20,8 °C 12,9 °C 58 % 91 % 997,6 hPa 0,0 l/m² 13,0 km/h (3 Bft) SW 220 ° 0 min 23 W/m² 11,5 °C 9,4 °C 16,1 km/h (3 Bft)
04.10.2025 17:16 20,8 °C 12,9 °C 58 % 91 % 997,5 hPa 0,0 l/m² 9,4 km/h (2 Bft) SW 229 ° 0 min 23 W/m² 11,5 °C 11,1 °C 16,1 km/h (3 Bft)
04.10.2025 17:17 20,8 °C 12,9 °C 58 % 91 % 997,5 hPa 0,0 l/m² 11,9 km/h (2 Bft) SW 223 ° 0 min 23 W/m² 11,5 °C 9,9 °C 14,5 km/h (3 Bft)
04.10.2025 17:18 20,7 °C 12,9 °C 58 % 91 % 997,5 hPa 0,0 l/m² 12,0 km/h (2 Bft) SW 215 ° 0 min 23 W/m² 11,5 °C 9,9 °C 14,5 km/h (3 Bft)
04.10.2025 17:19 20,8 °C 12,9 °C 58 % 91 % 997,7 hPa 0,0 l/m² 15,8 km/h (3 Bft) SW 218 ° 0 min 19 W/m² 11,5 °C 8,4 °C 19,3 km/h (3 Bft)
04.10.2025 17:20 20,8 °C 12,9 °C 58 % 91 % 997,9 hPa 0,0 l/m² 14,8 km/h (3 Bft) SW 219 ° 0 min 14 W/m² 11,5 °C 8,7 °C 17,7 km/h (3 Bft)
04.10.2025 17:21 20,8 °C 12,9 °C 58 % 91 % 998,0 hPa 0,0 l/m² 15,0 km/h (3 Bft) S-SW 210 ° 0 min 12 W/m² 11,5 °C 8,6 °C 20,9 km/h (4 Bft)
04.10.2025 17:22 20,8 °C 12,8 °C 58 % 91 % 998,0 hPa 0,0 l/m² 15,0 km/h (3 Bft) SW 225 ° 0 min 12 W/m² 11,4 °C 8,5 °C 17,7 km/h (3 Bft)
04.10.2025 17:23 20,7 °C 12,8 °C 58 % 90 % 998,0 hPa 0,0 l/m² 17,0 km/h (3 Bft) SW 227 ° 0 min 12 W/m² 11,2 °C 7,8 °C 20,9 km/h (4 Bft)
04.10.2025 17:24 20,8 °C 12,8 °C 58 % 91 % 998,2 hPa 0,0 l/m² 17,6 km/h (3 Bft) S-SW 203 ° 0 min 11 W/m² 11,4 °C 7,6 °C 19,3 km/h (3 Bft)
04.10.2025 17:25 20,8 °C 12,8 °C 58 % 90 % 998,1 hPa 0,0 l/m² 13,5 km/h (3 Bft) S-SW 205 ° 0 min 9 W/m² 11,2 °C 9,1 °C 16,1 km/h (3 Bft)
04.10.2025 17:26 20,8 °C 12,8 °C 58 % 90 % 998,1 hPa 0,0 l/m² 15,6 km/h (3 Bft) SW 215 ° 0 min 7 W/m² 11,2 °C 8,3 °C 17,7 km/h (3 Bft)
04.10.2025 17:27 20,8 °C 12,8 °C 58 % 90 % 998,1 hPa 0,0 l/m² 13,9 km/h (3 Bft) SW 225 ° 0 min 7 W/m² 11,2 °C 8,9 °C 19,3 km/h (3 Bft)
04.10.2025 17:28 20,8 °C 12,7 °C 58 % 90 % 997,9 hPa 0,0 l/m² 13,6 km/h (3 Bft) SW 228 ° 0 min 7 W/m² 11,1 °C 8,9 °C 19,3 km/h (3 Bft)
04.10.2025 17:29 20,8 °C 12,7 °C 58 % 90 % 997,9 hPa 0,0 l/m² 12,8 km/h (3 Bft) S-SW 207 ° 0 min 5 W/m² 11,1 °C 9,3 °C 17,7 km/h (3 Bft)
04.10.2025 17:30 20,8 °C 12,8 °C 58 % 90 % 997,8 hPa 0,0 l/m² 12,2 km/h (2 Bft) SW 219 ° 0 min 7 W/m² 11,2 °C 9,7 °C 17,7 km/h (3 Bft)
04.10.2025 17:31 20,8 °C 12,7 °C 58 % 90 % 997,8 hPa 0,0 l/m² 11,6 km/h (2 Bft) SW 222 ° 0 min 11 W/m² 11,1 °C 9,8 °C 14,5 km/h (3 Bft)
04.10.2025 17:32 20,8 °C 12,7 °C 58 % 90 % 997,8 hPa 0,0 l/m² 14,7 km/h (3 Bft) SW 232 ° 0 min 11 W/m² 11,1 °C 8,5 °C 19,3 km/h (3 Bft)
04.10.2025 17:33 20,8 °C 12,7 °C 58 % 90 % 997,8 hPa 0,0 l/m² 13,2 km/h (3 Bft) SW 227 ° 0 min 12 W/m² 11,1 °C 9,1 °C 19,3 km/h (3 Bft)
04.10.2025 17:34 20,8 °C 12,7 °C 58 % 90 % 997,9 hPa 0,0 l/m² 10,9 km/h (2 Bft) SW 226 ° 0 min 14 W/m² 11,1 °C 10,1 °C 16,1 km/h (3 Bft)
04.10.2025 17:35 20,8 °C 12,7 °C 58 % 90 % 998,0 hPa 0,0 l/m² 16,9 km/h (3 Bft) SW 228 ° 0 min 14 W/m² 11,1 °C 7,7 °C 22,5 km/h (4 Bft)
04.10.2025 17:36 20,8 °C 12,7 °C 58 % 90 % 997,9 hPa 0,0 l/m² 15,0 km/h (3 Bft) S-SW 207 ° 0 min 12 W/m² 11,1 °C 8,4 °C 19,3 km/h (3 Bft)
04.10.2025 17:37 20,8 °C 12,7 °C 58 % 90 % 998,0 hPa 0,0 l/m² 13,9 km/h (3 Bft) SW 222 ° 0 min 12 W/m² 11,1 °C 8,8 °C 17,7 km/h (3 Bft)
04.10.2025 17:38 20,8 °C 12,7 °C 58 % 90 % 998,1 hPa 0,0 l/m² 15,7 km/h (3 Bft) W-SW 249 ° 0 min 12 W/m² 11,1 °C 8,2 °C 19,3 km/h (3 Bft)
04.10.2025 17:39 20,7 °C 12,7 °C 58 % 90 % 998,1 hPa 0,0 l/m² 12,3 km/h (2 Bft) SW 214 ° 0 min 14 W/m² 11,1 °C 9,5 °C 17,7 km/h (3 Bft)
04.10.2025 17:40 20,8 °C 12,7 °C 58 % 90 % 998,1 hPa 0,0 l/m² 14,7 km/h (3 Bft) SW 217 ° 0 min 14 W/m² 11,1 °C 8,5 °C 19,3 km/h (3 Bft)
04.10.2025 17:41 20,7 °C 12,7 °C 58 % 90 % 998,1 hPa 0,0 l/m² 16,0 km/h (3 Bft) SW 227 ° 0 min 16 W/m² 11,1 °C 8,0 °C 19,3 km/h (3 Bft)
04.10.2025 17:42 20,8 °C 12,7 °C 58 % 90 % 998,2 hPa 0,0 l/m² 15,5 km/h (3 Bft) SW 222 ° 0 min 14 W/m² 11,1 °C 8,2 °C 22,5 km/h (4 Bft)
04.10.2025 17:43 20,8 °C 12,6 °C 58 % 90 % 998,2 hPa 0,0 l/m² 15,2 km/h (3 Bft) SW 225 ° 0 min 14 W/m² 11,0 °C 8,2 °C 20,9 km/h (4 Bft)
04.10.2025 17:44 20,7 °C 12,7 °C 58 % 90 % 998,1 hPa 0,0 l/m² 15,7 km/h (3 Bft) W-SW 241 ° 0 min 14 W/m² 11,1 °C 8,2 °C 25,7 km/h (4 Bft)
04.10.2025 17:45 20,8 °C 12,6 °C 58 % 90 % 998,1 hPa 0,0 l/m² 21,6 km/h (4 Bft) SW 232 ° 0 min 16 W/m² 11,0 °C 6,2 °C 27,4 km/h (5 Bft)
04.10.2025 17:46 20,8 °C 12,6 °C 58 % 90 % 998,2 hPa 0,0 l/m² 19,7 km/h (3 Bft) SW 227 ° 0 min 14 W/m² 11,0 °C 6,7 °C 25,7 km/h (4 Bft)
04.10.2025 17:47 20,8 °C 12,6 °C 58 % 89 % 998,2 hPa 0,0 l/m² 17,8 km/h (3 Bft) SW 222 ° 0 min 12 W/m² 10,8 °C 7,3 °C 24,1 km/h (4 Bft)
04.10.2025 17:48 20,8 °C 12,6 °C 58 % 89 % 998,2 hPa 0,0 l/m² 17,7 km/h (3 Bft) W-SW 246 ° 0 min 12 W/m² 10,8 °C 7,3 °C 24,1 km/h (4 Bft)
04.10.2025 17:49 20,8 °C 12,6 °C 58 % 89 % 998,3 hPa 0,0 l/m² 14,8 km/h (3 Bft) W 267 ° 0 min 11 W/m² 10,8 °C 8,4 °C 20,9 km/h (4 Bft)
04.10.2025 17:50 20,8 °C 12,5 °C 58 % 89 % 998,3 hPa 0,0 l/m² 12,1 km/h (2 Bft) W-SW 250 ° 0 min 9 W/m² 10,7 °C 9,3 °C 19,3 km/h (3 Bft)
04.10.2025 17:51 20,7 °C 12,5 °C 58 % 89 % 998,3 hPa 0,0 l/m² 14,9 km/h (3 Bft) W-SW 247 ° 0 min 7 W/m² 10,7 °C 8,2 °C 25,7 km/h (4 Bft)
04.10.2025 17:52 20,8 °C 12,5 °C 58 % 89 % 998,3 hPa 0,0 l/m² 13,5 km/h (3 Bft) W-SW 255 ° 0 min 7 W/m² 10,7 °C 8,8 °C 22,5 km/h (4 Bft)
04.10.2025 17:53 20,7 °C 12,5 °C 58 % 89 % 998,3 hPa 0,0 l/m² 10,2 km/h (2 Bft) W-SW 254 ° 0 min 7 W/m² 10,7 °C 10,3 °C 17,7 km/h (3 Bft)
04.10.2025 17:54 20,8 °C 12,5 °C 58 % 89 % 998,3 hPa 0,0 l/m² 13,0 km/h (3 Bft) W-NW 286 ° 0 min 7 W/m² 10,7 °C 9,0 °C 19,3 km/h (3 Bft)
04.10.2025 17:55 20,8 °C 12,5 °C 58 % 89 % 998,3 hPa 0,0 l/m² 11,9 km/h (2 Bft) N-NW 333 ° 0 min 5 W/m² 10,7 °C 9,4 °C 19,3 km/h (3 Bft)
04.10.2025 17:56 20,8 °C 12,5 °C 58 % 89 % 998,4 hPa 0,2 l/m² 13,8 km/h (3 Bft) W 269 ° 0 min 5 W/m² 10,7 °C 8,6 °C 25,7 km/h (4 Bft)
04.10.2025 17:57 20,7 °C 12,4 °C 58 % 89 % 998,5 hPa 0,4 l/m² 13,5 km/h (3 Bft) W 275 ° 0 min 7 W/m² 10,6 °C 8,6 °C 20,9 km/h (4 Bft)
04.10.2025 17:58 20,8 °C 12,4 °C 58 % 89 % 998,7 hPa 0,0 l/m² 19,4 km/h (3 Bft) SW 235 ° 0 min 11 W/m² 10,6 °C 6,6 °C 40,2 km/h (6 Bft)
04.10.2025 17:59 20,7 °C 12,4 °C 58 % 89 % 998,8 hPa 0,0 l/m² 33,7 km/h (5 Bft) W 263 ° 0 min 14 W/m² 10,6 °C 3,4 °C 43,5 km/h (6 Bft)
04.10.2025 18:00 20,8 °C 12,3 °C 58 % 89 % 998,6 hPa 0,0 l/m² 24,0 km/h (4 Bft) SW 229 ° 0 min 21 W/m² 10,5 °C 5,2 °C 37,0 km/h (5 Bft)
04.10.2025 18:01 20,8 °C 12,3 °C 58 % 89 % 998,7 hPa 0,2 l/m² 26,1 km/h (4 Bft) W-SW 254 ° 0 min 28 W/m² 10,5 °C 4,7 °C 32,2 km/h (5 Bft)
04.10.2025 18:02 20,8 °C 12,2 °C 58 % 89 % 998,7 hPa 0,0 l/m² 26,0 km/h (4 Bft) W 264 ° 0 min 37 W/m² 10,4 °C 4,6 °C 37,0 km/h (5 Bft)
04.10.2025 18:03 20,7 °C 12,2 °C 58 % 89 % 998,5 hPa 0,0 l/m² 20,0 km/h (4 Bft) W-SW 250 ° 0 min 46 W/m² 10,4 °C 6,1 °C 33,8 km/h (5 Bft)
04.10.2025 18:04 20,8 °C 12,1 °C 58 % 89 % 998,5 hPa 0,2 l/m² 16,5 km/h (3 Bft) W 277 ° 1 min 54 W/m² 10,3 °C 7,1 °C 22,5 km/h (4 Bft)
04.10.2025 18:05 20,8 °C 12,1 °C 58 % 89 % 998,4 hPa 0,0 l/m² 14,8 km/h (3 Bft) W-SW 253 ° 1 min 60 W/m² 10,3 °C 7,8 °C 24,1 km/h (4 Bft)
04.10.2025 18:06 20,8 °C 12,1 °C 58 % 89 % 998,4 hPa 0,0 l/m² 15,7 km/h (3 Bft) W 263 ° 1 min 60 W/m² 10,3 °C 7,4 °C 20,9 km/h (4 Bft)
04.10.2025 18:07 20,8 °C 12,1 °C 58 % 89 % 998,4 hPa 0,0 l/m² 11,9 km/h (2 Bft) W-SW 248 ° 1 min 67 W/m² 10,3 °C 9,0 °C 17,7 km/h (3 Bft)
04.10.2025 18:08 20,8 °C 12,1 °C 58 % 89 % 998,4 hPa 0,0 l/m² 12,0 km/h (2 Bft) W-NW 282 ° 1 min 76 W/m² 10,3 °C 8,9 °C 17,7 km/h (3 Bft)
04.10.2025 18:09 20,7 °C 12,1 °C 58 % 89 % 998,4 hPa 0,0 l/m² 9,3 km/h (2 Bft) W-SW 238 ° 1 min 84 W/m² 10,3 °C 10,3 °C 14,5 km/h (3 Bft)
04.10.2025 18:10 20,7 °C 12,0 °C 58 % 89 % 998,4 hPa 0,0 l/m² 12,5 km/h (2 Bft) W-SW 258 ° 1 min 88 W/m² 10,2 °C 8,6 °C 17,7 km/h (3 Bft)
04.10.2025 18:11 20,8 °C 12,0 °C 58 % 89 % 998,3 hPa 0,0 l/m² 13,0 km/h (3 Bft) W-SW 252 ° 1 min 90 W/m² 10,2 °C 8,4 °C 17,7 km/h (3 Bft)
04.10.2025 18:12 20,7 °C 12,0 °C 58 % 89 % 998,3 hPa 0,0 l/m² 12,2 km/h (2 Bft) W 259 ° 1 min 88 W/m² 10,2 °C 8,7 °C 19,3 km/h (3 Bft)
04.10.2025 18:13 20,8 °C 12,0 °C 58 % 89 % 998,3 hPa 0,0 l/m² 8,2 km/h (2 Bft) W-SW 254 ° 1 min 90 W/m² 10,2 °C 10,8 °C 16,1 km/h (3 Bft)
04.10.2025 18:14 20,8 °C 12,0 °C 58 % 89 % 998,4 hPa 0,0 l/m² 12,2 km/h (2 Bft) W-NW 284 ° 1 min 64 W/m² 10,2 °C 8,7 °C 22,5 km/h (4 Bft)
04.10.2025 18:15 20,8 °C 12,0 °C 58 % 89 % 998,4 hPa 0,0 l/m² 10,5 km/h (2 Bft) W-SW 250 ° 1 min 62 W/m² 10,2 °C 9,5 °C 14,5 km/h (3 Bft)
04.10.2025 18:16 20,7 °C 12,0 °C 58 % 89 % 998,4 hPa 0,0 l/m² 10,9 km/h (2 Bft) W-SW 253 ° 1 min 59 W/m² 10,2 °C 9,3 °C 14,5 km/h (3 Bft)
04.10.2025 18:17 20,7 °C 11,9 °C 58 % 89 % 998,4 hPa 0,0 l/m² 8,2 km/h (2 Bft) W 264 ° 1 min 56 W/m² 10,1 °C 10,7 °C 12,9 km/h (3 Bft)
04.10.2025 18:18 20,7 °C 11,9 °C 58 % 89 % 998,4 hPa 0,0 l/m² 10,4 km/h (2 Bft) W-SW 242 ° 1 min 65 W/m² 10,1 °C 9,5 °C 16,1 km/h (3 Bft)
04.10.2025 18:19 20,8 °C 12,0 °C 58 % 89 % 998,3 hPa 0,0 l/m² 7,9 km/h (2 Bft) W-SW 252 ° 1 min 60 W/m² 10,2 °C 11,0 °C 12,9 km/h (3 Bft)
04.10.2025 18:20 20,8 °C 11,9 °C 58 % 89 % 998,4 hPa 0,0 l/m² 6,2 km/h (2 Bft) SW 234 ° 1 min 53 W/m² 10,1 °C 11,9 °C 9,7 km/h (2 Bft)
04.10.2025 18:21 20,7 °C 11,9 °C 58 % 89 % 998,3 hPa 0,0 l/m² 9,2 km/h (2 Bft) W 265 ° 0 min 47 W/m² 10,1 °C 10,1 °C 12,9 km/h (3 Bft)
04.10.2025 18:22 20,7 °C 11,9 °C 58 % 89 % 998,5 hPa 0,0 l/m² 7,0 km/h (2 Bft) W-SW 248 ° 0 min 42 W/m² 10,1 °C 11,5 °C 11,3 km/h (2 Bft)
04.10.2025 18:23 20,7 °C 11,9 °C 58 % 89 % 998,5 hPa 0,0 l/m² 8,8 km/h (2 Bft) W-SW 244 ° 0 min 42 W/m² 10,1 °C 10,4 °C 12,9 km/h (3 Bft)
04.10.2025 18:24 20,8 °C 11,9 °C 58 % 89 % 998,5 hPa 0,0 l/m² 9,4 km/h (2 Bft) SW 225 ° 0 min 35 W/m² 10,1 °C 10,0 °C 12,9 km/h (3 Bft)
04.10.2025 18:25 20,8 °C 11,9 °C 58 % 89 % 998,4 hPa 0,0 l/m² 9,2 km/h (2 Bft) W-SW 238 ° 0 min 28 W/m² 10,1 °C 10,1 °C 16,1 km/h (3 Bft)
04.10.2025 18:26 20,7 °C 11,9 °C 58 % 89 % 998,5 hPa 0,0 l/m² 12,7 km/h (3 Bft) W-SW 241 ° 0 min 23 W/m² 10,1 °C 8,4 °C 16,1 km/h (3 Bft)
04.10.2025 18:27 20,7 °C 11,9 °C 58 % 89 % 998,6 hPa 0,0 l/m² 7,1 km/h (2 Bft) W-SW 249 ° 0 min 19 W/m² 10,1 °C 11,4 °C 9,7 km/h (2 Bft)
04.10.2025 18:28 20,8 °C 11,9 °C 58 % 89 % 998,6 hPa 0,0 l/m² 8,6 km/h (2 Bft) SW 229 ° 0 min 18 W/m² 10,1 °C 10,5 °C 11,3 km/h (2 Bft)
04.10.2025 18:29 20,7 °C 11,9 °C 58 % 89 % 998,7 hPa 0,0 l/m² 6,6 km/h (2 Bft) W-SW 249 ° 0 min 18 W/m² 10,1 °C 11,8 °C 11,3 km/h (2 Bft)
04.10.2025 18:30 20,7 °C 11,8 °C 58 % 89 % 998,6 hPa 0,0 l/m² 8,3 km/h (2 Bft) SW 221 ° 0 min 14 W/m² 10,0 °C 10,6 °C 11,3 km/h (2 Bft)
04.10.2025 18:31 20,7 °C 11,8 °C 58 % 89 % 998,7 hPa 0,0 l/m² 6,4 km/h (2 Bft) SW 225 ° 0 min 12 W/m² 10,0 °C 11,8 °C 9,7 km/h (2 Bft)
04.10.2025 18:32 20,8 °C 11,8 °C 58 % 89 % 998,6 hPa 0,0 l/m² 7,2 km/h (2 Bft) W-SW 244 ° 0 min 11 W/m² 10,0 °C 11,3 °C 11,3 km/h (2 Bft)
04.10.2025 18:33 20,7 °C 11,8 °C 58 % 89 % 998,6 hPa 0,0 l/m² 9,8 km/h (2 Bft) SW 236 ° 0 min 9 W/m² 10,0 °C 9,7 °C 14,5 km/h (3 Bft)
04.10.2025 18:34 20,7 °C 11,7 °C 58 % 89 % 998,6 hPa 0,0 l/m² 7,8 km/h (2 Bft) SW 234 ° 0 min 9 W/m² 9,9 °C 10,8 °C 12,9 km/h (3 Bft)
04.10.2025 18:35 20,7 °C 11,7 °C 58 % 89 % 998,6 hPa 0,0 l/m² 10,5 km/h (2 Bft) SW 223 ° 0 min 7 W/m² 9,9 °C 9,2 °C 14,5 km/h (3 Bft)
04.10.2025 18:36 20,7 °C 11,7 °C 58 % 89 % 998,6 hPa 0,0 l/m² 7,6 km/h (2 Bft) SW 215 ° 0 min 7 W/m² 9,9 °C 10,9 °C 11,3 km/h (2 Bft)
04.10.2025 18:37 20,7 °C 11,7 °C 58 % 89 % 998,5 hPa 0,0 l/m² 6,2 km/h (2 Bft) SW 229 ° 0 min 5 W/m² 9,9 °C 11,7 °C 9,7 km/h (2 Bft)
04.10.2025 18:38 20,7 °C 11,7 °C 58 % 89 % 998,6 hPa 0,0 l/m² 9,9 km/h (2 Bft) SW 230 ° 0 min 5 W/m² 9,9 °C 9,5 °C 11,3 km/h (2 Bft)
04.10.2025 18:39 20,8 °C 11,6 °C 58 % 89 % 998,6 hPa 0,0 l/m² 9,1 km/h (2 Bft) SW 220 ° 0 min 5 W/m² 9,8 °C 9,9 °C 14,5 km/h (3 Bft)
04.10.2025 18:40 20,7 °C 11,6 °C 58 % 89 % 998,7 hPa 0,0 l/m² 6,6 km/h (2 Bft) SW 235 ° 0 min 5 W/m² 9,8 °C 11,5 °C 9,7 km/h (2 Bft)
04.10.2025 18:41 20,8 °C 11,6 °C 58 % 89 % 998,7 hPa 0,0 l/m² 6,2 km/h (2 Bft) SW 226 ° 0 min 0 W/m² 9,8 °C 11,6 °C 8,0 km/h (2 Bft)
04.10.2025 18:42 20,7 °C 11,6 °C 58 % 89 % 998,7 hPa 0,0 l/m² 6,4 km/h (2 Bft) W-SW 248 ° 0 min 0 W/m² 9,8 °C 11,6 °C 9,7 km/h (2 Bft)
04.10.2025 18:43 20,7 °C 11,5 °C 58 % 88 % 998,7 hPa 0,0 l/m² 6,6 km/h (2 Bft) W-SW 250 ° 0 min 0 W/m² 9,6 °C 11,4 °C 8,0 km/h (2 Bft)
04.10.2025 18:45 20,7 °C 11,4 °C 58 % 88 % 998,7 hPa 0,0 l/m² 7,8 km/h (2 Bft) SW 217 ° 0 min 0 W/m² 9,5 °C 10,5 °C 9,7 km/h (2 Bft)
04.10.2025 18:46 20,7 °C 11,4 °C 58 % 88 % 998,8 hPa 0,0 l/m² 7,0 km/h (2 Bft) SW 217 ° 0 min 0 W/m² 9,5 °C 11,0 °C 8,0 km/h (2 Bft)
04.10.2025 18:47 20,7 °C 11,4 °C 58 % 88 % 998,8 hPa 0,0 l/m² 6,0 km/h (2 Bft) S-SW 205 ° 0 min 0 W/m² 9,5 °C 11,4 °C 6,4 km/h (2 Bft)
04.10.2025 18:48 20,7 °C 11,3 °C 58 % 88 % 998,9 hPa 0,0 l/m² 5,8 km/h (2 Bft) S-SW 202 ° 0 min 0 W/m² 9,4 °C 11,3 °C 6,4 km/h (2 Bft)
04.10.2025 18:49 20,7 °C 11,3 °C 58 % 88 % 998,9 hPa 0,0 l/m² 5,7 km/h (2 Bft) S-SW 213 ° 0 min 0 W/m² 9,4 °C 11,3 °C 8,0 km/h (2 Bft)
04.10.2025 18:50 20,7 °C 11,3 °C 58 % 88 % 998,9 hPa 0,0 l/m² 5,1 km/h (1 Bft) S-SW 212 ° 0 min 0 W/m² 9,4 °C 11,3 °C 6,4 km/h (2 Bft)
04.10.2025 18:51 20,7 °C 11,3 °C 58 % 88 % 999,0 hPa 0,0 l/m² 6,4 km/h (2 Bft) S-SW 198 ° 0 min 0 W/m² 9,4 °C 11,3 °C 8,0 km/h (2 Bft)
04.10.2025 18:52 20,7 °C 11,3 °C 58 % 88 % 999,0 hPa 0,0 l/m² 4,7 km/h (1 Bft) S-SW 198 ° 0 min 0 W/m² 9,4 °C 11,3 °C 6,4 km/h (2 Bft)
04.10.2025 18:53 20,7 °C 11,2 °C 58 % 88 % 999,1 hPa 0,0 l/m² 4,6 km/h (1 Bft) S-SW 198 ° 0 min 0 W/m² 9,3 °C 11,2 °C 6,4 km/h (2 Bft)
04.10.2025 18:54 20,7 °C 11,2 °C 58 % 88 % 999,1 hPa 0,0 l/m² 3,9 km/h (1 Bft) S-SW 198 ° 0 min 0 W/m² 9,3 °C 11,2 °C 6,4 km/h (2 Bft)
04.10.2025 18:55 20,7 °C 11,2 °C 58 % 88 % 999,1 hPa 0,0 l/m² 3,4 km/h (1 Bft) S-SW 198 ° 0 min 0 W/m² 9,3 °C 11,2 °C 4,8 km/h (1 Bft)
04.10.2025 18:56 20,7 °C 11,2 °C 58 % 88 % 999,1 hPa 0,0 l/m² 5,7 km/h (2 Bft) S-SW 198 ° 0 min 0 W/m² 9,3 °C 11,2 °C 6,4 km/h (2 Bft)
04.10.2025 18:57 20,7 °C 11,2 °C 58 % 88 % 999,1 hPa 0,0 l/m² 5,3 km/h (1 Bft) S-SW 197 ° 0 min 0 W/m² 9,3 °C 11,2 °C 6,4 km/h (2 Bft)
04.10.2025 18:58 20,7 °C 11,2 °C 58 % 88 % 999,2 hPa 0,0 l/m² 5,5 km/h (2 Bft) S-SW 194 ° 0 min 0 W/m² 9,3 °C 11,2 °C 6,4 km/h (2 Bft)
04.10.2025 18:59 20,7 °C 11,1 °C 58 % 88 % 999,1 hPa 0,0 l/m² 4,9 km/h (1 Bft) S-SW 194 ° 0 min 0 W/m² 9,2 °C 11,1 °C 6,4 km/h (2 Bft)
04.10.2025 19:00 20,7 °C 11,1 °C 58 % 88 % 999,2 hPa 0,0 l/m² 5,6 km/h (2 Bft) S-SW 194 ° 0 min 0 W/m² 9,2 °C 11,1 °C 6,4 km/h (2 Bft)
04.10.2025 19:01 20,7 °C 11,1 °C 58 % 88 % 999,2 hPa 0,0 l/m² 4,7 km/h (1 Bft) S-SW 194 ° 0 min 0 W/m² 9,2 °C 11,1 °C 6,4 km/h (2 Bft)
04.10.2025 19:04 20,7 °C 11,0 °C 58 % 88 % 999,2 hPa 0,0 l/m² 4,3 km/h (1 Bft) S-SW 194 ° 0 min 0 W/m² 9,1 °C 11,0 °C 6,4 km/h (2 Bft)
04.10.2025 19:05 20,7 °C 11,0 °C 58 % 88 % 999,3 hPa 0,0 l/m² 3,0 km/h (1 Bft) S-SW 194 ° 0 min 0 W/m² 9,1 °C 11,0 °C 4,8 km/h (1 Bft)
04.10.2025 19:06 20,7 °C 10,9 °C 58 % 88 % 999,3 hPa 0,0 l/m² 3,0 km/h (1 Bft) S-SW 194 ° 0 min 0 W/m² 9,0 °C 10,9 °C 4,8 km/h (1 Bft)
04.10.2025 19:08 20,7 °C 10,9 °C 58 % 88 % 999,3 hPa 0,0 l/m² 3,6 km/h (1 Bft) S-SW 192 ° 0 min 0 W/m² 9,0 °C 10,9 °C 6,4 km/h (2 Bft)
04.10.2025 19:09 20,7 °C 10,9 °C 58 % 88 % 999,3 hPa 0,0 l/m² 2,9 km/h (1 Bft) S-SW 192 ° 0 min 0 W/m² 9,0 °C 10,9 °C 4,8 km/h (1 Bft)
04.10.2025 19:10 20,7 °C 10,8 °C 58 % 88 % 999,3 hPa 0,0 l/m² 2,9 km/h (1 Bft) S-SW 192 ° 0 min 0 W/m² 8,9 °C 10,8 °C 4,8 km/h (1 Bft)
04.10.2025 19:11 20,7 °C 10,8 °C 58 % 88 % 999,2 hPa 0,0 l/m² 4,0 km/h (1 Bft) S 190 ° 0 min 0 W/m² 8,9 °C 10,8 °C 4,8 km/h (1 Bft)
04.10.2025 19:13 20,7 °C 10,8 °C 58 % 88 % 999,4 hPa 0,0 l/m² 4,5 km/h (1 Bft) S-SO 163 ° 0 min 0 W/m² 8,9 °C 10,8 °C 8,0 km/h (2 Bft)
04.10.2025 19:14 20,7 °C 10,7 °C 58 % 88 % 999,4 hPa 0,0 l/m² 5,4 km/h (2 Bft) S-SO 165 ° 0 min 0 W/m² 8,8 °C 10,7 °C 8,0 km/h (2 Bft)
04.10.2025 19:15 20,7 °C 10,7 °C 58 % 87 % 999,4 hPa 0,0 l/m² 4,5 km/h (1 Bft) S 182 ° 0 min 0 W/m² 8,6 °C 10,7 °C 6,4 km/h (2 Bft)
04.10.2025 19:16 20,7 °C 10,7 °C 58 % 87 % 999,4 hPa 0,0 l/m² 3,2 km/h (1 Bft) S 180 ° 0 min 0 W/m² 8,6 °C 10,7 °C 4,8 km/h (1 Bft)
04.10.2025 19:18 20,7 °C 10,6 °C 58 % 87 % 999,6 hPa 0,0 l/m² 3,9 km/h (1 Bft) S 174 ° 0 min 0 W/m² 8,5 °C 10,6 °C 6,4 km/h (2 Bft)
04.10.2025 19:19 20,7 °C 10,6 °C 58 % 87 % 999,6 hPa 0,0 l/m² 5,6 km/h (2 Bft) S 176 ° 0 min 0 W/m² 8,5 °C 10,6 °C 9,7 km/h (2 Bft)
04.10.2025 19:20 20,7 °C 10,6 °C 58 % 87 % 999,6 hPa 0,0 l/m² 4,7 km/h (1 Bft) S 178 ° 0 min 0 W/m² 8,5 °C 10,6 °C 6,4 km/h (2 Bft)
04.10.2025 19:21 20,7 °C 10,6 °C 58 % 88 % 999,6 hPa 0,0 l/m² 5,6 km/h (2 Bft) S 185 ° 0 min 0 W/m² 8,7 °C 10,6 °C 6,4 km/h (2 Bft)
04.10.2025 19:22 20,7 °C 10,6 °C 58 % 88 % 999,7 hPa 0,0 l/m² 6,0 km/h (2 Bft) S 186 ° 0 min 0 W/m² 8,7 °C 10,6 °C 8,0 km/h (2 Bft)
04.10.2025 19:23 20,7 °C 10,5 °C 58 % 88 % 999,7 hPa 0,0 l/m² 5,4 km/h (2 Bft) S 186 ° 0 min 0 W/m² 8,6 °C 10,5 °C 6,4 km/h (2 Bft)
04.10.2025 19:24 20,7 °C 10,5 °C 58 % 88 % 999,7 hPa 0,0 l/m² 4,2 km/h (1 Bft) S 188 ° 0 min 0 W/m² 8,6 °C 10,5 °C 6,4 km/h (2 Bft)
04.10.2025 19:25 20,7 °C 10,5 °C 58 % 88 % 999,7 hPa 0,0 l/m² 5,0 km/h (1 Bft) S 188 ° 0 min 0 W/m² 8,6 °C 10,5 °C 6,4 km/h (2 Bft)
04.10.2025 19:26 20,7 °C 10,4 °C 58 % 88 % 999,7 hPa 0,0 l/m² 6,2 km/h (2 Bft) SW 231 ° 0 min 0 W/m² 8,5 °C 10,4 °C 9,7 km/h (2 Bft)
04.10.2025 19:27 20,7 °C 10,4 °C 58 % 88 % 999,7 hPa 0,0 l/m² 6,4 km/h (2 Bft) S-SW 213 ° 0 min 0 W/m² 8,5 °C 10,4 °C 8,0 km/h (2 Bft)
04.10.2025 19:28 20,7 °C 10,4 °C 58 % 88 % 999,8 hPa 0,0 l/m² 6,0 km/h (2 Bft) SW 220 ° 0 min 0 W/m² 8,5 °C 10,4 °C 9,7 km/h (2 Bft)
04.10.2025 19:29 20,7 °C 10,4 °C 58 % 88 % 999,7 hPa 0,0 l/m² 6,1 km/h (2 Bft) S-SW 207 ° 0 min 0 W/m² 8,5 °C 10,4 °C 8,0 km/h (2 Bft)
04.10.2025 19:30 20,7 °C 10,4 °C 58 % 88 % 999,8 hPa 0,0 l/m² 4,6 km/h (1 Bft) S-SW 206 ° 0 min 0 W/m² 8,5 °C 10,4 °C 6,4 km/h (2 Bft)
04.10.2025 19:31 20,7 °C 10,4 °C 58 % 88 % 999,8 hPa 0,0 l/m² 5,0 km/h (1 Bft) S-SW 205 ° 0 min 0 W/m² 8,5 °C 10,4 °C 8,0 km/h (2 Bft)
04.10.2025 19:32 20,7 °C 10,4 °C 58 % 88 % 999,8 hPa 0,0 l/m² 4,2 km/h (1 Bft) S-SW 207 ° 0 min 0 W/m² 8,5 °C 10,4 °C 6,4 km/h (2 Bft)
04.10.2025 19:33 20,7 °C 10,4 °C 58 % 88 % 999,8 hPa 0,0 l/m² 4,6 km/h (1 Bft) S-SW 207 ° 0 min 0 W/m² 8,5 °C 10,4 °C 6,4 km/h (2 Bft)
04.10.2025 19:34 20,7 °C 10,4 °C 58 % 88 % 999,9 hPa 0,0 l/m² 5,9 km/h (2 Bft) S-SW 211 ° 0 min 0 W/m² 8,5 °C 10,4 °C 8,0 km/h (2 Bft)
04.10.2025 19:35 20,7 °C 10,4 °C 58 % 88 % 999,9 hPa 0,0 l/m² 6,2 km/h (2 Bft) S-SW 209 ° 0 min 0 W/m² 8,5 °C 10,4 °C 8,0 km/h (2 Bft)
04.10.2025 19:36 20,7 °C 10,4 °C 58 % 88 % 999,9 hPa 0,0 l/m² 6,0 km/h (2 Bft) S-SW 210 ° 0 min 0 W/m² 8,5 °C 10,4 °C 8,0 km/h (2 Bft)
04.10.2025 19:37 20,7 °C 10,4 °C 58 % 88 % 1000,0 hPa 0,0 l/m² 7,6 km/h (2 Bft) SW 234 ° 0 min 0 W/m² 8,5 °C 9,5 °C 11,3 km/h (2 Bft)
04.10.2025 19:38 20,7 °C 10,4 °C 58 % 88 % 1000,0 hPa 0,0 l/m² 9,3 km/h (2 Bft) SW 227 ° 0 min 0 W/m² 8,5 °C 8,4 °C 12,9 km/h (3 Bft)
04.10.2025 19:39 20,7 °C 10,4 °C 58 % 88 % 1000,0 hPa 0,0 l/m² 11,5 km/h (2 Bft) SW 234 ° 0 min 0 W/m² 8,5 °C 7,2 °C 14,5 km/h (3 Bft)
04.10.2025 19:40 20,7 °C 10,4 °C 58 % 88 % 1000,1 hPa 0,0 l/m² 12,2 km/h (2 Bft) SW 231 ° 0 min 0 W/m² 8,5 °C 6,9 °C 16,1 km/h (3 Bft)
04.10.2025 19:41 20,7 °C 10,4 °C 58 % 88 % 1000,0 hPa 0,0 l/m² 14,7 km/h (3 Bft) SW 227 ° 0 min 0 W/m² 8,5 °C 5,7 °C 20,9 km/h (4 Bft)
04.10.2025 19:42 20,7 °C 10,4 °C 58 % 88 % 1000,1 hPa 0,0 l/m² 13,9 km/h (3 Bft) W-SW 258 ° 0 min 0 W/m² 8,5 °C 6,1 °C 20,9 km/h (4 Bft)
04.10.2025 19:43 20,7 °C 10,4 °C 58 % 88 % 1000,1 hPa 0,0 l/m² 14,4 km/h (3 Bft) SW 217 ° 0 min 0 W/m² 8,5 °C 5,9 °C 20,9 km/h (4 Bft)
04.10.2025 19:44 20,7 °C 10,4 °C 58 % 89 % 1000,1 hPa 0,0 l/m² 12,5 km/h (2 Bft) SW 217 ° 0 min 0 W/m² 8,7 °C 6,7 °C 14,5 km/h (3 Bft)
04.10.2025 19:45 20,7 °C 10,4 °C 58 % 89 % 1000,2 hPa 0,0 l/m² 18,2 km/h (3 Bft) SW 225 ° 0 min 0 W/m² 8,7 °C 4,4 °C 25,7 km/h (4 Bft)
04.10.2025 19:46 20,7 °C 10,4 °C 58 % 89 % 1000,3 hPa 0,0 l/m² 10,6 km/h (2 Bft) SW 236 ° 0 min 0 W/m² 8,7 °C 7,7 °C 16,1 km/h (3 Bft)
04.10.2025 19:47 20,7 °C 10,4 °C 58 % 89 % 1000,3 hPa 0,0 l/m² 13,3 km/h (3 Bft) SW 220 ° 0 min 0 W/m² 8,7 °C 6,4 °C 19,3 km/h (3 Bft)
04.10.2025 19:48 20,7 °C 10,4 °C 58 % 89 % 1000,4 hPa 0,0 l/m² 11,7 km/h (2 Bft) SW 229 ° 0 min 0 W/m² 8,7 °C 7,1 °C 19,3 km/h (3 Bft)
04.10.2025 19:49 20,7 °C 10,4 °C 58 % 89 % 1000,3 hPa 0,0 l/m² 11,7 km/h (2 Bft) SW 223 ° 0 min 0 W/m² 8,7 °C 7,1 °C 17,7 km/h (3 Bft)
04.10.2025 19:50 20,7 °C 10,4 °C 58 % 89 % 1000,4 hPa 0,0 l/m² 13,4 km/h (3 Bft) SW 232 ° 0 min 0 W/m² 8,7 °C 6,3 °C 17,7 km/h (3 Bft)
04.10.2025 19:51 20,7 °C 10,4 °C 58 % 89 % 1000,3 hPa 0,0 l/m² 12,5 km/h (2 Bft) SW 225 ° 0 min 0 W/m² 8,7 °C 6,7 °C 16,1 km/h (3 Bft)
04.10.2025 19:52 20,7 °C 10,4 °C 58 % 89 % 1000,4 hPa 0,0 l/m² 8,8 km/h (2 Bft) W-SW 255 ° 0 min 0 W/m² 8,7 °C 8,8 °C 11,3 km/h (2 Bft)
04.10.2025 19:53 20,7 °C 10,4 °C 58 % 89 % 1000,4 hPa 0,0 l/m² 11,3 km/h (2 Bft) SW 225 ° 0 min 0 W/m² 8,7 °C 7,3 °C 20,9 km/h (4 Bft)
04.10.2025 19:54 20,7 °C 10,4 °C 58 % 89 % 1000,4 hPa 0,0 l/m² 8,5 km/h (2 Bft) SW 223 ° 0 min 0 W/m² 8,7 °C 8,9 °C 11,3 km/h (2 Bft)
04.10.2025 19:55 20,7 °C 10,4 °C 58 % 88 % 1000,3 hPa 0,0 l/m² 8,5 km/h (2 Bft) SW 224 ° 0 min 0 W/m² 8,5 °C 8,9 °C 12,9 km/h (3 Bft)
04.10.2025 19:56 20,7 °C 10,4 °C 58 % 88 % 1000,3 hPa 0,0 l/m² 10,2 km/h (2 Bft) W-SW 242 ° 0 min 0 W/m² 8,5 °C 7,9 °C 14,5 km/h (3 Bft)
04.10.2025 19:57 20,7 °C 10,4 °C 58 % 88 % 1000,4 hPa 0,0 l/m² 10,2 km/h (2 Bft) SW 229 ° 0 min 0 W/m² 8,5 °C 7,9 °C 12,9 km/h (3 Bft)
04.10.2025 19:58 20,7 °C 10,4 °C 58 % 88 % 1000,3 hPa 0,0 l/m² 8,8 km/h (2 Bft) SW 227 ° 0 min 0 W/m² 8,5 °C 8,8 °C 12,9 km/h (3 Bft)
04.10.2025 19:59 20,7 °C 10,4 °C 58 % 88 % 1000,4 hPa 0,0 l/m² 10,4 km/h (2 Bft) SW 234 ° 0 min 0 W/m² 8,5 °C 7,8 °C 16,1 km/h (3 Bft)
04.10.2025 20:00 20,7 °C 10,4 °C 58 % 88 % 1000,4 hPa 0,0 l/m² 8,2 km/h (2 Bft) SW 230 ° 0 min 0 W/m² 8,5 °C 9,1 °C 11,3 km/h (2 Bft)
04.10.2025 20:01 20,7 °C 10,4 °C 58 % 88 % 1000,4 hPa 0,0 l/m² 7,1 km/h (2 Bft) SW 221 ° 0 min 0 W/m² 8,5 °C 9,9 °C 9,7 km/h (2 Bft)
04.10.2025 20:02 20,7 °C 10,4 °C 58 % 88 % 1000,3 hPa 0,0 l/m² 5,3 km/h (1 Bft) SW 236 ° 0 min 0 W/m² 8,5 °C 10,4 °C 9,7 km/h (2 Bft)
04.10.2025 20:03 20,7 °C 10,4 °C 58 % 88 % 1000,3 hPa 0,0 l/m² 4,9 km/h (1 Bft) SW 236 ° 0 min 0 W/m² 8,5 °C 10,4 °C 6,4 km/h (2 Bft)
04.10.2025 20:04 20,7 °C 10,4 °C 58 % 88 % 1000,4 hPa 0,0 l/m² 2,9 km/h (1 Bft) SW 236 ° 0 min 0 W/m² 8,5 °C 10,4 °C 4,8 km/h (1 Bft)
04.10.2025 20:05 20,7 °C 10,4 °C 58 % 88 % 1000,3 hPa 0,0 l/m² 5,6 km/h (2 Bft) SW 227 ° 0 min 0 W/m² 8,5 °C 10,4 °C 8,0 km/h (2 Bft)
04.10.2025 20:06 20,7 °C 10,3 °C 58 % 88 % 1000,3 hPa 0,0 l/m² 4,7 km/h (1 Bft) SW 221 ° 0 min 0 W/m² 8,4 °C 10,3 °C 6,4 km/h (2 Bft)
04.10.2025 20:07 20,7 °C 10,4 °C 58 % 88 % 1000,3 hPa 0,0 l/m² 3,2 km/h (1 Bft) SW 220 ° 0 min 0 W/m² 8,5 °C 10,4 °C 4,8 km/h (1 Bft)
04.10.2025 20:08 20,7 °C 10,3 °C 58 % 88 % 1000,3 hPa 0,0 l/m² 2,7 km/h (1 Bft) S-SW 212 ° 0 min 0 W/m² 8,4 °C 10,3 °C 4,8 km/h (1 Bft)
04.10.2025 20:09 20,7 °C 10,3 °C 58 % 88 % 1000,3 hPa 0,0 l/m² 2,3 km/h (1 Bft) S-SW 212 ° 0 min 0 W/m² 8,4 °C 10,3 °C 4,8 km/h (1 Bft)
04.10.2025 20:10 20,7 °C 10,3 °C 58 % 88 % 1000,3 hPa 0,0 l/m² 0,4 km/h (0 Bft) S-SW 212 ° 0 min 0 W/m² 8,4 °C 10,3 °C 1,6 km/h (1 Bft)
04.10.2025 20:11 20,7 °C 10,3 °C 58 % 88 % 1000,3 hPa 0,0 l/m² 0,4 km/h (0 Bft) S-SW 212 ° 0 min 0 W/m² 8,4 °C 10,3 °C 1,6 km/h (1 Bft)
04.10.2025 20:12 20,7 °C 10,3 °C 58 % 88 % 1000,4 hPa 0,0 l/m² 0,2 km/h (0 Bft) S-SW 212 ° 0 min 0 W/m² 8,4 °C 10,3 °C 1,6 km/h (1 Bft)
04.10.2025 20:13 20,7 °C 10,3 °C 58 % 88 % 1000,3 hPa 0,0 l/m² 0,5 km/h (0 Bft) S-SW 212 ° 0 min 0 W/m² 8,4 °C 10,3 °C 1,6 km/h (1 Bft)
04.10.2025 20:14 20,7 °C 10,3 °C 58 % 88 % 1000,3 hPa 0,0 l/m² 0,9 km/h (0 Bft) S-SW 212 ° 0 min 0 W/m² 8,4 °C 10,3 °C 3,2 km/h (1 Bft)
04.10.2025 20:15 20,7 °C 10,3 °C 58 % 88 % 1000,3 hPa 0,0 l/m² 0,8 km/h (0 Bft) S-SW 212 ° 0 min 0 W/m² 8,4 °C 10,3 °C 3,2 km/h (1 Bft)
04.10.2025 20:16 20,7 °C 10,3 °C 58 % 88 % 1000,4 hPa 0,0 l/m² 0,0 km/h (0 Bft) S-SW 212 ° 0 min 0 W/m² 8,4 °C 10,3 °C 0,0 km/h (0 Bft)
04.10.2025 20:17 20,7 °C 10,3 °C 58 % 88 % 1000,3 hPa 0,0 l/m² 0,1 km/h (0 Bft) S-SW 212 ° 0 min 0 W/m² 8,4 °C 10,3 °C 1,6 km/h (1 Bft)
04.10.2025 20:18 20,7 °C 10,3 °C 58 % 88 % 1000,3 hPa 0,0 l/m² 0,4 km/h (0 Bft) S-SW 212 ° 0 min 0 W/m² 8,4 °C 10,3 °C 1,6 km/h (1 Bft)
04.10.2025 20:19 20,7 °C 10,3 °C 58 % 88 % 1000,3 hPa 0,0 l/m² 0,1 km/h (0 Bft) S-SW 212 ° 0 min 0 W/m² 8,4 °C 10,3 °C 1,6 km/h (1 Bft)
04.10.2025 20:20 20,7 °C 10,2 °C 58 % 88 % 1000,3 hPa 0,0 l/m² 0,2 km/h (0 Bft) S-SW 212 ° 0 min 0 W/m² 8,3 °C 10,2 °C 1,6 km/h (1 Bft)
04.10.2025 20:21 20,7 °C 10,2 °C 59 % 88 % 1000,3 hPa 0,0 l/m² 0,0 km/h (0 Bft) S-SW 212 ° 0 min 0 W/m² 8,3 °C 10,2 °C 0,0 km/h (0 Bft)
04.10.2025 20:22 20,7 °C 10,2 °C 58 % 88 % 1000,3 hPa 0,0 l/m² 0,0 km/h (0 Bft) S-SW 212 ° 0 min 0 W/m² 8,3 °C 10,2 °C 0,0 km/h (0 Bft)
04.10.2025 20:23 20,7 °C 10,2 °C 58 % 88 % 1000,2 hPa 0,0 l/m² 0,0 km/h (0 Bft) S-SW 212 ° 0 min 0 W/m² 8,3 °C 10,2 °C 0,0 km/h (0 Bft)
04.10.2025 20:24 20,7 °C 10,2 °C 58 % 88 % 1000,3 hPa 0,0 l/m² 0,0 km/h (0 Bft) S-SW 212 ° 0 min 0 W/m² 8,3 °C 10,2 °C 0,0 km/h (0 Bft)
04.10.2025 20:25 20,7 °C 10,2 °C 58 % 88 % 1000,2 hPa 0,0 l/m² 0,0 km/h (0 Bft) S-SW 212 ° 0 min 0 W/m² 8,3 °C 10,2 °C 0,0 km/h (0 Bft)
04.10.2025 20:26 20,7 °C 10,2 °C 58 % 88 % 1000,3 hPa 0,0 l/m² 0,0 km/h (0 Bft) S-SW 212 ° 0 min 0 W/m² 8,3 °C 10,2 °C 0,0 km/h (0 Bft)
04.10.2025 20:27 20,7 °C 10,1 °C 58 % 88 % 1000,2 hPa 0,0 l/m² 0,2 km/h (0 Bft) S-SW 212 ° 0 min 0 W/m² 8,2 °C 10,1 °C 1,6 km/h (1 Bft)
04.10.2025 20:28 20,7 °C 10,1 °C 58 % 88 % 1000,2 hPa 0,0 l/m² 0,0 km/h (0 Bft) S-SW 212 ° 0 min 0 W/m² 8,2 °C 10,1 °C 0,0 km/h (0 Bft)
04.10.2025 20:29 20,7 °C 10,1 °C 58 % 88 % 1000,2 hPa 0,0 l/m² 0,5 km/h (0 Bft) S-SW 212 ° 0 min 0 W/m² 8,2 °C 10,1 °C 1,6 km/h (1 Bft)
04.10.2025 20:30 20,7 °C 10,1 °C 58 % 88 % 1000,2 hPa 0,0 l/m² 0,3 km/h (0 Bft) S-SW 212 ° 0 min 0 W/m² 8,2 °C 10,1 °C 1,6 km/h (1 Bft)
04.10.2025 20:31 20,7 °C 10,1 °C 58 % 88 % 1000,3 hPa 0,0 l/m² 0,0 km/h (0 Bft) S-SW 212 ° 0 min 0 W/m² 8,2 °C 10,1 °C 0,0 km/h (0 Bft)
04.10.2025 20:32 20,7 °C 10,1 °C 58 % 88 % 1000,2 hPa 0,0 l/m² 0,0 km/h (0 Bft) S-SW 212 ° 0 min 0 W/m² 8,2 °C 10,1 °C 0,0 km/h (0 Bft)
04.10.2025 20:33 20,7 °C 10,1 °C 58 % 88 % 1000,2 hPa 0,0 l/m² 0,0 km/h (0 Bft) S-SW 212 ° 0 min 0 W/m² 8,2 °C 10,1 °C 0,0 km/h (0 Bft)
04.10.2025 20:34 20,7 °C 10,1 °C 58 % 88 % 1000,3 hPa 0,0 l/m² 0,0 km/h (0 Bft) S-SW 212 ° 0 min 0 W/m² 8,2 °C 10,1 °C 0,0 km/h (0 Bft)
04.10.2025 20:35 20,7 °C 10,0 °C 58 % 88 % 1000,3 hPa 0,0 l/m² 0,0 km/h (0 Bft) S-SW 212 ° 0 min 0 W/m² 8,1 °C 10,0 °C 0,0 km/h (0 Bft)
04.10.2025 20:36 20,7 °C 10,0 °C 58 % 88 % 1000,3 hPa 0,0 l/m² 0,0 km/h (0 Bft) S-SW 212 ° 0 min 0 W/m² 8,1 °C 10,0 °C 0,0 km/h (0 Bft)
04.10.2025 20:37 20,7 °C 10,0 °C 58 % 88 % 1000,3 hPa 0,0 l/m² 0,0 km/h (0 Bft) S-SW 212 ° 0 min 0 W/m² 8,1 °C 10,0 °C 0,0 km/h (0 Bft)
04.10.2025 20:38 20,7 °C 10,0 °C 58 % 88 % 1000,2 hPa 0,0 l/m² 0,0 km/h (0 Bft) S-SW 198 ° 0 min 0 W/m² 8,1 °C 10,0 °C 0,0 km/h (0 Bft)
04.10.2025 20:39 20,7 °C 10,0 °C 58 % 88 % 1000,4 hPa 0,0 l/m² 0,0 km/h (0 Bft) S-SW 198 ° 0 min 0 W/m² 8,1 °C 10,0 °C 0,0 km/h (0 Bft)
04.10.2025 20:40 20,7 °C 9,9 °C 58 % 87 % 1000,2 hPa 0,0 l/m² 0,0 km/h (0 Bft) S-SW 198 ° 0 min 0 W/m² 7,8 °C 9,9 °C 0,0 km/h (0 Bft)
04.10.2025 20:41 20,7 °C 9,9 °C 58 % 88 % 1000,2 hPa 0,0 l/m² 0,0 km/h (0 Bft) S-SW 198 ° 0 min 0 W/m² 8,0 °C 9,9 °C 0,0 km/h (0 Bft)
04.10.2025 20:42 20,7 °C 9,9 °C 58 % 88 % 1000,3 hPa 0,0 l/m² 0,0 km/h (0 Bft) S-SW 198 ° 0 min 0 W/m² 8,0 °C 9,9 °C 0,0 km/h (0 Bft)
04.10.2025 20:43 20,7 °C 9,9 °C 58 % 88 % 1000,4 hPa 0,0 l/m² 0,1 km/h (0 Bft) S-SW 198 ° 0 min 0 W/m² 8,0 °C 9,9 °C 1,6 km/h (1 Bft)
04.10.2025 20:44 20,7 °C 9,9 °C 58 % 87 % 1000,3 hPa 0,0 l/m² 0,1 km/h (0 Bft) S-SW 199 ° 0 min 0 W/m² 7,8 °C 9,9 °C 1,6 km/h (1 Bft)
04.10.2025 20:45 20,7 °C 9,8 °C 58 % 87 % 1000,4 hPa 0,0 l/m² 2,0 km/h (1 Bft) W 261 ° 0 min 0 W/m² 7,7 °C 9,8 °C 3,2 km/h (1 Bft)
04.10.2025 20:46 20,7 °C 9,8 °C 58 % 87 % 1000,4 hPa 0,0 l/m² 2,8 km/h (1 Bft) W 262 ° 0 min 0 W/m² 7,7 °C 9,8 °C 4,8 km/h (1 Bft)
04.10.2025 20:47 20,7 °C 9,8 °C 58 % 87 % 1000,5 hPa 0,0 l/m² 2,4 km/h (1 Bft) W 262 ° 0 min 0 W/m² 7,7 °C 9,8 °C 3,2 km/h (1 Bft)
04.10.2025 20:48 20,7 °C 9,8 °C 58 % 88 % 1000,4 hPa 0,0 l/m² 2,4 km/h (1 Bft) W 263 ° 0 min 0 W/m² 7,9 °C 9,8 °C 4,8 km/h (1 Bft)
04.10.2025 20:49 20,7 °C 9,8 °C 58 % 88 % 1000,4 hPa 0,0 l/m² 3,3 km/h (1 Bft) W 263 ° 0 min 0 W/m² 7,9 °C 9,8 °C 4,8 km/h (1 Bft)
04.10.2025 20:50 20,7 °C 9,7 °C 58 % 88 % 1000,5 hPa 0,0 l/m² 1,9 km/h (1 Bft) W 263 ° 0 min 0 W/m² 7,8 °C 9,7 °C 3,2 km/h (1 Bft)
04.10.2025 20:51 20,7 °C 9,7 °C 58 % 88 % 1000,5 hPa 0,0 l/m² 1,8 km/h (1 Bft) W 263 ° 0 min 0 W/m² 7,8 °C 9,7 °C 3,2 km/h (1 Bft)
04.10.2025 20:52 20,7 °C 9,7 °C 58 % 88 % 1000,5 hPa 0,0 l/m² 0,0 km/h (0 Bft) W 263 ° 0 min 0 W/m² 7,8 °C 9,7 °C 0,0 km/h (0 Bft)
04.10.2025 20:53 20,7 °C 9,7 °C 58 % 88 % 1000,6 hPa 0,0 l/m² 0,0 km/h (0 Bft) W 263 ° 0 min 0 W/m² 7,8 °C 9,7 °C 0,0 km/h (0 Bft)
04.10.2025 20:54 20,7 °C 9,7 °C 59 % 88 % 1000,5 hPa 0,0 l/m² 0,0 km/h (0 Bft) W 263 ° 0 min 0 W/m² 7,8 °C 9,7 °C 0,0 km/h (0 Bft)
04.10.2025 20:55 20,7 °C 9,7 °C 58 % 88 % 1000,5 hPa 0,0 l/m² 0,1 km/h (0 Bft) W 263 ° 0 min 0 W/m² 7,8 °C 9,7 °C 1,6 km/h (1 Bft)
04.10.2025 20:56 20,7 °C 9,7 °C 58 % 88 % 1000,6 hPa 0,0 l/m² 0,1 km/h (0 Bft) W 263 ° 0 min 0 W/m² 7,8 °C 9,7 °C 1,6 km/h (1 Bft)
04.10.2025 20:57 20,7 °C 9,6 °C 58 % 88 % 1000,6 hPa 0,0 l/m² 0,2 km/h (0 Bft) W 263 ° 0 min 0 W/m² 7,7 °C 9,6 °C 1,6 km/h (1 Bft)
04.10.2025 20:58 20,7 °C 9,6 °C 58 % 88 % 1000,6 hPa 0,0 l/m² 0,0 km/h (0 Bft) W 263 ° 0 min 0 W/m² 7,7 °C 9,6 °C 0,0 km/h (0 Bft)
04.10.2025 20:59 20,7 °C 9,6 °C 58 % 88 % 1000,6 hPa 0,0 l/m² 0,0 km/h (0 Bft) W 263 ° 0 min 0 W/m² 7,7 °C 9,6 °C 0,0 km/h (0 Bft)
04.10.2025 21:00 20,7 °C 9,6 °C 58 % 88 % 1000,6 hPa 0,0 l/m² 0,8 km/h (0 Bft) W 263 ° 0 min 0 W/m² 7,7 °C 9,6 °C 3,2 km/h (1 Bft)
04.10.2025 21:01 20,7 °C 9,5 °C 58 % 88 % 1000,7 hPa 0,0 l/m² 0,0 km/h (0 Bft) W 263 ° 0 min 0 W/m² 7,6 °C 9,5 °C 0,0 km/h (0 Bft)
04.10.2025 21:03 20,7 °C 9,5 °C 58 % 88 % 1000,7 hPa 0,0 l/m² 0,0 km/h (0 Bft) W 263 ° 0 min 0 W/m² 7,6 °C 9,5 °C 1,6 km/h (1 Bft)
04.10.2025 21:04 20,7 °C 9,5 °C 58 % 88 % 1000,7 hPa 0,0 l/m² 0,0 km/h (0 Bft) W 263 ° 0 min 0 W/m² 7,6 °C 9,5 °C 0,0 km/h (0 Bft)
04.10.2025 21:05 20,7 °C 9,4 °C 59 % 88 % 1000,7 hPa 0,0 l/m² 0,0 km/h (0 Bft) W 263 ° 0 min 0 W/m² 7,5 °C 9,4 °C 0,0 km/h (0 Bft)
04.10.2025 21:06 20,7 °C 9,4 °C 59 % 88 % 1000,7 hPa 0,0 l/m² 0,0 km/h (0 Bft) W 263 ° 0 min 0 W/m² 7,5 °C 9,4 °C 0,0 km/h (0 Bft)
04.10.2025 21:07 20,7 °C 9,4 °C 58 % 88 % 1000,8 hPa 0,0 l/m² 0,0 km/h (0 Bft) W 263 ° 0 min 0 W/m² 7,5 °C 9,4 °C 0,0 km/h (0 Bft)
04.10.2025 21:08 20,7 °C 9,4 °C 58 % 88 % 1000,7 hPa 0,0 l/m² 0,0 km/h (0 Bft) W 263 ° 0 min 0 W/m² 7,5 °C 9,4 °C 0,0 km/h (0 Bft)
04.10.2025 21:09 20,7 °C 9,4 °C 58 % 88 % 1000,8 hPa 0,0 l/m² 0,3 km/h (0 Bft) W 263 ° 0 min 0 W/m² 7,5 °C 9,4 °C 1,6 km/h (1 Bft)
04.10.2025 21:10 20,6 °C 9,4 °C 58 % 88 % 1000,8 hPa 0,0 l/m² 0,8 km/h (0 Bft) W 263 ° 0 min 0 W/m² 7,5 °C 9,4 °C 1,6 km/h (1 Bft)
04.10.2025 21:11 20,7 °C 9,4 °C 58 % 88 % 1000,8 hPa 0,0 l/m² 0,0 km/h (0 Bft) W 263 ° 0 min 0 W/m² 7,5 °C 9,4 °C 0,0 km/h (0 Bft)
04.10.2025 21:12 20,7 °C 9,3 °C 59 % 88 % 1000,7 hPa 0,0 l/m² 4,9 km/h (1 Bft) S-SW 207 ° 0 min 0 W/m² 7,4 °C 9,3 °C 14,5 km/h (3 Bft)
04.10.2025 21:13 20,7 °C 9,3 °C 58 % 88 % 1000,7 hPa 0,0 l/m² 6,6 km/h (2 Bft) SW 217 ° 0 min 0 W/m² 7,4 °C 9,2 °C 9,7 km/h (2 Bft)
04.10.2025 21:14 20,7 °C 9,3 °C 59 % 88 % 1000,8 hPa 0,0 l/m² 7,5 km/h (2 Bft) SW 227 ° 0 min 0 W/m² 7,4 °C 8,5 °C 9,7 km/h (2 Bft)
04.10.2025 21:15 20,7 °C 9,3 °C 59 % 88 % 1000,9 hPa 0,0 l/m² 4,8 km/h (1 Bft) SW 236 ° 0 min 0 W/m² 7,4 °C 9,3 °C 8,0 km/h (2 Bft)
04.10.2025 21:16 20,6 °C 9,3 °C 58 % 88 % 1000,8 hPa 0,0 l/m² 8,2 km/h (2 Bft) SW 225 ° 0 min 0 W/m² 7,4 °C 8,0 °C 14,5 km/h (3 Bft)
04.10.2025 21:17 20,7 °C 9,2 °C 58 % 88 % 1000,9 hPa 0,0 l/m² 13,7 km/h (3 Bft) W-SW 237 ° 0 min 0 W/m² 7,3 °C 4,8 °C 17,7 km/h (3 Bft)
04.10.2025 21:18 20,7 °C 9,3 °C 59 % 88 % 1000,9 hPa 0,0 l/m² 12,3 km/h (2 Bft) SW 215 ° 0 min 0 W/m² 7,4 °C 5,6 °C 20,9 km/h (4 Bft)
04.10.2025 21:19 20,7 °C 9,3 °C 59 % 88 % 1000,9 hPa 0,0 l/m² 12,3 km/h (2 Bft) W-SW 246 ° 0 min 0 W/m² 7,4 °C 5,6 °C 19,3 km/h (3 Bft)
04.10.2025 21:20 20,6 °C 9,3 °C 58 % 88 % 1000,9 hPa 0,0 l/m² 15,6 km/h (3 Bft) SW 228 ° 0 min 0 W/m² 7,4 °C 4,0 °C 22,5 km/h (4 Bft)
04.10.2025 21:21 20,7 °C 9,3 °C 58 % 88 % 1001,0 hPa 0,0 l/m² 16,6 km/h (3 Bft) SW 234 ° 0 min 0 W/m² 7,4 °C 3,6 °C 22,5 km/h (4 Bft)
04.10.2025 21:22 20,7 °C 9,3 °C 59 % 88 % 1001,0 hPa 0,0 l/m² 13,6 km/h (3 Bft) W-SW 239 ° 0 min 0 W/m² 7,4 °C 4,9 °C 19,3 km/h (3 Bft)
04.10.2025 21:23 20,7 °C 9,3 °C 58 % 88 % 1001,0 hPa 0,0 l/m² 17,0 km/h (3 Bft) W-SW 253 ° 0 min 0 W/m² 7,4 °C 3,5 °C 24,1 km/h (4 Bft)
04.10.2025 21:24 20,6 °C 9,3 °C 58 % 88 % 1001,0 hPa 0,0 l/m² 14,6 km/h (3 Bft) SW 222 ° 0 min 0 W/m² 7,4 °C 4,5 °C 20,9 km/h (4 Bft)
04.10.2025 21:25 20,7 °C 9,4 °C 58 % 88 % 1001,0 hPa 0,0 l/m² 17,5 km/h (3 Bft) W-SW 238 ° 0 min 0 W/m² 7,5 °C 3,4 °C 24,1 km/h (4 Bft)
04.10.2025 21:26 20,7 °C 9,4 °C 58 % 88 % 1001,0 hPa 0,0 l/m² 17,9 km/h (3 Bft) S-SW 213 ° 0 min 0 W/m² 7,5 °C 3,2 °C 25,7 km/h (4 Bft)
04.10.2025 21:27 20,7 °C 9,4 °C 58 % 88 % 1001,0 hPa 0,0 l/m² 16,3 km/h (3 Bft) SW 226 ° 0 min 0 W/m² 7,5 °C 3,9 °C 22,5 km/h (4 Bft)
04.10.2025 21:28 20,7 °C 9,5 °C 59 % 88 % 1001,0 hPa 0,0 l/m² 19,3 km/h (3 Bft) SW 218 ° 0 min 0 W/m² 7,6 °C 2,9 °C 27,4 km/h (5 Bft)
04.10.2025 21:29 20,7 °C 9,6 °C 59 % 88 % 1001,0 hPa 0,0 l/m² 18,6 km/h (3 Bft) SW 227 ° 0 min 0 W/m² 7,7 °C 3,2 °C 24,1 km/h (4 Bft)
04.10.2025 21:30 20,6 °C 9,6 °C 58 % 88 % 1001,0 hPa 0,0 l/m² 18,3 km/h (3 Bft) SW 227 ° 0 min 0 W/m² 7,7 °C 3,4 °C 24,1 km/h (4 Bft)
04.10.2025 21:31 20,7 °C 9,6 °C 58 % 88 % 1001,1 hPa 0,0 l/m² 23,9 km/h (4 Bft) W-SW 242 ° 0 min 0 W/m² 7,7 °C 1,6 °C 32,2 km/h (5 Bft)
04.10.2025 21:32 20,7 °C 9,7 °C 58 % 88 % 1001,2 hPa 0,0 l/m² 22,3 km/h (4 Bft) SW 214 ° 0 min 0 W/m² 7,8 °C 2,2 °C 32,2 km/h (5 Bft)
04.10.2025 21:33 20,7 °C 9,7 °C 59 % 88 % 1001,2 hPa 0,0 l/m² 18,9 km/h (3 Bft) SW 229 ° 0 min 0 W/m² 7,8 °C 3,3 °C 24,1 km/h (4 Bft)
04.10.2025 21:34 20,7 °C 9,7 °C 59 % 87 % 1001,2 hPa 0,0 l/m² 19,8 km/h (3 Bft) SW 225 ° 0 min 0 W/m² 7,6 °C 3,0 °C 24,1 km/h (4 Bft)
04.10.2025 21:35 20,7 °C 9,7 °C 59 % 87 % 1001,2 hPa 0,0 l/m² 17,5 km/h (3 Bft) SW 222 ° 0 min 0 W/m² 7,6 °C 3,8 °C 22,5 km/h (4 Bft)
04.10.2025 21:36 20,6 °C 9,8 °C 59 % 87 % 1001,3 hPa 0,0 l/m² 19,9 km/h (4 Bft) W-SW 251 ° 0 min 0 W/m² 7,7 °C 3,1 °C 29,0 km/h (5 Bft)
04.10.2025 21:37 20,6 °C 9,8 °C 58 % 87 % 1001,3 hPa 0,0 l/m² 19,4 km/h (3 Bft) W-SW 248 ° 0 min 0 W/m² 7,7 °C 3,2 °C 24,1 km/h (4 Bft)
04.10.2025 21:38 20,6 °C 9,8 °C 59 % 86 % 1001,3 hPa 0,0 l/m² 16,1 km/h (3 Bft) SW 223 ° 0 min 0 W/m² 7,6 °C 4,4 °C 22,5 km/h (4 Bft)
04.10.2025 21:39 20,7 °C 9,8 °C 58 % 87 % 1001,3 hPa 0,0 l/m² 15,8 km/h (3 Bft) W-SW 241 ° 0 min 0 W/m² 7,7 °C 4,6 °C 22,5 km/h (4 Bft)
04.10.2025 21:40 20,7 °C 9,8 °C 58 % 86 % 1001,4 hPa 0,0 l/m² 17,5 km/h (3 Bft) W 260 ° 0 min 0 W/m² 7,6 °C 3,9 °C 22,5 km/h (4 Bft)
04.10.2025 21:41 20,6 °C 9,9 °C 58 % 86 % 1001,4 hPa 0,0 l/m² 17,1 km/h (3 Bft) SW 221 ° 0 min 0 W/m² 7,7 °C 4,2 °C 20,9 km/h (4 Bft)
04.10.2025 21:42 20,7 °C 9,8 °C 58 % 86 % 1001,4 hPa 0,0 l/m² 14,4 km/h (3 Bft) SW 226 ° 0 min 0 W/m² 7,6 °C 5,2 °C 19,3 km/h (3 Bft)
04.10.2025 21:43 20,7 °C 9,9 °C 58 % 86 % 1001,5 hPa 0,0 l/m² 15,6 km/h (3 Bft) W-SW 240 ° 0 min 0 W/m² 7,7 °C 4,8 °C 19,3 km/h (3 Bft)
04.10.2025 21:44 20,7 °C 9,9 °C 58 % 86 % 1001,6 hPa 0,0 l/m² 15,2 km/h (3 Bft) SW 229 ° 0 min 0 W/m² 7,7 °C 4,9 °C 22,5 km/h (4 Bft)
04.10.2025 21:46 20,7 °C 9,9 °C 59 % 85 % 1001,6 hPa 0,0 l/m² 13,9 km/h (3 Bft) SW 236 ° 0 min 0 W/m² 7,5 °C 5,5 °C 20,9 km/h (4 Bft)
04.10.2025 21:47 20,7 °C 9,9 °C 59 % 85 % 1001,6 hPa 0,0 l/m² 15,9 km/h (3 Bft) SW 222 ° 0 min 0 W/m² 7,5 °C 4,6 °C 20,9 km/h (4 Bft)
04.10.2025 21:48 20,7 °C 9,8 °C 58 % 85 % 1001,6 hPa 0,0 l/m² 14,8 km/h (3 Bft) SW 225 ° 0 min 0 W/m² 7,4 °C 5,0 °C 22,5 km/h (4 Bft)
04.10.2025 21:49 20,7 °C 9,9 °C 58 % 85 % 1001,6 hPa 0,0 l/m² 14,2 km/h (3 Bft) SW 227 ° 0 min 0 W/m² 7,5 °C 5,4 °C 24,1 km/h (4 Bft)
04.10.2025 21:50 20,7 °C 9,8 °C 58 % 85 % 1001,6 hPa 0,0 l/m² 14,1 km/h (3 Bft) SW 226 ° 0 min 0 W/m² 7,4 °C 5,3 °C 19,3 km/h (3 Bft)
04.10.2025 21:51 20,7 °C 9,8 °C 58 % 85 % 1001,6 hPa 0,0 l/m² 17,7 km/h (3 Bft) SW 221 ° 0 min 0 W/m² 7,4 °C 3,8 °C 22,5 km/h (4 Bft)
04.10.2025 21:52 20,7 °C 9,8 °C 58 % 84 % 1001,6 hPa 0,0 l/m² 17,3 km/h (3 Bft) SW 217 ° 0 min 0 W/m² 7,2 °C 4,0 °C 24,1 km/h (4 Bft)
04.10.2025 21:53 20,7 °C 9,8 °C 58 % 84 % 1001,7 hPa 0,0 l/m² 21,7 km/h (4 Bft) S-SW 213 ° 0 min 0 W/m² 7,2 °C 2,5 °C 27,4 km/h (5 Bft)
04.10.2025 21:54 20,7 °C 9,8 °C 58 % 84 % 1001,7 hPa 0,0 l/m² 16,1 km/h (3 Bft) SW 219 ° 0 min 0 W/m² 7,2 °C 4,4 °C 22,5 km/h (4 Bft)
04.10.2025 21:55 20,7 °C 9,8 °C 58 % 84 % 1001,7 hPa 0,0 l/m² 15,6 km/h (3 Bft) SW 221 ° 0 min 0 W/m² 7,2 °C 4,6 °C 17,7 km/h (3 Bft)
04.10.2025 21:56 20,7 °C 9,8 °C 58 % 84 % 1001,8 hPa 0,0 l/m² 14,8 km/h (3 Bft) S-SW 207 ° 0 min 0 W/m² 7,2 °C 5,0 °C 17,7 km/h (3 Bft)
04.10.2025 21:57 20,7 °C 9,8 °C 58 % 83 % 1001,8 hPa 0,0 l/m² 15,0 km/h (3 Bft) S-SW 205 ° 0 min 0 W/m² 7,1 °C 4,9 °C 19,3 km/h (3 Bft)
04.10.2025 21:58 20,7 °C 9,8 °C 58 % 83 % 1001,8 hPa 0,0 l/m² 13,3 km/h (3 Bft) S-SW 196 ° 0 min 0 W/m² 7,1 °C 5,6 °C 17,7 km/h (3 Bft)
04.10.2025 21:59 20,7 °C 9,8 °C 58 % 83 % 1001,8 hPa 0,0 l/m² 13,1 km/h (3 Bft) S-SW 207 ° 0 min 0 W/m² 7,1 °C 5,7 °C 19,3 km/h (3 Bft)
04.10.2025 22:00 20,7 °C 9,8 °C 58 % 83 % 1001,8 hPa 0,0 l/m² 13,7 km/h (3 Bft) S-SW 205 ° 0 min 0 W/m² 7,1 °C 5,5 °C 19,3 km/h (3 Bft)
04.10.2025 22:01 20,7 °C 9,8 °C 58 % 83 % 1001,9 hPa 0,0 l/m² 14,3 km/h (3 Bft) S-SW 198 ° 0 min 0 W/m² 7,1 °C 5,2 °C 17,7 km/h (3 Bft)
04.10.2025 22:02 20,7 °C 9,8 °C 58 % 83 % 1001,9 hPa 0,0 l/m² 14,2 km/h (3 Bft) S-SW 213 ° 0 min 0 W/m² 7,1 °C 5,2 °C 17,7 km/h (3 Bft)
04.10.2025 22:03 20,7 °C 9,8 °C 58 % 83 % 1001,9 hPa 0,0 l/m² 16,4 km/h (3 Bft) SW 217 ° 0 min 0 W/m² 7,1 °C 4,3 °C 22,5 km/h (4 Bft)
04.10.2025 22:04 20,7 °C 9,8 °C 58 % 83 % 1002,0 hPa 0,0 l/m² 14,1 km/h (3 Bft) SW 227 ° 0 min 0 W/m² 7,1 °C 5,3 °C 17,7 km/h (3 Bft)
04.10.2025 22:05 20,7 °C 9,8 °C 58 % 83 % 1001,9 hPa 0,0 l/m² 15,6 km/h (3 Bft) SW 219 ° 0 min 0 W/m² 7,1 °C 4,6 °C 17,7 km/h (3 Bft)
04.10.2025 22:06 20,7 °C 9,7 °C 58 % 83 % 1002,1 hPa 0,0 l/m² 15,4 km/h (3 Bft) SW 225 ° 0 min 0 W/m² 7,0 °C 4,6 °C 20,9 km/h (4 Bft)
04.10.2025 22:07 20,7 °C 9,7 °C 58 % 83 % 1002,0 hPa 0,0 l/m² 16,0 km/h (3 Bft) SW 219 ° 0 min 0 W/m² 7,0 °C 4,4 °C 20,9 km/h (4 Bft)
04.10.2025 22:08 20,7 °C 9,7 °C 58 % 83 % 1002,1 hPa 0,0 l/m² 12,9 km/h (3 Bft) S-SW 206 ° 0 min 0 W/m² 7,0 °C 5,7 °C 19,3 km/h (3 Bft)
04.10.2025 22:09 20,7 °C 9,7 °C 58 % 83 % 1002,1 hPa 0,0 l/m² 14,5 km/h (3 Bft) SW 216 ° 0 min 0 W/m² 7,0 °C 5,0 °C 19,3 km/h (3 Bft)
04.10.2025 22:10 20,7 °C 9,7 °C 58 % 83 % 1002,1 hPa 0,0 l/m² 15,2 km/h (3 Bft) S-SW 202 ° 0 min 0 W/m² 7,0 °C 4,7 °C 19,3 km/h (3 Bft)
04.10.2025 22:11 20,7 °C 9,7 °C 58 % 83 % 1002,2 hPa 0,0 l/m² 14,3 km/h (3 Bft) S-SW 211 ° 0 min 0 W/m² 7,0 °C 5,1 °C 16,1 km/h (3 Bft)
04.10.2025 22:12 20,7 °C 9,7 °C 58 % 83 % 1002,1 hPa 0,0 l/m² 11,8 km/h (2 Bft) S-SW 211 ° 0 min 0 W/m² 7,0 °C 6,3 °C 14,5 km/h (3 Bft)
04.10.2025 22:13 20,7 °C 9,7 °C 58 % 83 % 1002,2 hPa 0,0 l/m² 13,7 km/h (3 Bft) S-SW 207 ° 0 min 0 W/m² 7,0 °C 5,3 °C 17,7 km/h (3 Bft)
04.10.2025 22:14 20,7 °C 9,7 °C 58 % 83 % 1002,3 hPa 0,0 l/m² 11,7 km/h (2 Bft) SW 215 ° 0 min 0 W/m² 7,0 °C 6,3 °C 14,5 km/h (3 Bft)
04.10.2025 22:15 20,7 °C 9,7 °C 58 % 83 % 1002,4 hPa 0,0 l/m² 15,1 km/h (3 Bft) SW 226 ° 0 min 0 W/m² 7,0 °C 4,7 °C 20,9 km/h (4 Bft)
04.10.2025 22:16 20,7 °C 9,7 °C 58 % 83 % 1002,4 hPa 0,0 l/m² 14,2 km/h (3 Bft) SW 221 ° 0 min 0 W/m² 7,0 °C 5,1 °C 20,9 km/h (4 Bft)
04.10.2025 22:17 20,7 °C 9,7 °C 58 % 83 % 1002,3 hPa 0,0 l/m² 14,5 km/h (3 Bft) SW 222 ° 0 min 0 W/m² 7,0 °C 5,0 °C 19,3 km/h (3 Bft)
04.10.2025 22:18 20,7 °C 9,7 °C 58 % 83 % 1002,3 hPa 0,0 l/m² 14,8 km/h (3 Bft) SW 220 ° 0 min 0 W/m² 7,0 °C 4,9 °C 19,3 km/h (3 Bft)
04.10.2025 22:19 20,7 °C 9,7 °C 58 % 83 % 1002,3 hPa 0,0 l/m² 14,9 km/h (3 Bft) S-SW 203 ° 0 min 0 W/m² 7,0 °C 4,8 °C 17,7 km/h (3 Bft)
04.10.2025 22:20 20,7 °C 9,7 °C 58 % 83 % 1002,3 hPa 0,0 l/m² 13,9 km/h (3 Bft) SW 230 ° 0 min 0 W/m² 7,0 °C 5,3 °C 19,3 km/h (3 Bft)
04.10.2025 22:21 20,7 °C 9,7 °C 58 % 83 % 1002,2 hPa 0,0 l/m² 17,1 km/h (3 Bft) S-SW 211 ° 0 min 0 W/m² 7,0 °C 3,9 °C 27,4 km/h (5 Bft)
04.10.2025 22:22 20,7 °C 9,7 °C 58 % 82 % 1002,2 hPa 0,0 l/m² 20,7 km/h (4 Bft) S-SW 207 ° 0 min 0 W/m² 6,8 °C 2,7 °C 25,7 km/h (4 Bft)
04.10.2025 22:23 20,7 °C 9,7 °C 58 % 82 % 1002,2 hPa 0,0 l/m² 16,6 km/h (3 Bft) S-SW 204 ° 0 min 0 W/m² 6,8 °C 4,1 °C 20,9 km/h (4 Bft)
04.10.2025 22:24 20,7 °C 9,7 °C 58 % 82 % 1002,2 hPa 0,0 l/m² 15,0 km/h (3 Bft) S-SW 196 ° 0 min 0 W/m² 6,8 °C 4,8 °C 19,3 km/h (3 Bft)
04.10.2025 22:25 20,7 °C 9,8 °C 58 % 82 % 1002,2 hPa 0,0 l/m² 15,6 km/h (3 Bft) S-SW 211 ° 0 min 0 W/m² 6,9 °C 4,6 °C 19,3 km/h (3 Bft)
04.10.2025 22:26 20,7 °C 9,8 °C 58 % 82 % 1002,2 hPa 0,0 l/m² 16,0 km/h (3 Bft) SW 215 ° 0 min 0 W/m² 6,9 °C 4,5 °C 20,9 km/h (4 Bft)
04.10.2025 22:27 20,7 °C 9,8 °C 58 % 82 % 1002,2 hPa 0,0 l/m² 12,6 km/h (3 Bft) S 187 ° 0 min 0 W/m² 6,9 °C 6,0 °C 16,1 km/h (3 Bft)
04.10.2025 22:28 20,7 °C 9,7 °C 58 % 82 % 1002,1 hPa 0,0 l/m² 16,3 km/h (3 Bft) S-SW 196 ° 0 min 0 W/m² 6,8 °C 4,2 °C 19,3 km/h (3 Bft)
04.10.2025 22:29 20,7 °C 9,8 °C 58 % 83 % 1002,2 hPa 0,0 l/m² 14,8 km/h (3 Bft) S-SW 200 ° 0 min 0 W/m² 7,1 °C 5,0 °C 19,3 km/h (3 Bft)
04.10.2025 22:30 20,7 °C 9,8 °C 58 % 83 % 1002,2 hPa 0,0 l/m² 14,4 km/h (3 Bft) S 188 ° 0 min 0 W/m² 7,1 °C 5,2 °C 20,9 km/h (4 Bft)
04.10.2025 22:31 20,7 °C 9,8 °C 58 % 82 % 1002,2 hPa 0,0 l/m² 18,2 km/h (3 Bft) SW 217 ° 0 min 0 W/m² 6,9 °C 3,6 °C 24,1 km/h (4 Bft)
04.10.2025 22:32 20,7 °C 9,8 °C 58 % 82 % 1002,3 hPa 0,0 l/m² 16,0 km/h (3 Bft) SW 223 ° 0 min 0 W/m² 6,9 °C 4,5 °C 22,5 km/h (4 Bft)
04.10.2025 22:33 20,7 °C 9,7 °C 58 % 82 % 1002,2 hPa 0,0 l/m² 15,1 km/h (3 Bft) S-SW 202 ° 0 min 0 W/m² 6,8 °C 4,7 °C 19,3 km/h (3 Bft)
04.10.2025 22:34 20,7 °C 9,8 °C 58 % 82 % 1002,3 hPa 0,0 l/m² 14,7 km/h (3 Bft) S-SW 209 ° 0 min 0 W/m² 6,9 °C 5,0 °C 22,5 km/h (4 Bft)
04.10.2025 22:35 20,7 °C 9,8 °C 58 % 82 % 1002,2 hPa 0,0 l/m² 15,0 km/h (3 Bft) S-SW 192 ° 0 min 0 W/m² 6,9 °C 4,9 °C 17,7 km/h (3 Bft)
04.10.2025 22:36 20,7 °C 9,8 °C 58 % 82 % 1002,2 hPa 0,0 l/m² 12,9 km/h (3 Bft) S-SW 205 ° 0 min 0 W/m² 6,9 °C 5,8 °C 19,3 km/h (3 Bft)
04.10.2025 22:37 20,7 °C 9,8 °C 58 % 82 % 1002,3 hPa 0,0 l/m² 15,0 km/h (3 Bft) S-SW 202 ° 0 min 0 W/m² 6,9 °C 4,9 °C 19,3 km/h (3 Bft)
04.10.2025 22:38 20,7 °C 9,8 °C 58 % 82 % 1002,3 hPa 0,0 l/m² 15,6 km/h (3 Bft) S-SW 206 ° 0 min 0 W/m² 6,9 °C 4,6 °C 19,3 km/h (3 Bft)
04.10.2025 22:39 20,7 °C 9,8 °C 58 % 82 % 1002,2 hPa 0,0 l/m² 13,5 km/h (3 Bft) S-SW 205 ° 0 min 0 W/m² 6,9 °C 5,6 °C 14,5 km/h (3 Bft)
04.10.2025 22:40 20,7 °C 9,8 °C 58 % 82 % 1002,3 hPa 0,0 l/m² 11,7 km/h (2 Bft) S-SW 207 ° 0 min 0 W/m² 6,9 °C 6,4 °C 16,1 km/h (3 Bft)
04.10.2025 22:41 20,7 °C 9,8 °C 58 % 82 % 1002,2 hPa 0,0 l/m² 18,1 km/h (3 Bft) S-SW 208 ° 0 min 0 W/m² 6,9 °C 3,7 °C 22,5 km/h (4 Bft)
04.10.2025 22:42 20,7 °C 9,8 °C 58 % 82 % 1002,3 hPa 0,0 l/m² 15,1 km/h (3 Bft) S-SW 201 ° 0 min 0 W/m² 6,9 °C 4,8 °C 19,3 km/h (3 Bft)
04.10.2025 22:43 20,7 °C 9,8 °C 58 % 82 % 1002,2 hPa 0,0 l/m² 13,1 km/h (3 Bft) SW 223 ° 0 min 0 W/m² 6,9 °C 5,7 °C 19,3 km/h (3 Bft)
04.10.2025 22:44 20,7 °C 9,8 °C 58 % 82 % 1002,3 hPa 0,0 l/m² 15,2 km/h (3 Bft) SW 217 ° 0 min 0 W/m² 6,9 °C 4,8 °C 22,5 km/h (4 Bft)
04.10.2025 22:45 20,7 °C 9,8 °C 58 % 81 % 1002,3 hPa 0,0 l/m² 22,0 km/h (4 Bft) S-SW 207 ° 0 min 0 W/m² 6,7 °C 2,4 °C 25,7 km/h (4 Bft)
04.10.2025 22:46 20,7 °C 9,8 °C 58 % 81 % 1002,3 hPa 0,0 l/m² 15,7 km/h (3 Bft) SW 221 ° 0 min 0 W/m² 6,7 °C 4,6 °C 19,3 km/h (3 Bft)
04.10.2025 22:47 20,7 °C 9,8 °C 58 % 81 % 1002,4 hPa 0,0 l/m² 17,8 km/h (3 Bft) S-SW 213 ° 0 min 0 W/m² 6,7 °C 3,8 °C 27,4 km/h (5 Bft)
04.10.2025 22:48 20,7 °C 9,8 °C 58 % 81 % 1002,3 hPa 0,0 l/m² 19,6 km/h (3 Bft) SW 215 ° 0 min 0 W/m² 6,7 °C 3,2 °C 25,7 km/h (4 Bft)
04.10.2025 22:49 20,7 °C 9,8 °C 58 % 81 % 1002,5 hPa 0,0 l/m² 16,2 km/h (3 Bft) SW 222 ° 0 min 0 W/m² 6,7 °C 4,4 °C 20,9 km/h (4 Bft)
04.10.2025 22:50 20,7 °C 9,8 °C 58 % 81 % 1002,4 hPa 0,0 l/m² 16,5 km/h (3 Bft) S-SW 213 ° 0 min 0 W/m² 6,7 °C 4,3 °C 22,5 km/h (4 Bft)
04.10.2025 22:51 20,7 °C 9,8 °C 58 % 81 % 1002,5 hPa 0,0 l/m² 19,9 km/h (4 Bft) SW 215 ° 0 min 0 W/m² 6,7 °C 3,1 °C 27,4 km/h (5 Bft)
04.10.2025 22:52 20,7 °C 9,8 °C 58 % 81 % 1002,5 hPa 0,0 l/m² 17,0 km/h (3 Bft) SW 225 ° 0 min 0 W/m² 6,7 °C 4,1 °C 22,5 km/h (4 Bft)
04.10.2025 22:53 20,7 °C 9,8 °C 58 % 81 % 1002,5 hPa 0,0 l/m² 18,4 km/h (3 Bft) S-SW 202 ° 0 min 0 W/m² 6,7 °C 3,6 °C 22,5 km/h (4 Bft)
04.10.2025 22:54 20,7 °C 9,8 °C 58 % 81 % 1002,5 hPa 0,0 l/m² 17,6 km/h (3 Bft) SW 217 ° 0 min 0 W/m² 6,7 °C 3,9 °C 22,5 km/h (4 Bft)
04.10.2025 22:55 20,7 °C 9,9 °C 58 % 81 % 1002,5 hPa 0,0 l/m² 20,7 km/h (4 Bft) SW 231 ° 0 min 0 W/m² 6,8 °C 2,9 °C 29,0 km/h (5 Bft)
04.10.2025 22:56 20,7 °C 9,8 °C 58 % 81 % 1002,5 hPa 0,0 l/m² 19,0 km/h (3 Bft) SW 221 ° 0 min 0 W/m² 6,7 °C 3,4 °C 27,4 km/h (5 Bft)
04.10.2025 22:57 20,7 °C 9,9 °C 58 % 81 % 1002,6 hPa 0,0 l/m² 17,6 km/h (3 Bft) SW 226 ° 0 min 0 W/m² 6,8 °C 4,0 °C 22,5 km/h (4 Bft)
04.10.2025 22:58 20,7 °C 9,8 °C 58 % 81 % 1002,6 hPa 0,0 l/m² 17,9 km/h (3 Bft) SW 223 ° 0 min 0 W/m² 6,7 °C 3,8 °C 20,9 km/h (4 Bft)
04.10.2025 22:59 20,7 °C 9,8 °C 58 % 81 % 1002,6 hPa 0,0 l/m² 15,7 km/h (3 Bft) SW 226 ° 0 min 0 W/m² 6,7 °C 4,6 °C 24,1 km/h (4 Bft)
04.10.2025 23:00 20,7 °C 9,8 °C 58 % 81 % 1002,6 hPa 0,0 l/m² 18,4 km/h (3 Bft) SW 222 ° 0 min 0 W/m² 6,7 °C 3,6 °C 22,5 km/h (4 Bft)
04.10.2025 23:01 20,7 °C 9,8 °C 58 % 81 % 1002,6 hPa 0,0 l/m² 16,5 km/h (3 Bft) S-SW 205 ° 0 min 0 W/m² 6,7 °C 4,3 °C 22,5 km/h (4 Bft)
04.10.2025 23:02 20,7 °C 9,8 °C 58 % 80 % 1002,5 hPa 0,0 l/m² 17,8 km/h (3 Bft) SW 220 ° 0 min 0 W/m² 6,5 °C 3,8 °C 25,7 km/h (4 Bft)
04.10.2025 23:03 20,7 °C 9,8 °C 58 % 80 % 1002,6 hPa 0,0 l/m² 19,8 km/h (3 Bft) S-SW 201 ° 0 min 0 W/m² 6,5 °C 3,1 °C 25,7 km/h (4 Bft)
04.10.2025 23:04 20,7 °C 9,8 °C 58 % 81 % 1002,6 hPa 0,0 l/m² 15,2 km/h (3 Bft) SW 232 ° 0 min 0 W/m² 6,7 °C 4,8 °C 20,9 km/h (4 Bft)
04.10.2025 23:05 20,7 °C 9,8 °C 58 % 81 % 1002,5 hPa 0,0 l/m² 17,0 km/h (3 Bft) SW 217 ° 0 min 0 W/m² 6,7 °C 4,1 °C 22,5 km/h (4 Bft)
04.10.2025 23:06 20,7 °C 9,8 °C 58 % 80 % 1002,5 hPa 0,0 l/m² 13,3 km/h (3 Bft) S-SW 212 ° 0 min 0 W/m² 6,5 °C 5,6 °C 16,1 km/h (3 Bft)
04.10.2025 23:07 20,7 °C 9,8 °C 58 % 81 % 1002,6 hPa 0,0 l/m² 14,3 km/h (3 Bft) S-SW 210 ° 0 min 0 W/m² 6,7 °C 5,2 °C 20,9 km/h (4 Bft)
04.10.2025 23:08 20,7 °C 9,8 °C 58 % 81 % 1002,6 hPa 0,0 l/m² 17,4 km/h (3 Bft) S-SW 209 ° 0 min 0 W/m² 6,7 °C 3,9 °C 20,9 km/h (4 Bft)
04.10.2025 23:09 20,7 °C 9,8 °C 58 % 80 % 1002,6 hPa 0,0 l/m² 19,1 km/h (3 Bft) S-SW 212 ° 0 min 0 W/m² 6,5 °C 3,3 °C 24,1 km/h (4 Bft)
04.10.2025 23:10 20,7 °C 9,8 °C 58 % 80 % 1002,6 hPa 0,0 l/m² 15,0 km/h (3 Bft) S-SW 209 ° 0 min 0 W/m² 6,5 °C 4,9 °C 19,3 km/h (3 Bft)
04.10.2025 23:11 20,7 °C 9,8 °C 58 % 80 % 1002,5 hPa 0,0 l/m² 17,5 km/h (3 Bft) S-SW 198 ° 0 min 0 W/m² 6,5 °C 3,9 °C 24,1 km/h (4 Bft)
04.10.2025 23:12 20,7 °C 9,8 °C 58 % 80 % 1002,6 hPa 0,0 l/m² 13,7 km/h (3 Bft) SW 221 ° 0 min 0 W/m² 6,5 °C 5,5 °C 19,3 km/h (3 Bft)
04.10.2025 23:13 20,7 °C 9,8 °C 58 % 81 % 1002,5 hPa 0,0 l/m² 16,6 km/h (3 Bft) S-SW 210 ° 0 min 0 W/m² 6,7 °C 4,2 °C 20,9 km/h (4 Bft)
04.10.2025 23:14 20,7 °C 9,8 °C 58 % 81 % 1002,7 hPa 0,0 l/m² 13,9 km/h (3 Bft) S-SW 196 ° 0 min 0 W/m² 6,7 °C 5,4 °C 20,9 km/h (4 Bft)
04.10.2025 23:15 20,7 °C 9,8 °C 58 % 80 % 1002,7 hPa 0,0 l/m² 19,6 km/h (3 Bft) S 181 ° 0 min 0 W/m² 6,5 °C 3,2 °C 25,7 km/h (4 Bft)
04.10.2025 23:16 20,7 °C 9,8 °C 58 % 80 % 1002,6 hPa 0,0 l/m² 19,3 km/h (3 Bft) S-SW 202 ° 0 min 0 W/m² 6,5 °C 3,3 °C 25,7 km/h (4 Bft)
04.10.2025 23:17 20,7 °C 9,8 °C 58 % 80 % 1002,6 hPa 0,0 l/m² 24,1 km/h (4 Bft) S-SW 202 ° 0 min 0 W/m² 6,5 °C 1,8 °C 29,0 km/h (5 Bft)
04.10.2025 23:18 20,7 °C 9,8 °C 58 % 80 % 1002,5 hPa 0,0 l/m² 19,3 km/h (3 Bft) S-SW 202 ° 0 min 0 W/m² 6,5 °C 3,3 °C 30,6 km/h (5 Bft)
04.10.2025 23:19 20,7 °C 9,8 °C 58 % 80 % 1002,6 hPa 0,0 l/m² 24,1 km/h (4 Bft) SW 225 ° 0 min 0 W/m² 6,5 °C 1,8 °C 30,6 km/h (5 Bft)
04.10.2025 23:20 20,7 °C 9,8 °C 58 % 80 % 1002,5 hPa 0,0 l/m² 16,1 km/h (3 Bft) S-SW 202 ° 0 min 0 W/m² 6,5 °C 4,4 °C 22,5 km/h (4 Bft)
04.10.2025 23:26 20,7 °C 9,8 °C 58 % 80 % 1002,7 hPa 0,0 l/m² 23,8 km/h (4 Bft) SW 223 ° 0 min 0 W/m² 6,5 °C 1,9 °C 25,7 km/h (4 Bft)
04.10.2025 23:28 20,7 °C 9,8 °C 58 % 80 % 1002,7 hPa 0,0 l/m² 20,8 km/h (4 Bft) S-SW 206 ° 0 min 0 W/m² 6,5 °C 2,8 °C 30,6 km/h (5 Bft)
04.10.2025 23:30 20,7 °C 9,8 °C 58 % 80 % 1002,7 hPa 0,0 l/m² 18,2 km/h (3 Bft) SW 221 ° 0 min 0 W/m² 6,5 °C 3,6 °C 24,1 km/h (4 Bft)
04.10.2025 23:31 20,7 °C 9,7 °C 58 % 80 % 1002,7 hPa 0,0 l/m² 20,4 km/h (4 Bft) S-SW 207 ° 0 min 0 W/m² 6,4 °C 2,8 °C 29,0 km/h (5 Bft)
04.10.2025 23:32 20,7 °C 9,7 °C 58 % 80 % 1002,7 hPa 0,0 l/m² 19,4 km/h (3 Bft) SW 218 ° 0 min 0 W/m² 6,4 °C 3,1 °C 25,7 km/h (4 Bft)
04.10.2025 23:34 20,7 °C 9,7 °C 58 % 80 % 1002,7 hPa 0,0 l/m² 21,2 km/h (4 Bft) SW 226 ° 0 min 0 W/m² 6,4 °C 2,5 °C 30,6 km/h (5 Bft)
04.10.2025 23:35 20,7 °C 9,7 °C 58 % 80 % 1002,7 hPa 0,0 l/m² 18,8 km/h (3 Bft) W-SW 238 ° 0 min 0 W/m² 6,4 °C 3,3 °C 24,1 km/h (4 Bft)
04.10.2025 23:37 20,7 °C 9,7 °C 58 % 80 % 1002,7 hPa 0,0 l/m² 16,6 km/h (3 Bft) SW 229 ° 0 min 0 W/m² 6,4 °C 4,1 °C 25,7 km/h (4 Bft)
04.10.2025 23:39 20,7 °C 9,7 °C 58 % 80 % 1002,7 hPa 0,0 l/m² 19,8 km/h (3 Bft) SW 227 ° 0 min 0 W/m² 6,4 °C 3,0 °C 25,7 km/h (4 Bft)
04.10.2025 23:40 20,7 °C 9,7 °C 58 % 80 % 1002,8 hPa 0,0 l/m² 19,9 km/h (4 Bft) W-SW 240 ° 0 min 0 W/m² 6,4 °C 2,9 °C 29,0 km/h (5 Bft)
04.10.2025 23:41 20,7 °C 9,7 °C 58 % 80 % 1002,8 hPa 0,0 l/m² 14,1 km/h (3 Bft) SW 221 ° 0 min 0 W/m² 6,4 °C 5,2 °C 19,3 km/h (3 Bft)
04.10.2025 23:42 20,7 °C 9,7 °C 58 % 80 % 1002,8 hPa 0,0 l/m² 13,3 km/h (3 Bft) SW 214 ° 0 min 0 W/m² 6,4 °C 5,5 °C 19,3 km/h (3 Bft)
04.10.2025 23:44 20,7 °C 9,7 °C 58 % 80 % 1002,8 hPa 0,0 l/m² 20,1 km/h (4 Bft) S-SW 212 ° 0 min 0 W/m² 6,4 °C 2,9 °C 32,2 km/h (5 Bft)
04.10.2025 23:45 20,7 °C 9,7 °C 58 % 80 % 1002,9 hPa 0,0 l/m² 15,6 km/h (3 Bft) SW 229 ° 0 min 0 W/m² 6,4 °C 4,5 °C 20,9 km/h (4 Bft)
04.10.2025 23:47 20,7 °C 9,7 °C 58 % 80 % 1002,8 hPa 0,0 l/m² 12,9 km/h (3 Bft) SW 223 ° 0 min 0 W/m² 6,4 °C 5,7 °C 19,3 km/h (3 Bft)
04.10.2025 23:49 20,7 °C 9,7 °C 58 % 81 % 1002,9 hPa 0,0 l/m² 14,8 km/h (3 Bft) SW 221 ° 0 min 0 W/m² 6,6 °C 4,9 °C 20,9 km/h (4 Bft)
04.10.2025 23:50 20,7 °C 9,7 °C 58 % 81 % 1003,0 hPa 0,0 l/m² 12,6 km/h (3 Bft) S-SW 206 ° 0 min 0 W/m² 6,6 °C 5,9 °C 17,7 km/h (3 Bft)
04.10.2025 23:51 20,7 °C 9,7 °C 58 % 81 % 1003,0 hPa 0,0 l/m² 15,2 km/h (3 Bft) SW 219 ° 0 min 0 W/m² 6,6 °C 4,7 °C 19,3 km/h (3 Bft)
04.10.2025 23:52 20,7 °C 9,7 °C 58 % 81 % 1003,0 hPa 0,0 l/m² 14,8 km/h (3 Bft) W-SW 238 ° 0 min 0 W/m² 6,6 °C 4,9 °C 22,5 km/h (4 Bft)
04.10.2025 23:54 20,7 °C 9,7 °C 58 % 81 % 1003,0 hPa 0,0 l/m² 16,9 km/h (3 Bft) SW 215 ° 0 min 0 W/m² 6,6 °C 4,0 °C 24,1 km/h (4 Bft)
04.10.2025 23:55 20,7 °C 9,8 °C 58 % 81 % 1002,9 hPa 0,0 l/m² 19,7 km/h (3 Bft) SW 224 ° 0 min 0 W/m² 6,7 °C 3,1 °C 24,1 km/h (4 Bft)
04.10.2025 23:57 20,7 °C 9,7 °C 58 % 81 % 1002,9 hPa 0,0 l/m² 12,7 km/h (3 Bft) SW 217 ° 0 min 0 W/m² 6,6 °C 5,8 °C 16,1 km/h (3 Bft)
04.10.2025 23:59 20,7 °C 9,8 °C 58 % 81 % 1002,9 hPa 0,0 l/m² 17,7 km/h (3 Bft) S-SW 200 ° 0 min 0 W/m² 6,7 °C 3,8 °C 22,5 km/h (4 Bft)
_ Min-Zeit 21:41 06:40 23:59 07:57 16:53 - 21:11 - - - - 05:44 09:01 21:11
Minimum _ 20,6 °C 8,6 °C 58 % 69 % 996,3 hPa - 0,0 km/h (0 Bft) - - - - 4,1 °C 1,2 °C 0,0 km/h (0 Bft)
_ Max-Zeit 04:22 13:46 00:53 17:24 00:02 17:57 17:59 - - 13:22 13:11 13:39 13:02 17:59
Maximum _ 21,1 °C 15,3 °C 60 % 91 % 1016,8 hPa 0,4 l/m² 33,7 km/h
W (5 Bft)
- - 3 min 230 W/m² 13,1 °C 14,2 °C 43,5 km/h
W-SW (6 Bft)
Durchschnitt _ 20,8 °C 10,8 °C 58 % 81 % 1003,6 hPa #3,6 l/m² 13,0 km/h (3 Bft) SO - #3:08 h 23 W/m² 7,7 °C 7,1 °C 18,2 km/h (3 Bft)
© 2009 Mathias Hoßbach